     2.11           OBSERVATION DATA    G (GPS)             RINEX VERSION / TYPE
teqc 2007Jun25 20080610 12:46:00UTC                         PGM / RUN BY / DATE
MSXP|IAx86-PII|bcc32 5.0|MSWin95->XP|486/DX+                COMMENT
2.10 OBSERVATION DATA G (GPS)                               COMMENT
JPS2RIN 1.40 RUN BY 03-JUN-08 14:22                         COMMENT
build Feb 6 2004 (c) Javad Navigation Systems               COMMENT
Use -p (profile) switch to override ANTENNA TYPE and DELTA  COMMENT
and other fields                                            COMMENT
sfj10512a.jps                                               COMMENT
SE TPS 00000000                                             COMMENT
sfj10512a_AOSG                                              MARKER NAME
OBSERVER AGENCY                                             OBSERVER / AGENCY
8PBGA1WAOSG TPS MAXOR 2.6.0 Apr,18,2007                     REC # / TYPE / VERS
sfj10512a -Unknown-                                         ANT # / TYPE
  1582503.0875 -1933626.8791  5848739.7492                  APPROX POSITION XYZ
        0.0000        0.0000        0.0000                  ANTENNA: DELTA H/E/N
     1     1                                                WAVELENGTH FACT L1/2
     7    C1    P1    P2    L1    L2    D1    D2            # / TYPES OF OBSERV
    30.0000                                                 INTERVAL
Forced Modulo Decimation to 30 seconds                      COMMENT
teqc windowed: start @ 2008 May 12 00:00:00.000             COMMENT
  2008     5    12     0     0    0.0000000     GPS         TIME OF FIRST OBS
                                                            END OF HEADER
 08  5 12  0  0  0.0000000  0 10G 2G 6G13G16G23G24G25G29G30G31
  24325228.300    24325227.6104   24325229.3244  127829941.698 5  99607775.43542
     -2386.358       -1859.491
  23334806.188    23334805.7394   23334809.1664  122625257.147 6  95552169.82143
      3319.473        2586.602
  22523039.399    22523039.4604   22523041.6604  118359379.773 6  92228118.90444
      2366.481        1844.009
  20843409.603    20843409.0174   20843411.1964  109532895.411 8  85350334.01347
      1657.277        1291.382
  21278391.697    21278391.2284   21278392.1894  111818733.878 8  87131500.74446
      -160.426        -125.007
  23624314.026    23624313.3314   23624317.0464  124146620.004 6  96737643.00842
      1997.474        1556.465
  24319073.687    24319073.5014   24319076.5514  127797602.865 5  99582562.46841
      3286.048        2560.608
  22016563.320    22016563.2074   22016565.5674  115697847.246 7  90154211.10945
     -1612.938       -1256.837
  24953504.649    24953506.0434   24953509.6304  131131582.774 5 102180452.34841
     -4077.371       -3177.190
  22026212.463    22026212.1684   22026213.8104  115748556.561 7  90193707.17046
     -2842.341       -2214.813
 08  5 12  0  0 30.0000000  0 10G 2G 6G13G16G23G24G25G29G30G31
  24338896.419    24338895.9744   24338897.7604  127901773.234 5  99663748.06041
     -2402.193       -1871.830
  23315878.058    23315877.3554   23315881.4604  122525792.691 6  95474665.08843
      3311.562        2580.439
  22509578.219    22509577.8884   22509580.0244  118288638.840 7  92172996.10643
      2349.605        1830.852
  20833994.615    20833994.0124   20833996.2874  109483419.083 8  85311780.95847
      1641.189        1278.847
  21279370.924    21279370.2684   21279371.4814  111823879.288 8  87135510.22346
      -182.566        -142.260
  23612954.411    23612953.3854   23612957.1124  124086928.568 6  96691130.34942
      1981.958        1544.377
  24300328.874    24300328.5264   24300332.7464  127699099.452 5  99505806.28342
      3280.996        2556.633
  22025823.383    22025823.2114   22025825.6024  115746509.158 7  90192129.48745
     -1631.142       -1271.025
  24976787.501    24976788.3394   24976791.2194  131253933.771 5 102275790.93241
     -4079.269       -3178.603
  22042471.315    22042471.2204   22042472.8934  115833998.787 7  90260285.52545
     -2853.781       -2223.724
 08  5 12  0  1  0.0000000  0 10G 2G 6G13G16G23G24G25G29G30G31
  24352656.745    24352655.0154   24352656.8044  127974076.336 5  99720088.15341
     -2417.858       -1884.066
  23296996.436    23296996.1134   23296999.5884  122426566.999 6  95397346.41643
      3303.566        2574.203
  22496212.780    22496212.7804   22496215.1734  118218406.303 6  92118269.42443
      2332.583        1817.600
  20824671.767    20824671.1034   20824673.3484  109434426.725 8  85273605.05447
      1625.041        1266.266
  21280476.477    21280475.9444   21280476.9724  111829689.341 8  87140037.49746
      -204.724        -159.522
  23601684.265    23601684.1684   23601687.7664  124027707.508 6  96644984.32642
      1966.241        1532.136
  24281612.175    24281612.5814   24281617.7554  127600749.994 5  99429170.41742
      3275.839        2552.581
  22035187.372    22035187.0994   22035189.4184  115795717.437 7  90230473.62345
     -1649.321       -1285.184
  25000080.803    25000081.8934   25000084.2064  131376341.985 5 102371173.83141
     -4081.057       -3180.077
  22058795.733    22058795.4124   22058797.2624  115919783.257 7  90327130.51546
     -2865.148       -2232.579
 08  5 12  0  1 30.0000000  0 10G 2G 6G13G16G23G24G25G29G30G31
  24366503.484    24366502.2074   24366504.8564  128046848.206 5  99776793.53441
     -2433.508       -1896.213
  23278160.404    23278159.5504   23278163.2534  122327582.450 6  95320215.65543
      3295.440        2567.890
  22482946.306    22482945.3454   22482947.6704  118148684.778 7  92063940.94643
      2315.484        1804.271
  20815441.192    20815440.6464   20815442.7114  109385919.214 8  85235806.85847
      1608.803        1253.627
  21281708.824    21281708.2594   21281708.7284  111836164.333 8  87145082.97646
      -226.934        -176.824
  23590504.427    23590504.2184   23590508.0254  123968958.188 6  96599205.75142
      1950.438        1519.819
  24262928.362    24262928.1504   24262932.0624  127502555.981 5  99352655.71542
      3270.487        2548.419
  22044654.808    22044654.8654   22044657.1904  115845470.082 7  90269241.92645
     -1667.508       -1299.361
  25023384.445    25023386.5334   25023387.2194  131498805.475 4 102466599.92841
     -4083.102       -3181.672
  22075184.651    22075184.7374   22075186.2354  116005908.298 7  90394240.89645
     -2876.506       -2241.434
 08  5 12  0  2  0.0000000  0 10G 2G 6G13G16G23G24G25G29G30G31
  24380439.506    24380439.7284   24380441.2784  128120087.952 5  99833863.45541
     -2449.052       -1908.321
  23259369.853    23259369.6784   23259373.8144  122228842.953 6  95243275.85243
      3287.154        2561.417
  22469776.521    22469775.8974   22469778.4734  118079478.489 7  92010013.97643
      2298.155        1790.765
  20806303.528    20806302.7674   20806305.1564  109337899.713 8  85198389.06547
      1592.443        1240.858
  21283067.662    21283067.2844   21283067.9424  111843305.775 8  87150647.71746
      -249.181        -194.163
  23579415.900    23579415.6484   23579417.8794  123910683.266 6  96553796.06342
      1934.544        1507.529
  24244272.842    24244272.4424   24244276.4264  127404521.167 6  99276265.13242
      3265.003        2544.156
  22054226.227    22054225.9664   22054228.0054  115895766.767 7  90308434.15145
     -1685.664       -1313.502
  25046700.032    25046698.8034   25046702.2224  131621324.220 5 102562069.04041
     -4084.870       -3183.028
  22091638.863    22091638.7784   22091640.2994  116092373.893 7  90461616.67845
     -2887.865       -2250.282
 08  5 12  0  2 30.0000000  0 10G 2G 6G13G16G23G24G25G29G30G31
  24394466.785    24394466.5144   24394468.1624  128193793.575 5  99891296.40641
     -2464.547       -1920.396
  23240627.945    23240626.8614   23240631.1254  122130351.141 6  95166529.02643
      3278.969        2555.044
  22456704.872    22456705.0484   22456707.0394  118010790.148 6  91956490.58043
      2281.054        1777.450
  20797258.760    20797258.0664   20797260.1584  109290369.705 8  85161352.84747
      1576.245        1228.239
  21284553.746    21284553.3964   21284554.1754  111851112.691 8  87156730.36846
      -271.207        -211.281
  23568417.938    23568417.4714   23568422.5224  123852885.654 5  96508757.57042
      1918.527        1494.934
  24225647.905    24225648.3284   24225650.8704  127306647.499 6  99200000.07742
      3259.912        2540.199
  22063900.411    22063900.4014   22063902.5994  115946606.307 7  90348049.38345
     -1703.625       -1327.499
  25070024.616    25070024.9744   25070026.0294  131743896.292 5 102657579.69241
     -4086.517       -3184.337
  22108157.107    22108156.9114   22108158.5154  116179178.936 7  90529256.94846
     -2899.071       -2259.009
 08  5 12  0  3  0.0000000  0  9G 2G 6G13G16G23G24G25G29G31
  24408579.455    24408579.6134   24408581.3344  128267962.364 5  99949090.25441
     -2480.093       -1932.519
  23221933.684    23221932.8244   23221936.6344  122032109.135 6  95089976.88243
      3270.496        2548.433
  22443732.884    22443732.9124   22443735.7484  117942621.923 6  91903372.51143
      2263.608        1763.849
  20788307.088    20788306.4794   20788308.6334  109243329.609 8  85124698.35947
      1559.821        1215.439
  21286166.386    21286165.8954   21286166.8874  111859587.345 8  87163334.00646
      -293.667        -228.838
  23557511.069    23557510.7504   23557516.1424  123795572.685 5  96464098.97942
      1902.430        1482.402
  24207053.266    24207052.4694   24207057.9174  127208936.062 5  99123861.40441
      3254.239        2535.759
  22073678.140    22073677.7764   22073680.1944  115997986.731 7  90388086.06945
     -1721.683       -1341.578
  22124739.715    22124739.6884   22124741.4124  116266320.942 7  90597159.80445
     -2910.362       -2267.820
 08  5 12  0  3 30.0000000  0  9G 2G 6G13G16G23G24G25G29G31
  24422782.460    24422781.5364   24422783.9314  128342590.144 5 100007241.76441
     -2495.180       -1944.279
  23203286.625    23203285.5304   23203289.1714  121934117.543 6  95013619.83643
      3262.058        2541.861
  22430859.704    22430859.9224   22430862.6954  117874974.602 6  91850660.30743
      2246.094        1750.203
  20779448.593    20779448.0224   20779450.1604  109196778.624 8  85088424.93947
      1543.436        1202.679
  21287905.832    21287905.1874   21287905.9984  111868726.464 8  87170455.35946
      -315.753        -246.015
  23546696.420    23546695.6874   23546700.9774  123738739.729 6  96419813.72643
      1886.271        1469.808
  24188489.515    24188489.6554   24188494.3784  127111388.238 5  99047850.80642
      3248.802        2531.501
  22083557.814    22083557.4204   22083559.9054  116049904.595 7  90428541.55645
     -1739.641       -1355.565
  22141385.723    22141385.6924   22141387.2824  116353796.734 7  90665322.75545
     -2921.528       -2276.513
 08  5 12  0  4  0.0000000  0  9G 2G 6G13G16G23G24G25G29G31
  24437070.374    24437068.5734   24437070.3614  128417675.455 5 100065749.80642
     -2510.312       -1956.094
  23184687.239    23184686.7194   23184690.1504  121836379.698 6  94937460.52743
      3253.689        2535.342
  22418086.722    22418086.6494   22418089.4694  117807851.893 6  91798356.89243
      2228.694        1736.646
  20770683.663    20770683.1354   20770685.2234  109150719.030 8  85052534.38747
      1527.131        1189.974
  21289771.529    21289771.0334   21289771.9154  111878531.106 8  87178095.25946
      -337.958        -263.357
  23535973.506    23535972.9574   23535978.1324  123682390.569 6  96375905.27043
      1870.236        1457.330
  24169959.014    24169958.3604   24169962.5914  127014005.752 5  98971968.90442
      3243.360        2527.297
  22093539.785    22093539.4064   22093541.3624  116102359.332 7  90469415.36445
     -1757.422       -1369.418
  22158095.546    22158095.3684   22158096.9964  116441605.947 7  90733745.50645
     -2932.511       -2285.073
 08  5 12  0  4 30.0000000  0  9G 2G 6G13G16G23G24G25G29G31
  24451445.945    24451444.3054   24451445.8464  128493216.569 5 100124612.95942
     -2525.653       -1968.043
  23166137.664    23166136.8824   23166140.0564  121738899.161 6  94861501.70243
      3245.023        2528.578
  22405414.444    22405414.1054   22405417.0524  117741256.949 6  91746464.74243
      2211.034        1722.880
  20762012.747    20762012.2174   20762014.2024  109105153.061 8  85017028.49047
      1510.612        1177.100
  21291764.132    21291763.4324   21291764.0864  111889002.795 8  87186255.32446
      -360.179        -280.660
  23525344.011    23525343.0334   23525347.5824  123626529.207 6  96332376.98343
      1853.826        1444.532
  24151459.387    24151459.0514   24151463.6934  126916791.250 6  98896217.62442
      3237.673        2522.868
  22103623.418    22103623.0294   22103625.4224  116155350.093 7  90510706.89745
     -1775.302       -1383.351
  22174868.214    22174867.9244   22174869.6374  116529747.744 7  90802427.42845
     -2943.624       -2293.732
 08  5 12  0  5  0.0000000  0  9G 2G 6G13G16G23G24G25G29G31
  24465906.872    24465905.7504   24465907.7964  128569210.990 5 100183829.41241
     -2540.597       -1979.699
  23147635.849    23147635.3514   23147639.4134  121641677.685 6  94785744.72543
      3236.418        2521.883
  22392843.040    22392843.1934   22392845.5054  117675192.121 7  91694985.62744
      2193.346        1709.109
  20753435.954    20753435.2854   20753437.3524  109060081.285 8  84981907.66447
      1494.204        1164.314
  21293883.375    21293882.8194   21293883.2704  111900140.164 8  87194933.96946
      -382.292        -297.896
  23514807.006    23514806.6714   23514810.9884  123571156.660 6  96289229.26843
      1837.755        1432.027
  24132992.017    24132992.2354   24132995.6644  126819746.680 6  98820598.62742
      3232.062        2518.482
  22113808.711    22113808.4064   22113810.6744  116208874.709 7  90552414.41345
     -1792.948       -1397.106
  22191703.607    22191703.5544   22191705.4154  116618219.837 7  90871366.69645
     -2954.487       -2302.194
 08  5 12  0  5 30.0000000  0  9G 2G 6G13G16G23G24G25G29G31
  24480453.887    24480452.7394   24480454.0784  128645657.017 5 100243397.75741
     -2555.835       -1991.540
  23129185.645    23129185.0484   23129189.1524  121544718.829 6  94710192.39343
      3227.447        2514.883
  22380372.823    22380372.9384   22380374.9564  117609660.742 6  91643922.21844
      2175.387        1695.102
  20744953.431    20744952.8194   20744954.8884  109015505.852 8  84947173.62747
      1477.477        1151.282
  21296129.762    21296129.0544   21296129.7814  111911944.051 8  87204131.84646
      -404.642        -315.290
  23504363.993    23504363.1134   23504368.0544  123516277.709 6  96246466.43343
      1820.905        1418.867
  24114558.279    24114557.8604   24114561.0124  126722874.920 5  98745114.23542
      3225.962        2513.729
  22124095.506    22124095.3984   22124097.5154  116262932.372 7  90594537.26845
     -1810.909       -1411.097
  22208602.243    22208602.1224   22208604.1724  116707022.032 7  90940563.17645
     -2965.674       -2310.914
 08  5 12  0  6  0.0000000  0  9G 2G 6G13G16G23G24G25G29G31
  24495087.040    24495086.1214   24495087.8104  128722554.904 5 100303318.18342
     -2570.608       -2003.047
  23110785.994    23110785.7934   23110789.1664  121448027.833 6  94634848.77343
      3218.652        2508.033
  22368005.237    22368005.1244   22368007.4854  117544668.160 7  91593278.63044
      2157.512        1681.172
  20736566.191    20736565.5204   20736567.6634  108971430.430 8  84912829.13547
      1460.927        1138.386
  21298503.113    21298502.6744   21298503.5124  111924416.810 8  87213850.60746
      -426.803        -332.571
  23494014.558    23494014.2284   23494019.8904  123461897.404 6  96204092.68443
      1804.495        1406.083
  24096157.013    24096156.9674   24096160.8024  126626180.636 5  98669768.11742
      3220.297        2509.330
  22134483.774    22134483.9084   22134485.9824  116317524.213 7  90637076.36645
     -1828.490       -1424.794
  22225563.754    22225563.6684   22225565.3784  116796155.537 7  91010017.81445
     -2976.497       -2319.352
 08  5 12  0  6 30.0000000  0  9G 2G 6G13G16G23G24G25G29G31
  24509804.752    24509804.9454   24509805.1724  128799899.442 6 100363586.73442
     -2585.567       -2014.731
  23092437.543    23092437.1544   23092440.5634  121351604.296 6  94559713.57843
      3209.643        2501.021
  22355739.781    22355739.7874   22355742.4504  117480214.215 6  91543054.79644
      2139.424        1667.078
  20728273.680    20728273.0554   20728275.2264  108927853.358 8  84878872.99247
      1444.237        1125.380
  21301003.695    21301003.1744   21301003.7074  111937556.954 8  87224089.77246
      -449.144        -349.988
  23483760.303    23483760.3454   23483765.0634  123408013.718 5  96162105.57743
      1787.807        1393.066
  24077790.822    24077790.6974   24077794.3714  126529663.122 5  98594559.72442
      3214.291        2504.633
  22144973.466    22144973.0184   22144975.2644  116372645.709 7  90680028.20745
     -1846.204       -1438.599
  22242587.391    22242587.3774   22242589.4074  116885615.691 7  91079727.03745
     -2987.441       -2327.881
 08  5 12  0  7  0.0000000  0  9G 2G 6G13G16G23G24G25G29G31
  24524607.170    24524606.8834   24524608.4464  128877688.919 5 100424201.81742
     -2600.287       -2026.193
  23074139.844    23074139.4494   23074142.8594  121255451.555 6  94484789.40543
      3200.600        2493.971
  22343577.443    22343577.4704   22343580.7174  117416301.843 7  91493252.93744
      2121.445        1653.071
  20720076.558    20720075.8044   20720077.8654  108884776.738 8  84845306.81347
      1427.594        1112.408
  21303631.129    21303630.4064   21303630.7424  111951364.362 8  87234848.94046
      -471.274        -367.233
  23473602.136    23473601.7524   23473605.5794  123354630.013 6  96120507.94742
      1771.181        1380.111
  24059458.848    24059458.4434   24059461.7414  126433325.330 6  98519491.30142
      3208.302        2499.983
  22155562.761    22155562.7734   22155565.1954  116428295.823 7  90723391.93345
     -1863.746       -1452.272
  22259673.211    22259673.3134   22259674.7394  116975401.572 7  91149690.04645
     -2998.219       -2336.278
 08  5 12  0  7 30.0000000  0  9G 2G 6G13G16G23G24G25G29G31
  24539494.863    24539494.1434   24539495.2414  128955920.751 5 100485161.69641
     -2614.994       -2037.674
  23055894.888    23055894.6934   23055898.1074  121159571.688 6  94410077.83844
      3191.483        2486.868
  22331519.565    22331519.2324   22331521.8554  117352934.048 6  91443875.40444
      2103.255        1638.895
  20711974.823    20711974.1054   20711976.2324  108842201.100 8  84812130.79547
      1410.884        1099.406
  21306385.273    21306384.6914   21306385.4704  111965838.089 8  87246127.14446
      -493.520        -384.567
  23463537.634    23463537.7174   23463542.8544  123301749.335 6  96079302.65142
      1754.405        1367.077
  24041161.075    24041160.4684   24041164.7024  126337168.873 6  98444564.25543
      3202.198        2495.229
  22166252.977    22166252.9794   22166255.3294  116484472.553 7  90767165.98745
     -1881.244       -1465.900
  22276820.654    22276820.4484   22276822.1744  117065511.530 7  91219905.58945
     -3009.001       -2344.681
 08  5 12  0  8  0.0000000  0  9G 2G 6G13G16G23G24G25G29G31
  24554465.352    24554464.5574   24554466.3634  129034590.451 4 100546462.72041
     -2629.724       -2049.090
  23037701.407    23037701.0404   23037704.0944  121063965.113 6  94335579.24043
      3182.402        2479.795
  22319564.687    22319564.3084   22319566.4784  117290110.947 7  91394922.38644
      2085.015        1624.680
  20703967.965    20703967.4214   20703969.6474  108800125.843 8  84779344.82147
      1394.258        1086.459
  21309266.072    21309265.5094   21309266.2684  111980976.791 8  87257923.73346
      -515.631        -401.796
  23453570.353    23453570.6474   23453574.1864  123249370.863 5  96038488.50642
      1737.604        1353.975
  24022896.625    24022896.9244   24022900.6204  126241193.906 6  98369778.77643
      3196.119        2490.479
  22177042.692    22177042.5544   22177044.7854  116541172.219 7  90811347.54245
     -1898.672       -1479.485
  22294028.428    22294028.6084   22294030.6094  117155941.799 7  91290370.71745
     -3019.647       -2352.973
 08  5 12  0  8 30.0000000  0  9G 2G 6G13G16G23G24G25G29G31
  24569518.319    24569517.6784   24569518.3094  129113693.919 5 100608101.71541
     -2644.001       -2060.247
  23019559.680    23019559.4044   23019563.4954  120968632.935 6  94261294.44243
      3173.178        2472.604
  22307713.502    22307713.3194   22307715.5164  117227832.947 7  91346394.10544
      2066.810        1610.495
  20696056.530    20696056.0364   20696058.3114  108758550.404 8  84746948.22847
      1377.519        1073.397
  21312272.619    21312272.1764   21312272.9374  111996778.078 8  87270236.50346
      -537.713        -418.999
  23443699.324    23443699.1384   23443702.9974  123197495.873 6  95998066.83842
      1720.777        1340.853
  24004668.344    24004667.4034   24004670.9674  126145400.637 6  98295134.76042
      3190.048        2485.735
  22187931.421    22187931.0904   22187933.3204  116598391.844 7  90855934.25945
     -1915.925       -1492.933
  22311297.237    22311297.4384   22311299.5744  117246689.897 7  91361083.50645
     -3030.197       -2361.195
 08  5 12  0  9  0.0000000  0 10G 2G 6G13G16G21G23G24G25G29G31
  24584653.200    24584652.9134   24584655.0104  129193230.451 5 100670078.17541
     -2658.279       -2071.366
  23001471.724    23001471.5094   23001474.8404  120873579.109 6  94187226.57544
      3163.859        2465.341
  22295967.117    22295967.0314   22295969.2714  117166104.567 7  91298294.01744
      2048.478        1596.225
  20688240.673    20688240.1354   20688242.3044  108717478.201 8  84714944.14447
      1360.728        1060.296
  25279841.692    25279842.1114   25279842.7744  132846466.774 4 103516745.4564
      3167.862        2468.484
  21315405.735    21315405.2444   21315405.8914  112013243.533 8  87283066.75046
      -559.859        -436.258
  23433924.487    23433923.8374   23433928.6984  123146127.298 6  95958039.46842
      1703.866        1327.681
  23986474.160    23986473.4964   23986476.7974  126049792.882 5  98220635.24042
      3183.882        2480.952
  22198918.698    22198918.5494   22198920.4664  116656131.050 7  90900925.85245
     -1933.273       -1506.451
  22328626.758    22328626.7994   22328628.5534  117337755.397 7  91432043.65445
     -3040.785       -2369.447
 08  5 12  0  9 30.0000000  0 10G 2G 6G13G16G21G23G24G25G29G31
  24599870.279    24599869.8694   24599873.8364  129273196.314 4 100732389.26141
     -2672.736       -2082.673
  22983437.638    22983437.0704   22983439.8164  120778804.834 6  94113376.51944
      3154.467        2458.019
  22284325.357    22284325.2674   22284327.7464  117104926.953 7  91250623.16744
      2030.068        1581.863
  20680520.435    20680519.7874   20680521.9764  108676907.969 8  84683331.08647
      1343.999        1047.274
  25261769.130    25261768.5314   25261770.2334  132751490.997 5 103442738.35341
      3163.832        2465.336
  21318665.339    21318664.7294   21318665.1394  112030371.325 8  87296413.09546
      -581.926        -453.447
  23424246.411    23424246.6824   23424248.7274  123095266.702 6  95918407.90043
      1686.896        1314.475
  23968316.688    23968316.0054   23968319.1204  125954371.207 6  98146280.72042
      3177.638        2476.085
  22210004.562    22210004.2124   22210006.4914  116714386.693 7  90946319.85545
     -1950.447       -1519.824
  22346015.512    22346015.7054   22346017.4014  117429135.451 7  91503248.88645
     -3051.183       -2377.547
 08  5 12  0 10  0.0000000  0  9G 6G13G16G21G23G24G25G29G31
  22965455.389    22965454.9734   22965457.9874  120684308.904 6  94039743.33844
      3145.155        2450.776
  22272788.295    22272787.9704   22272790.2724  117044298.974 7  91203380.70844
      2011.720        1567.568
  20672895.269    20672894.6084   20672896.8024  108636837.509 8  84652107.38247
      1327.319        1034.276
  25243718.068    25243718.3084   25243720.5544  132656634.667 5 103368824.33241
      3159.733        2462.132
  21322049.890    21322049.4684   21322050.1364  112048158.176 8  87310273.06146
      -603.915        -470.587
  23414663.680    23414663.8214   23414668.2114  123044912.680 6  95879171.02043
      1669.972        1301.272
  23950193.354    23950193.3154   23950196.1194  125859133.958 6  98072069.80443
      3171.467        2471.270
  22221187.258    22221187.1774   22221189.3034  116773153.050 7  90992111.82845
     -1967.406       -1533.043
  22363464.023    22363463.9264   22363465.6034  117520824.960 7  91574695.25745
     -3061.468       -2385.558
 08  5 12  0 10 30.0000000  0  9G 6G13G16G21G23G24G25G29G31
  22947527.155    22947526.7784   22947529.6604  120590096.766 6  93966331.31044
      3135.598        2443.324
  22261356.444    22261356.4614   22261358.6574  116984225.933 7  91156570.59344
      1993.074        1553.044
  20665365.833    20665365.2754   20665367.5384  108597270.393 8  84621275.83847
      1310.447        1021.127
  25225691.586    25225690.8584   25225693.5144  132561904.128 5 103295008.36742
      3155.557        2458.873
  21325560.370    21325559.8374   21325560.8714  112066606.232 8  87324648.17746
      -626.019        -487.808
  23405178.987    23405178.8304   23405183.2384  122995070.463 6  95840332.96043
      1652.803        1287.907
  23932106.444    23932105.7914   23932109.8734  125764086.132 6  97998006.48742
      3164.997        2466.225
  22232467.543    22232467.4694   22232469.7624  116832431.935 7  91038303.17545
     -1984.580       -1546.430
  22380971.101    22380971.1674   22380972.8384  117612825.130 7  91646383.71845
     -3071.923       -2393.706
 08  5 12  0 11  0.0000000  0  9G 6G13G16G21G23G24G25G29G31
  22929653.552    22929652.7394   22929656.4114  120496169.832 6  93893141.51544
      3126.108        2435.926
  22250030.836    22250030.6814   22250032.6804  116924709.182 7  91110193.89644
      1974.579        1538.632
  20657932.548    20657931.9314   20657934.2274  108558206.722 8  84590836.31447
      1293.688        1008.082
  25207688.772    25207687.6504   25207690.9534  132467301.110 5 103221291.78241
      3151.308        2455.551
  21329196.294    21329195.9034   21329196.4154  112085714.248 8  87339537.58246
      -647.942        -504.887
  23395793.422    23395792.3674   23395796.1354  122945741.314 6  95801894.72843
      1635.702        1274.579
  23914055.889    23914055.7334   23914059.0674  125669228.874 5  97924091.65442
      3158.791        2461.414
  22243845.090    22243844.8704   22243847.3064  116892220.627 7  91084891.77845
     -2001.468       -1559.580
  22398536.186    22398536.4984   22398538.7154  117705133.677 7  91718312.49245
     -3082.100       -2401.629
 08  5 12  0 11 30.0000000  0  9G 6G13G16G21G23G24G25G29G31
  22911834.212    22911833.3334   22911837.4734  120402529.053 6  93820174.71644
      3116.561        2428.487
  22238811.233    22238810.8524   22238813.4554  116865749.878 7  91064251.63144
      1955.996        1524.151
  20650595.011    20650594.4974   20650596.8164  108519646.525 8  84560789.01647
      1276.945         995.025
  25189710.826    25189710.1244   25189711.2534  132372826.416 5 103147675.18841
      3146.915        2452.138
  21332958.246    21332957.6434   21332957.5804  112105480.918 8  87354940.24346
      -669.826        -521.946
  23386503.648    23386502.8534   23386507.3664  122896925.319 6  95763856.31143
      1618.605        1261.253
  23896040.329    23896041.1614   23896044.4194  125574562.966 5  97850325.98342
      3152.390        2456.412
  22255318.958    22255318.4964   22255320.9044  116952515.121 7  91131874.49445
     -2018.214       -1572.631
  22416160.573    22416160.4404   22416161.6354  117797747.109 7  91790478.81745
     -3092.156       -2409.473
 08  5 12  0 12  0.0000000  0  9G 6G13G16G21G23G24G25G29G31
  22894069.253    22894069.1024   22894072.8734  120309176.788 6  93747432.74044
      3106.805        2420.889
  22227697.939    22227697.9104   22227700.0994  116807350.378 7  91018745.60544
      1937.214        1509.500
  20643353.298    20643352.7314   20643355.0694  108481591.153 8  84531135.55047
      1260.002         981.818
  25171758.441    25171757.2264   25171759.1824  132278482.969 5 103074160.78041
      3142.548        2448.731
  21336844.448    21336843.9664   21336844.1594  112125904.819 8  87370855.04746
      -691.831        -539.089
  23377311.431    23377311.3104   23377315.5404  122848624.747 6  95726219.54843
      1601.328        1247.793
  23878063.553    23878063.5434   23878066.6994  125480090.622 6  97776711.29842
      3145.761        2451.268
  22266888.041    22266888.0424   22266890.3644  117013313.854 7  91179250.13145
     -2035.104       -1585.795
  22433841.947    22433841.9344   22433843.4474  117890664.076 7  91862881.64045
     -3102.360       -2417.423
 08  5 12  0 12 30.0000000  0  9G 6G13G16G21G23G24G25G29G31
  22876360.793    22876359.9704   22876363.7994  120216116.136 6  93674917.98244
      3097.091        2413.313
  22216691.838    22216691.7414   22216693.9844  116749513.393 7  90973677.84544
      1918.464        1494.907
  20636207.889    20636207.2324   20636209.4724  108444041.951 8  84501876.60347
      1243.144         968.680
  25153830.257    25153829.5684   25153833.1274  132184273.950 5 103000751.20041
      3138.096        2445.289
  21340855.785    21340855.4044   21340856.2644  112146986.536 8  87387282.37146
      -713.724        -556.151
  23368218.826    23368218.3644   23368223.8124  122800842.364 6  95688986.53543
      1584.079        1234.341
  23860122.962    23860123.3564   23860126.3414  125385814.082 6  97703249.11842
      3139.266        2446.165
  22278553.398    22278553.1924   22278555.7164  117074615.345 7  91227017.51345
     -2051.775       -1598.789
  22451580.415    22451580.5234   22451582.6624  117983883.487 7  91935520.08845
     -3112.399       -2425.244
 08  5 12  0 13  0.0000000  0  9G 6G13G16G21G23G24G25G29G31
  22858708.224    22858707.7684   22858711.0664  120123351.636 6  93602634.00144
      3087.169        2405.581
  22205793.811    22205793.3674   22205795.7354  116692243.450 7  90929051.94544
      1899.481        1480.114
  20629159.223    20629158.6264   20629160.8134  108407001.892 8  84473014.39047
      1226.175         955.459
  25135929.984    25135930.4244   25135931.0654  132090204.734 5 102927450.63141
      3133.300        2441.529
  21344993.114    21344992.7174   21344993.4794  112168727.891 8  87404223.73646
      -735.705        -573.276
  23359225.492    23359225.1134   23359229.8424  122753582.193 6  95652160.46243
      1566.617        1220.716
  23842220.609    23842220.7774   23842225.2854  125291737.576 6  97629942.89242
      3132.542        2440.935
  22290314.719    22290314.3224   22290316.7094  117136420.168 7  91275177.11245
     -2068.538       -1611.847
  22469377.378    22469377.5424   22469379.5254  118077405.734 7  92008394.54645
     -3122.436       -2433.070
 08  5 12  0 13 30.0000000  0 10G 3G 6G13G16G21G23G24G25G29G31
  24908380.814                                   130894428.002 5
      4035.333
  22841112.338    22841112.0794   22841115.2894  120030884.940 6  93530582.05044
      3077.178        2397.790
  22195004.291    22195004.2014   22195006.0394  116635542.017 7  90884869.01644
      1880.510        1465.330
  20622207.561    20622206.9624   20622209.1294  108370470.612 8  84444548.49147
      1209.205         942.239
  25118056.690    25118056.1914   25118057.1794  131996277.186 5 102854260.35241
      3128.521        2437.786
  21349255.819    21349255.3494   21349255.7654  112191127.741 8  87421678.20846
      -757.643        -590.373
  23350331.180    23350330.8434   23350335.4244  122706845.698 6  95615742.39843
      1549.081        1207.079
  23824357.494    23824357.2824   23824360.8884  125197862.196 6  97556793.32742
      3125.762        2435.660
  22302170.944    22302170.8214   22302173.1914  117198725.892 7  91323727.03945
     -2085.203       -1624.832
  22487231.843    22487231.6794   22487232.9324  118171228.476 7  92081503.15345
     -3132.438       -2440.855
 08  5 12  0 14  0.0000000  0 10G 3G 6G13G16G21G23G24G25G29G31
  24885347.923    24885347.0304   24885350.1864  130773389.155 4 101901364.31541
      4033.862        3143.310
  22823573.915    22823573.6924   22823576.6354  119938719.531 6  93458764.89044
      3067.148        2389.976
  22184322.978    22184322.8384   22184324.7904  116579412.782 7  90841131.94844
      1861.444        1450.474
  20615353.366    20615352.5554   20615354.7724  108334450.220 8  84416480.62247
      1192.199         928.981
  25100209.403    25100209.1444   25100209.6124  131902494.828 5 102781183.14841
      3123.608        2433.962
  21353643.710    21353643.1484   21353643.6084  112214186.364 8  87439645.98046
      -779.568        -607.456
  23341537.835    23341537.6784   23341542.7254  122660636.005 6  95579734.88043
      1531.544        1193.410
  23806532.824    23806532.2034   23806535.6614  125104191.213 6  97483802.97542
      3118.985        2430.369
  22314122.196    22314122.1844   22314124.7054  117261531.309 7  91372666.34445
     -2101.762       -1637.740
  22505142.652    22505142.5704   22505144.2984  118265351.336 7  92154845.63245
     -3142.372       -2448.606
 08  5 12  0 14 30.0000000  0 11G 3G 6G10G13G16G21G23G24G25G29G31
  24862323.306    24862322.2814   24862326.8684  130652393.937 4 101807082.44941
      4032.485        3142.174
  22806092.951    22806092.3954   22806095.2134  119846854.530 6  93387181.81144
      3057.204        2382.238
  24842822.878                                   130549917.725 4
      2613.560
  22173750.245    22173750.2164   22173752.6654  116523854.584 7  90797839.89244
      1842.452        1435.676
  20608595.448    20608594.8124   20608597.0064  108298938.855 8  84388809.52947
      1175.252         915.780
  25082389.802    25082388.6604   25082393.2904  131808857.294 4 102708218.85441
      3118.885        2430.283
  21358156.190    21358155.6734   21358156.2914  112237900.055 8  87458124.17846
      -801.341        -624.419
  23332845.124    23332844.3774   23332848.6204  122614951.335 6  95544136.43343
      1514.085        1179.800
  23788745.925    23788746.1464   23788749.2114  125010723.020 6  97410970.72642
      3112.270        2425.125
  22326168.344    22326167.9244   22326170.2934  117324831.026 7  91421990.79845
     -2118.172       -1650.523
  22523109.929    22523109.8914   22523111.2964  118359769.108 7  92228417.92145
     -3152.144       -2456.221
 08  5 12  0 15  0.0000000  0 11G 3G 6G10G13G16G21G23G24G25G29G31
  24839309.546    24839307.0504   24839313.5524  130531445.638 5 101712837.07341
      4030.744        3140.816
  22788668.815    22788668.6424   22788672.0494  119755292.847 6  93315835.07144
      3046.905        2374.204
  24827941.289    24827941.7324   24827947.9924  130471714.997 5 101666290.39841
      2599.886        2025.902
  22163287.352    22163287.5134   22163289.4824  116468870.277 7  90754995.01644
      1823.153        1420.638
  20601934.772    20601934.2494   20601936.3734  108263937.790 8  84361536.04647
      1158.137         902.449
  25064601.360    25064599.8684   25064602.6754  131715368.059 5 102635370.34041
      3113.643        2426.232
  21362793.160    21362792.7704   21362793.2704  112262268.541 8  87477112.58346
      -823.269        -641.509
  23324251.856    23324251.5024   23324255.5294  122569794.866 6  95508949.58243
      1496.306        1165.946
  23770998.376    23770998.1994   23771000.3154  124917460.582 6  97338298.73642
      3105.150        2419.611
  22338307.630    22338307.4734   22338309.6984  117388624.067 7  91471699.64945
     -2134.676       -1663.388
  22541133.136    22541133.3004   22541134.5864  118454480.977 7  92302219.37845
     -3162.050       -2463.935
 08  5 12  0 15 30.0000000  0 11G 3G 6G10G13G16G21G23G24G25G29G31
  24816302.176    24816299.4744   24816306.5334  130410547.327 4 101618630.59041
      4029.300        3139.720
  22771303.481    22771303.0644   22771306.3184  119664037.733 6  93244727.21644
      3036.825        2366.354
  24813136.210    24813136.6764   24813140.5484  130393919.287 5 101605670.40841
      2586.440        2015.420
  22152934.099    22152933.8584   22152935.6994  116414462.803 7  90712599.59444
      1804.027        1405.736
  20595371.767    20595371.2154   20595373.4224  108229448.116 8  84334660.77647
      1141.166         889.221
  25046840.549    25046839.3224   25046838.6194  131622030.671 6 102562639.88641
      3108.806        2422.446
  21367555.240    21367554.8194   21367555.2464  112287292.210 8  87496611.54946
      -844.974        -658.424
  23315760.806    23315760.1354   23315763.8464  122525169.324 6  95474176.45143
      1478.758        1152.280
  23753289.658    23753290.6194   23753294.1924  124824406.730 5  97265789.31242
      3098.334        2414.271
  22350540.596    22350540.4074   22350542.7714  117452909.410 7  91521792.13745
     -2150.929       -1676.048
  22559211.543    22559211.6924   22559213.1194  118549486.161 7  92376249.36145
     -3171.648       -2471.417
 08  5 12  0 16  0.0000000  0 11G 3G 6G10G13G16G21G23G24G25G29G31
  24793305.706    24793305.3544   24793308.9744  130289699.844 5 101524463.77541
      4027.390        3138.206
  22753996.646    22753996.2684   22753999.4794  119573089.882 6  93173858.78244
      3026.518        2358.324
  24798410.056    24798408.9524   24798414.4864  130316532.107 4 101545368.72341
      2572.854        2004.815
  22142690.475    22142690.0754   22142692.3194  116360633.091 7  90670654.38244
      1784.729        1390.695
  20588905.853    20588905.3504   20588907.5794  108195470.428 8  84308184.78447
      1124.098         875.917
  25029106.199    25029106.2264   25029107.3684  131528845.683 5 102490027.99341
      3103.580        2418.376
  21372441.430    21372440.8714   21372441.2504  112312968.948 8  87516619.39146
      -866.726        -675.370
  23307369.778    23307368.6024   23307372.4264  122481074.820 6  95439817.11243
      1461.031        1138.473
  23735623.340    23735622.5474   23735626.1934  124731562.095 6  97193443.00743
      3091.378        2408.869
  22362866.675    22362866.4124   22362868.6734  117517683.051 7  91572265.11245
     -2167.208       -1688.736
  22577346.300    22577346.0444   22577347.2334  118644781.078 7  92450505.08945
     -3181.234       -2478.887
 08  5 12  0 16 30.0000000  0 11G 3G 6G10G13G16G21G23G24G25G29G31
  24770317.792    24770318.7684   24770323.5764  130168904.126 5 101430337.31641
      4025.586        3136.838
  22736748.717    22736748.0724   22736751.4264  119482450.640 6  93103230.81444
      3016.193        2350.283
  24783762.694    24783761.7824   24783765.9284  130239555.490 5 101485386.90641
      2559.060        1994.090
  22132556.771    22132556.8134   22132559.2874  116307382.072 7  90629160.08744
      1765.404        1375.634
  20582537.309    20582536.8084   20582539.0374  108162003.678 8  84282106.81547
      1107.084         862.664
  25011402.926    25011402.2764   25011406.0094  131435815.222 5 102417536.86341
      3098.466        2414.376
  21377451.475    21377451.0464   21377451.5114  112339296.837 8  87537134.46946
      -888.391        -692.239
  23299079.946    23299079.2654   23299082.5444  122437512.349 6  95405872.34243
      1443.227        1124.587
  23717994.109    23717994.3794   23717998.2134  124638927.226 6  97121260.00243
      3084.360        2403.395
  22375285.071    22375285.0334   22375286.9364  117582942.275 7  91623116.44945
     -2183.350       -1701.309
  22595534.456    22595534.5104   22595536.3304  118740363.052 7  92524984.51745
     -3190.775       -2486.313
 08  5 12  0 17  0.0000000  0 11G 3G 6G10G13G16G21G23G24G25G29G31
  24747341.091    24747340.6414   24747346.3894  130048163.776 5 101336253.98341
      4023.662        3135.342
  22719559.749    22719559.1514   22719562.6544  119392122.494 6  93032845.27144
      3005.651        2342.060
  24769193.290    24769192.7594   24769196.1944  130162992.359 5 101425727.41041
      2545.084        1983.143
  22122534.076    22122534.0374   22122536.3064  116254712.041 7  90588118.52844
      1745.894        1360.430
  20576266.299    20576265.6734   20576268.0124  108129048.728 8  84256427.63547
      1089.877         849.256
  24993730.249    24993729.4184   24993733.3224  131342942.307 5 102345168.38541
      3093.109        2410.234
  21382585.763    21382585.1364   21382585.6354  112366275.363 8  87558156.43446
      -910.254        -709.297
  23290891.468    23290891.5204   23290895.3384  122394483.930 6  95372343.71143
      1425.254        1110.588
  23700408.089    23700407.4514   23700410.9964  124546504.501 6  97049242.31143
      3077.180        2397.777
  22387795.478    22387795.3204   22387797.5984  117648685.187 7  91674344.66745
     -2199.531       -1713.923
  22613777.132    22613777.0914   22613779.3284  118836230.860 7  92599686.71445
     -3200.401       -2493.822
 08  5 12  0 17 30.0000000  0 11G 3G 6G10G13G16G21G23G24G25G29G31
  24724376.437    24724373.6614   24724380.1624  129927480.570 5 101242215.16941
      4021.753        3133.796
  22702430.750    22702430.0664   22702433.7224  119302108.096 6  92962704.20844
      2995.128        2333.861
  24754703.171    24754702.2674   24754705.9004  130086845.692 5 101366392.31141
      2531.223        1972.409
  22112622.701    22112622.5854   22112624.8184  116202625.436 7  90547531.57444
      1726.382        1345.234
  20570092.869    20570092.2084   20570094.4384  108096606.776 8  84231148.14547
      1072.731         835.890
  24976087.108    24976086.5994   24976090.3914  131250229.962 5 102272925.09341
      3087.538        2405.870
  21387843.176    21387842.6894   21387843.4144  112393904.751 8  87579685.95746
      -931.904        -726.165
  23282805.276    23282805.0044   23282808.6614  122351991.686 6  95339232.87243
      1407.365        1096.639
  23682861.244    23682860.9604   23682864.5184  124454296.060 6  96977391.58743
      3069.945        2392.165
  22400397.124    22400397.2324   22400399.5754  117714910.004 7  91725948.40245
     -2215.552       -1726.402
  22632074.850    22632074.8904   22632075.8284  118932382.984 7  92674610.45945
     -3209.876       -2501.198
 08  5 12  0 18  0.0000000  0 11G 3G 6G10G13G16G21G23G24G25G29G31
  24701424.002    24701421.5474   24701426.0344  129806856.880 5 101148222.71241
      4019.885        3132.364
  22685361.422    22685361.0894   22685364.0934  119212409.004 6  92892808.82444
      2984.695        2325.736
  24740292.631    24740291.7144   24740296.6134  130011117.678 5 101307383.47441
      2517.326        1961.571
  22102821.898    22102821.7214   22102823.9684  116151123.549 7  90507400.23944
      1706.983        1330.124
  20564016.870    20564016.3604   20564018.5824  108064678.130 8  84206268.67547
      1055.730         822.652
  24958475.808    24958474.8044   24958478.8304  131157679.942 5 102200808.22241
      3082.358        2401.843
  21393224.261    21393223.8054   21393224.4144  112422182.305 8  87601720.26646
      -953.390        -742.893
  23274821.464    23274820.7474   23274825.1294  122310036.568 6  95306540.57743
      1389.524        1082.761
  23665355.637    23665354.5254   23665358.6024  124362303.169 6  96905708.78943
      3062.776        2386.585
  22413090.740    22413090.8014   22413093.0014  117781613.958 7  91777925.50745
     -2231.446       -1738.788
  22650425.150    22650425.2994   22650427.1874  119028816.819 7  92749753.68345
     -3219.159       -2508.430
 08  5 12  0 18 30.0000000  0 11G 3G 6G10G13G16G21G23G24G25G29G31
  24678478.260    24678479.0764   24678483.9364  129686294.185 4 101054277.86541
      4017.803        3130.752
  22668352.346    22668351.9564   22668355.4784  119123026.880 7  92823160.45144
      2974.111        2317.489
  24725961.207    24725961.9304   24725963.9634  129935810.685 5 101248702.70241
      2503.202        1950.543
  22093132.612    22093132.5854   22093135.1074  116100208.079 7  90467725.85844
      1687.421        1314.866
  20558039.025    20558038.2404   20558040.5044  108033262.929 8  84181789.37147
      1038.636         809.321
  24940895.746    24940895.6014   24940896.5004  131065294.770 5 102128819.78941
      3076.740        2397.440
  21398728.105    21398728.0474   21398728.7564  112451107.252 8  87624258.97646
      -974.933        -759.679
  23266940.374    23266939.8764   23266944.2774  122268620.088 6  95274268.00543
      1371.568        1068.758
  23647890.444    23647890.1364   23647893.8624  124270527.373 6  96834195.24143
      3055.557        2380.957
  22425875.667    22425874.9984   22425877.2454  117848794.538 7  91830274.00745
     -2247.251       -1751.108
  22668828.884    22668829.0344   22668830.9474  119125530.328 7  92825114.86845
     -3228.403       -2515.641
 08  5 12  0 19  0.0000000  0 11G 3G 6G10G13G16G21G23G24G25G29G31
  24655549.353    24655549.9154   24655552.6954  129565794.941 5 100960382.38941
      4015.842        3129.193
  22651404.311    22651403.8964   22651407.3634  119033964.438 6  92753761.16344
      2963.382        2309.126
  24711713.346    24711711.4484   24711715.1804  129860927.797 5 101190352.43141
      2489.029        1939.478
  22083556.272    22083556.1404   22083558.5504  116049881.445 7  90428510.30044
      1667.702        1299.517
  20552158.655    20552157.9864   20552160.2074  108002362.524 8  84157711.20647
      1021.447         795.938
  24923348.196    24923346.6484   24923349.4124  130973077.227 5 102056961.95141
      3071.025        2393.011
  21404355.935    21404355.6504   21404356.2224  112480679.202 8  87647301.87546
      -996.528        -776.517
  23259162.248    23259161.7574   23259165.2654  122227744.339 6  95242416.79943
      1353.488        1054.692
  23630467.965    23630468.0564   23630471.4024  124178971.079 6  96762852.74943
      3048.259        2375.262
  22438749.397    22438749.1314   22438751.7164  117916449.892 7  91882992.47145
     -2263.078       -1763.433
  22687286.076    22687286.1374   22687288.1314  119222521.838 7  92900692.65045
     -3237.662       -2522.848
 08  5 12  0 19 30.0000000  0 11G 3G 6G10G13G16G21G23G24G25G29G31
  24632633.270    24632633.6114   24632636.6374  129445365.419 5 100866541.26041
      4013.175        3127.142
  22634518.434    22634517.9164   22634521.0004  118945226.861 7  92684615.02744
      2952.517        2300.665
  24697544.065    24697542.7454   24697545.3134  129786474.425 5 101132336.83541
      2474.578        1928.247
  22074092.445    22074092.2724   22074094.3944  116000148.368 7  90389757.25644
      1647.882        1284.059
  20546376.903    20546376.2574   20546378.5204  107971979.748 8  84134036.34947
      1004.161         782.462
  24905831.377    24905829.7034   24905832.4564  130881032.874 5 101985239.12241
      3065.277        2388.508
  21410107.190    21410106.7044   21410107.0194  112510900.316 8  87670850.83346
     -1018.119        -793.341
  23251487.027    23251486.8844   23251491.4194  122187413.828 6  95210990.44443
      1335.271        1040.472
  23613089.137    23613088.7144   23613091.6524  124087639.139 6  96691685.07943
      3040.710        2369.378
  22451714.176    22451713.9594   22451716.4184  117984580.841 7  91936081.51345
     -2278.875       -1775.744
  22705796.289    22705796.0984   22705797.7174  119319792.468 7  92976487.92545
     -3246.943       -2530.085
 08  5 12  0 20  0.0000000  0 11G 3G 6G10G13G16G21G23G24G25G29G31
  24609731.776    24609730.4784   24609733.3154  129325007.696 5 100772756.08141
      4010.646        3125.210
  22617694.184    22617693.9074   22617697.1514  118856816.457 7  92615723.81744
      2941.586        2292.140
  24683457.979    24683458.4004   24683462.3034  129712453.577 5 101074658.29341
      2460.139        1916.977
  22064741.814    22064741.7254   22064743.8844  115951011.153 7  90351468.49144
      1628.012        1268.579
  20540693.928    20540693.3084   20540695.5434  107942115.760 8  84110765.82547
       986.875         768.983
  24888348.320    24888348.0904   24888351.2194  130789164.653 4 101913653.48941
      3059.434        2383.962
  21415981.266    21415980.7964   21415981.3174  112541769.506 8  87694904.80546
     -1039.703        -810.153
  23243916.086    23243915.7974   23243920.2214  122147630.386 6  95179990.37943
      1317.050        1026.269
  23595751.459    23595750.9064   23595754.2214  123996533.506 6  96620693.77043
      3033.114        2363.448
  22464769.318    22464769.3724   22464771.4964  118053185.385 7  91989539.60345
     -2294.600       -1787.998
  22724358.414    22724358.6524   22724360.9854  119417340.759 7  93052499.55445
     -3256.138       -2537.246
 08  5 12  0 20 30.0000000  0 11G 3G 6G10G13G16G21G23G24G25G29G31
  24586841.907    24586840.6084   24586844.3114  129204722.573 5 100679027.51741
      4008.233        3123.305
  22600932.268    22600932.2614   22600935.4524  118768733.943 7  92547088.11644
      2930.646        2283.622
  24669455.237    24669452.2774   24669458.4894  129638866.888 5 101017318.02341
      2445.707        1905.735
  22055504.325    22055504.3364   22055507.0354  115902470.451 7  90313644.56144
      1608.062        1253.041
  20535109.357    20535108.8134   20535111.0824  107912769.813 8  84087898.89947
       969.539         755.484
  24870901.247    24870900.5994   24870902.2394  130697473.200 5 101842205.66541
      3053.485        2379.348
  21421978.343    21421978.0934   21421978.7684  112573284.300 8  87719461.64746
     -1061.253        -826.957
  23236450.330    23236449.8464   23236454.2164  122108394.198 6  95149416.71743
      1298.770        1012.021
  23578457.657    23578457.2204   23578460.9464  123905654.882 6  96549879.44343
      3025.527        2357.539
  22477913.882    22477913.4564   22477915.5594  118122259.804 7  92043363.83745
     -2310.287       -1800.222
  22742973.885    22742973.8034   22742975.5104  119515163.375 7  93128724.93245
     -3265.299       -2544.388
 08  5 12  0 21  0.0000000  0 11G 3G 6G10G13G16G21G23G24G25G29G31
  24563965.439    24563964.5964   24563968.1014  129084513.383 5 100585358.09841
      4005.562        3121.266
  22584234.187    22584233.7234   22584237.3284  118680982.659 6  92478710.51244
      2919.354        2274.818
  24655536.004    24655535.3374   24655538.9054  129565717.628 5 100960318.58641
      2430.848        1894.191
  22046381.840    22046381.9674   22046383.8104  115854528.910 7  90276287.52844
      1587.917        1237.338
  20529623.832    20529623.3684   20529625.5974  107883943.338 8  84065436.73147
       952.080         741.875
  24853488.097    24853487.3934   24853488.4934  130605962.561 5 101770898.66841
      3047.121        2374.361
  21428098.233    21428097.8254   21428098.4954  112605444.735 8  87744521.76846
     -1082.891        -843.803
  23229088.176    23229087.5424   23229092.9294  122069708.109 6  95119271.75443
      1280.259         997.589
  23561208.145    23561207.2114   23561210.9124  123815005.786 6  96479243.80243
      3017.643        2351.409
  22491146.891    22491146.9134   22491149.2014  118191802.812 7  92097553.19945
     -2325.997       -1812.467
  22761640.740    22761640.5564   22761642.8774  119613259.219 7  93205163.24044
     -3274.538       -2551.590
 08  5 12  0 21 30.0000000  0 11G 3G 6G10G13G16G21G23G24G25G29G31
  24541104.749    24541104.4214   24541108.0634  128964383.623 4 100491750.53941
      4002.976        3119.175
  22567599.500    22567599.1024   22567602.2614  118593566.250 7  92410593.85944
      2908.352        2266.252
  24641698.864    24641697.4784   24641701.8974  129493010.394 5 100903663.61141
      2416.293        1882.816
  22037373.214    22037373.4594   22037375.8834  115807190.147 7  90239400.15944
      1567.998        1221.817
  20524237.817    20524237.2304   20524239.4144  107855638.648 8  84043381.16647
       934.916         728.501
  24836108.965    24836107.5834   24836110.0254  130514636.818 5 101699735.73141
      3041.133        2369.722
  21434340.915    21434340.6074   21434340.9424  112638251.909 8  87770086.11645
     -1104.224        -860.447
  23221832.801    23221831.8954   23221835.8624  122031575.102 6  95089557.78143
      1261.933         983.321
  23544002.662    23544001.9324   23544004.7264  123724590.014 6  96408790.02343
      3010.020        2345.467
  22504470.090    22504469.8474   22504472.1974  118261814.058 7  92152107.42545
     -2341.400       -1824.470
  22780360.066    22780360.2134   22780361.7614  119711628.410 7  93281814.54545
     -3283.379       -2558.481
 08  5 12  0 22  0.0000000  0 11G 3G 6G10G13G16G21G23G24G25G29G31
  24518260.872    24518260.5964   24518265.0344  128844336.046 5 100398207.03341
      4000.148        3116.981
  22551028.505    22551028.1324   22551031.5804  118506486.426 7  92342739.47544
      2897.047        2257.436
  24627948.296    24627947.7654   24627951.6594  129420747.191 5 100847354.61541
      2401.273        1871.138
  22028479.726    22028479.6744   22028482.5834  115760455.658 7  90202983.70944
      1547.642        1205.948
  20518950.977    20518950.3984   20518952.5074  107827855.779 8  84021732.16547
       917.364         714.830
  24818764.887    24818764.4014   24818767.0484  130423498.292 5 101628718.74341
      3034.808        2364.798
  21440706.523    21440706.0674   21440706.4744  112671703.463 8  87796152.40645
     -1125.834        -877.269
  23214681.586    23214680.4694   23214684.6024  121993996.173 6  95060275.46443
      1243.355         968.839
  23526840.810    23526840.5134   23526844.6484  123634409.009 6  96338519.28643
      3002.050        2339.254
  22517880.921    22517881.0744   22517883.2854  118332290.919 7  92207024.45745
     -2357.008       -1836.626
  22799131.238    22799130.8734   22799132.8294  119810268.552 7  93358676.95145
     -3292.570       -2565.637
 08  5 12  0 22 30.0000000  0 11G 3G 6G10G13G16G21G23G24G25G29G31
  24495432.307    24495431.7244   24495437.2064  128724373.887 5 100304730.05942
      3997.238        3114.717
  22534522.513    22534522.1304   22534525.4824  118419746.500 6  92275149.94744
      2885.562        2248.488
  24614282.306    24614280.6824   24614283.4314  129348931.336 5 100791394.24341
      2386.394        1859.520
  22019702.296    22019701.8354   22019705.0494  115714328.302 7  90167040.34244
      1527.421        1190.200
  20513763.743    20513763.0984   20513765.2484  107800596.559 8  84000491.21047
       899.874         701.199
  24801458.855    24801458.9594   24801460.7514  130332550.524 5 101557850.36641
      3028.339        2359.739
  21447194.604    21447194.1144   21447194.6804  112705799.603 8  87822720.96745
     -1147.305        -894.010
  23207636.207    23207635.8614   23207640.3084  121956973.827 6  95031426.89843
      1224.770         954.367
  23509725.265    23509725.0754   23509728.6634  123544465.570 6  96268433.65843
      2994.076        2333.045
  22531380.573    22531380.4004   22531383.1644  118403231.947 7  92262303.19445
     -2372.452       -1848.664
  22817952.615    22817952.7744   22817954.4254  119909179.108 7  93435750.09845
     -3301.548       -2572.626
 08  5 12  0 23  0.0000000  0 11G 3G 6G10G13G16G21G23G24G25G29G31
  24472621.763    24472621.5234   24472624.2514  128604499.283 5 100211321.34441
      3994.355        3112.509
  22518081.906    22518081.0874   22518084.3954  118333348.953 7  92207827.20244
      2874.203        2239.637
  24600702.147    24600700.9354   24600704.8124  129277566.471 5 100735785.22941
      2371.320        1847.745
  22011040.929    22011040.7534   22011042.7914  115668810.031 7  90131571.54544
      1507.062        1174.324
  20508676.382    20508675.6954   20508677.7774  107773861.792 8  83979658.93947
       882.379         687.569
  24784189.456    24784188.8074   24784190.3084  130241796.922 5 101487133.22241
      3021.845        2354.716
  21453805.820    21453805.1554   21453805.6164  112740539.385 8  87849790.95646
     -1168.728        -910.696
  23200697.571    23200696.6354   23200700.5824  121920510.236 6  95003013.72843
      1206.041         939.766
  23492655.892    23492655.0424   23492658.5484  123454762.026 6  96198534.83343
      2986.033        2326.777
  22544968.324    22544968.3864   22544970.6644  118474635.403 7  92317942.24745
     -2387.836       -1860.652
  22836826.206    22836826.3094   22836827.7644  120008358.606 7  93513032.82645
     -3310.461       -2579.580
 08  5 12  0 23 30.0000000  0 11G 3G 6G10G13G16G21G23G24G25G29G31
  24449828.140    24449827.3504   24449830.1134  128484714.380 5 100117982.50141
      3991.396        3110.160
  22501705.963    22501705.9114   22501708.4954  118247294.349 7  92140771.67944
      2862.778        2230.734
  24587208.002    24587206.2054   24587211.5094  129206653.402 5 100680528.31241
      2356.245        1836.039
  22002494.928    22002494.8844   22002496.9854  115623901.319 7  90096577.75344
      1486.801        1158.548
  20503688.545    20503687.8944   20503689.9794  107747650.514 8  83959234.52947
       865.017         674.041
  24766955.017    24766955.0124   24766958.1244  130151238.171 5 101416567.95241
      3015.351        2349.633
  21460538.088    21460537.6974   21460538.4204  112775920.565 8  87877360.79046
     -1190.016        -927.291
  23193863.911    23193863.6664   23193868.5104  121884605.483 6  94975036.08243
      1187.514         925.340
  23475630.728    23475630.3154   23475633.9084  123365298.893 6  96128823.31843
      2978.103        2320.603
  22558643.027    22558643.0954   22558645.5364  118546497.690 7  92373938.82845
     -2403.000       -1872.465
  22855749.678    22855749.8114   22855751.6394  120107803.470 7  93590522.32345
     -3319.179       -2586.378
 08  5 12  0 24  0.0000000  0 11G 3G 6G10G13G16G21G23G24G25G29G31
  24427048.540    24427048.5654   24427054.4444  128365018.535 5 100024713.11441
      3988.253        3107.741
  22485396.058    22485395.4024   22485398.6314  118161583.295 7  92073983.87344
      2851.246        2221.751
  24573799.608    24573799.1004   24573802.0804  129136193.021 5 100625624.14241
      2341.167        1824.302
  21994064.672    21994064.5924   21994066.9724  115579602.356 7  90062059.09844
      1466.415        1142.664
  20498800.204    20498799.4644   20498801.5094  107721961.071 8  83939216.56447
       847.577         660.461
  24749761.064    24749760.2444   24749763.1484  130060875.059 5 101346155.21342
      3008.779        2344.489
  21467392.435    21467391.9064   21467392.8054  112811939.930 8  87905427.87646
     -1211.301        -943.870
  23187138.243    23187137.6744   23187141.7214  121849259.048 6  94947493.41843
      1168.841         910.788
  23458653.242    23458652.5834   23458655.2414  123276076.427 6  96059299.33143
      2970.015        2314.296
  22572405.125    22572404.7454   22572407.1804  118618814.828 7  92430289.86645
     -2418.159       -1884.279
  22874723.105    22874723.1084   22874725.3524  120207510.116 7  93668215.78044
     -3327.946       -2593.200
 08  5 12  0 24 30.0000000  0 11G 3G 6G10G13G16G21G23G24G25G29G31
  24404289.724    24404290.3884   24404292.1574  128245414.783 5  99931515.37441
      3985.119        3105.261
  22469151.393    22469151.0334   22469154.2804  118076218.106 7  92007465.55644
      2839.609        2212.693
  24560478.597    24560477.2264   24560481.0834  129066187.914 5 100571074.76941
      2325.770        1812.284
  21985751.655    21985751.5124   21985754.0044  115535914.978 7  90028017.00044
      1445.920        1126.694
  20494011.399    20494010.5964   20494012.6864  107696795.083 8  83919606.66847
       830.028         646.776
  24732603.796    24732602.6954   24732605.2784  129970710.634 5 101275897.22142
      3002.075        2339.287
  21474367.995    21474367.5124   21474368.0214  112848596.382 8  87933991.41846
     -1232.608        -960.476
  23180518.449    23180518.2584   23180522.8154  121814472.674 6  94920387.12843
      1150.100         896.184
  23441720.369    23441719.6624   23441723.4194  123187096.690 6  95989964.54243
      2961.816        2307.897
  22586252.596    22586252.6634   22586254.4544  118691584.460 7  92486993.47845
     -2433.263       -1896.048
  22893745.876    22893745.9184   22893747.9904  120307476.903 7  93746111.94444
     -3336.648       -2599.975
 08  5 12  0 25  0.0000000  0 11G 3G 6G10G13G16G21G23G24G25G29G31
  24381548.240    24381546.8364   24381551.8614  128125905.850 5  99838391.61841
      3982.114        3102.939
  22452972.908    22452972.6634   22452975.8494  117991201.137 7  91941218.59644
      2828.092        2203.705
  24547244.384    24547242.7394   24547247.5874  128996641.599 5 100516882.87241
      2310.487        1800.336
  21977554.763    21977554.8174   21977557.1724  115492841.326 7  89994453.10844
      1425.556        1110.827
  20489321.918    20489321.3194   20489323.4304  107672153.071 8  83900405.15247
       812.707         633.276
  24715482.750    24715482.5814   24715485.4134  129880747.636 5 101205796.16841
      2995.423        2334.110
  21481464.545    21481464.2934   21481464.6144  112885889.340 8  87963050.87245
     -1253.636        -976.859
  23174006.317    23174005.3364   23174009.8704  121780248.307 6  94893718.85643
      1131.456         881.672
  23424834.613    23424834.0284   23424837.4154  123098361.855 6  95920820.56143
      2953.748        2301.623
  22600186.130    22600185.7264   22600188.2404  118764804.644 7  92544048.17045
     -2448.119       -1907.621
  22912818.227    22912818.2874   22912820.7024  120407702.257 7  93824209.61444
     -3345.095       -2606.559
 08  5 12  0 25 30.0000000  0 11G 3G 6G10G13G16G21G23G24G25G29G31
  24358825.015    24358824.3044   24358828.0604  128006494.374 5  99745343.79641
      3978.949        3100.477
  22436861.124    22436861.1134   22436864.6014  117906534.474 7  91875244.59444
      2816.500        2194.683
  24534096.906    24534096.2874   24534101.3444  128927556.454 5 100463050.29141
      2295.232        1788.503
  21969475.323    21969475.1414   21969477.4804  115450383.175 7  89961368.82944
      1405.120        1094.902
  20484732.581    20484731.9254   20484734.0694  107648034.902 8  83881611.56947
       795.350         619.771
  24698404.110    24698403.3214   24698405.5804  129790989.081 6 101135854.43441
      2988.612        2328.781
  21488681.879    21488681.5104   21488681.9224  112923817.434 8  87992605.22846
     -1274.702        -993.270
  23167600.569    23167599.7854   23167604.1974  121746587.160 6  94867489.34243
      1112.735         867.066
  23407995.676    23407994.8384   23407998.6354  123009873.798 6  95851868.86843
      2945.581        2295.271
  22614204.150    22614204.1484   22614206.7084  118838473.213 7  92601452.23245
     -2462.945       -1919.179
  22931940.370    22931940.0864   22931941.5914  120508184.581 7  93902507.50144
     -3353.545       -2613.144
 08  5 12  0 26  0.0000000  0 11G 3G 6G10G13G16G21G23G24G25G29G31
  24336120.766    24336119.3804   24336123.3954  127887182.327 5  99652373.40141
      3975.469        3097.754
  22420816.653    22420816.3344   22420819.8184  117822220.112 7  91809545.11344
      2804.768        2185.531
  24521039.528    24521038.2274   24521041.5184  128858934.182 5 100409578.41641
      2279.806        1776.479
  21961512.814    21961512.8144   21961515.1174  115408541.930 7  89928765.29044
      1384.535        1078.862
  20480243.241    20480242.6164   20480245.0324  107624440.265 8  83863225.38847
       777.810         606.065
  24681361.376    24681361.2244   24681364.7854  129701437.166 5 101066073.75442
      2981.729        2323.407
  21496020.081    21496019.5694   21496019.7854  112962379.086 8  88022653.32945
     -1295.809       -1009.726
  23161302.462    23161302.0354   23161305.6144  121713490.710 6  94841699.88543
      1093.981         852.455
  23391203.927    23391203.6614   23391206.8394  122921634.281 6  95783110.83343
      2937.250        2288.761
  22628308.010    22628307.8114   22628310.5034  118912587.953 7  92659203.98345
     -2477.784       -1930.741
  22951109.227    22951109.3004   22951111.1014  120608921.820 6  93981004.05944
     -3361.943       -2619.696
 08  5 12  0 26 30.0000000  0 12G 3G 6G 7G10G13G16G21G23G24G25G29G31
  24313434.676    24313434.8924   24313439.0694  127767971.295 5  99559481.76541
      3971.918        3094.993
  22404839.860    22404839.3564   22404842.8374  117738259.546 7  91744121.27944
      2792.759        2176.178
  25067200.323                                   131729020.184 4
      3708.364
  24508069.541    24508068.1994   24508071.5354  128790777.571 5 100356469.35741
      2264.049        1764.186
  21953668.921    21953668.9004   21953670.8634  115367318.803 7  89896643.37244
      1363.786        1062.694
  20475853.467    20475852.7174   20475855.0444  107601371.477 8  83845249.78047
       760.208         592.381
  24664360.019    24664359.3394   24664359.9484  129612093.816 5 100996455.60041
      2974.547        2317.842
  21503478.223    21503477.8554   21503477.9554  113001572.360 8  88053193.54645
     -1316.983       -1026.212
  23155112.830    23155111.9944   23155115.2494  121680958.958 6  94816350.12443
      1074.882         837.597
  23374460.296    23374459.8374   23374463.3714  122833644.657 6  95714547.47143
      2928.784        2282.180
  22642496.133    22642495.8614   22642498.1234  118987145.872 7  92717301.04245
     -2492.626       -1942.301
  22970326.708    22970327.2464   22970329.1594  120709910.966 7  94059696.85244
     -3370.536       -2626.385
 08  5 12  0 27  0.0000000  0 12G 3G 6G 7G10G13G16G21G23G24G25G29G31
  24290770.210    24290768.6194   24290771.9484  127648864.046 5  99466671.01441
      3968.478        3092.292
  22388930.624    22388930.2504   22388933.4154  117654655.505 7  91678975.28244
      2780.874        2166.915
  25046036.547    25046035.9064   25046041.5084  131617807.475 5 102559356.8594
      3705.707        2887.546
  24495188.195    24495186.2094   24495191.5384  128723089.300 5 100303725.25641
      2248.459        1752.012
  21945942.534    21945942.3304   21945944.5954  115326715.685 7  89865004.60845
      1343.114        1046.590
  20471563.295    20471562.7794   20471565.0574  107578827.958 8  83827683.48347
       742.732         578.757
  24647400.090    24647398.4624   24647400.0304  129522962.368 5 100927002.52141
      2967.427        2312.257
  21511056.717    21511056.2714   21511056.3794  113041396.588 8  88084225.43046
     -1337.940       -1042.550
  23149031.122    23149030.0594   23149032.5714  121648994.121 6  94791442.01043
      1056.114         822.990
  23357764.617    23357764.0224   23357767.4324  122745907.531 6  95646180.86943
      2920.344        2275.606
  22656767.805    22656767.6814   22656769.9934  119062144.936 7  92775741.86645
     -2507.244       -1953.690
  22989592.902    22989592.8924   22989594.3334  120811151.103 7  94138585.22444
     -3378.782       -2632.813
 08  5 12  0 27 30.0000000  0 12G 3G 6G 7G10G13G16G21G23G24G25G29G31
  24268125.220    24268125.2284   24268125.3334  127529864.142 5  99373943.81141
      3964.911        3089.518
  22373089.596    22373089.1934   22373092.1644  117571410.367 7  91614108.93845
      2768.889        2157.579
  25024887.240    25024888.3214   25024892.7594  131506676.189 4 102472761.15941
      3703.020        2885.455
  24482396.813    24482396.0454   24482401.2044  128655872.223 4 100251348.33141
      2232.689        1739.750
  21938334.434    21938334.1284   21938336.1414  115286735.003 7  89833850.83245
      1322.333        1030.392
  20467373.683    20467372.9774   20467375.2374  107556810.737 8  83810527.30247
       725.152         565.048
  24630479.595    24630478.4954   24630481.6274  129434045.604 5 100857716.69141
      2960.307        2306.747
  21518754.824    21518754.3284   21518754.6704  113081850.649 7  88115748.00045
     -1358.915       -1058.884
  23143056.621    23143056.0824   23143059.0524  121617596.958 6  94766975.63043
      1037.053         808.103
  23341117.113    23341116.5694   23341119.9554  122658424.963 6  95578012.61843
      2911.878        2269.007
  22671123.054    22671122.9604   22671125.4504  119137583.343 7  92834525.04045
     -2521.875       -1965.096
  23008905.436    23008905.6644   23008907.1484  120912640.718 6  94217668.03944
     -3387.092       -2639.289
 08  5 12  0 28  0.0000000  0 12G 3G 6G 7G10G13G16G21G23G24G25G29G31
  24245499.510    24245500.0264   24245504.2854  127410973.652 5  99281301.97641
      3961.170        3086.621
  22357317.446    22357317.0944   22357320.1814  117488526.645 7  91549524.21545
      2756.730        2148.100
  25003756.005    25003757.2904   25003761.7284  131395628.373 5 102386230.43441
      3700.140        2883.190
  24469696.292    24469696.1644   24469699.2864  128589129.035 4 100199340.74441
      2216.970        1727.498
  21930844.919    21930844.5164   21930846.8414  115247378.422 7  89803183.38344
      1301.452        1014.119
  20463283.902    20463283.3354   20463285.6044  107535320.854 8  83793782.23747
       707.515         551.293
  24613599.924    24613599.1944   24613603.3164  129345346.258 5 100788600.39541
      2952.931        2300.977
  21526572.824    21526572.4414   21526572.8074  113122932.808 8  88147759.59845
     -1379.876       -1075.213
  23137190.923    23137190.3724   23137193.2614  121586772.741 6  94742957.08843
      1017.942         793.163
  23324519.235    23324518.4214   23324521.3544  122571199.345 6  95510044.58643
      2903.153        2262.200
  22685561.962    22685561.7194   22685564.0604  119213459.009 7  92893648.92945
     -2536.433       -1976.445
  23028265.416    23028265.3034   23028267.1804  121014378.174 6  94296943.97444
     -3395.384       -2645.750
 08  5 12  0 28 30.0000000  0 12G 3G 6G 7G10G13G16G21G23G24G25G29G31
  24222896.301    24222896.2494   24222900.7684  127292193.920 5  99188746.42341
      3957.443        3083.713
  22341614.000    22341613.4634   22341616.8734  117406004.917 7  91485221.54645
      2744.619        2138.666
  24982640.698    24982640.9904   24982645.3874  131284665.070 5 102299765.53141
      3697.219        2880.960
  24457086.256    24457083.5464   24457090.3424  128522861.255 4 100147703.52841
      2201.068        1715.099
  21923474.770    21923474.3404   21923476.6344  115208646.691 7  89773002.83845
      1280.623         997.890
  20459294.374    20459293.8324   20459295.9704  107514357.126 8  83777447.18747
       690.029         537.679
  24596763.370    24596762.9044   24596763.1434  129256866.096 5 100719654.81841
      2945.656        2295.296
  21534510.020    21534509.5924   21534510.0774  113164640.849 7  88180258.70945
     -1400.708       -1091.438
  23131433.558    23131432.8824   23131435.7574  121556518.570 6  94719382.43243
       999.028         778.483
  23307969.613    23307969.1274   23307972.5074  122484231.397 6  95442277.36643
      2894.592        2255.516
  22700082.917    22700082.6794   22700085.4624  119289768.461 7  92953110.83845
     -2550.874       -1987.694
  23047670.881    23047671.5564   23047674.2834  121116360.384 6  94376410.58444
     -3403.481       -2652.058
 08  5 12  0 29  0.0000000  0 12G 3G 6G 7G10G13G16G21G23G24G25G29G31
  24200316.199    24200316.0884   24200319.7134  127173529.892 5  99096281.00742
      3953.589        3080.698
  22325980.105    22325979.9874   22325983.2884  117323850.112 7  91421204.84444
      2732.371        2129.120
  24961543.256    24961543.6024   24961546.3844  131173790.168 5 102213369.61341
      3694.387        2878.721
  24444566.794    24444565.8634   24444569.9744  128457073.738 5 100096440.56041
      2184.874        1702.485
  21916223.755    21916223.8534   21916225.4894  115170543.970 7  89743312.42645
      1259.629         981.533
  20455405.627    20455405.0054   20455407.1184  107493921.783 8  83761523.67947
       672.373         523.925
  24579968.331    24579967.7784   24579970.4884  129168609.947 5 100650883.77641
      2938.157        2289.488
  21542566.555    21542565.9294   21542566.7234  113206976.736 8  88213247.28845
     -1421.643       -1107.772
  23125785.311    23125784.8374   23125789.2854  121526838.459 6  94696254.69543
       979.760         763.448
  23291469.087    23291469.5764   23291472.4774  122397525.416 6  95374714.33743
      2885.853        2248.714
  22714687.285    22714686.8104   22714689.1104  119366511.937 7  93012910.93545
     -2565.317       -1998.943
  23067125.055    23067125.0784   23067126.7554  121218588.088 7  94456068.52244
     -3411.687       -2658.453
 08  5 12  0 29 30.0000000  0 12G 3G 6G 7G10G13G16G21G23G24G25G29G31
  24177757.972    24177756.8284   24177761.9044  127054981.842 5  99003906.00042
      3949.663        3077.642
  22310416.557    22310415.9594   22310419.5224  117242061.969 7  91357473.82545
      2720.164        2119.610
  24940460.701    24940461.0714   24940463.9084  131063003.819 5 102127042.62441
      3691.365        2876.421
  24432140.135    24432139.4264   24432143.7954  128391767.660 5 100045552.70441
      2168.910        1690.086
  21909092.670    21909092.4804   21909094.5914  115133069.034 7  89714111.17745
      1238.689         965.217
  20451617.112    20451616.5164   20451618.6824  107474013.310 8  83746010.56847
       654.856         510.280
  24563216.563    24563216.5484   24563218.1084  129080578.575 5 100582287.92742
      2930.657        2283.635
  21550741.568    21550740.9754   21550741.9994  113249937.768 8  88246723.62145
     -1442.405       -1123.964
  23120246.462    23120246.2934   23120250.3024  121497731.535 6  94673573.52643
       960.683         748.621
  23275020.684    23275020.2224   23275022.8864  122311081.375 6  95307355.34643
      2877.090        2241.887
  22729372.678    22729372.3334   22729374.5784  119443684.831 7  93073045.65945
     -2579.554       -2010.043
  23086624.357    23086623.9924   23086626.9844  121321057.380 6  94535914.69944
     -3419.610       -2664.627
 08  5 12  0 30  0.0000000  0 12G 3G 6G 7G10G13G16G21G23G24G25G29G31
  24155221.614    24155221.0864   24155225.2134  126936553.015 5  98911623.88441
      3945.648        3074.537
  22294923.599    22294922.8994   22294925.9154  117160643.315 7  91294030.73045
      2707.760        2109.945
  24919396.268    24919396.1834   24919398.2904  130952308.417 5 102040786.52742
      3688.177        2873.908
  24419804.433    24419803.6914   24419806.7674  128326945.247 5  99995041.71041
      2152.627        1677.402
  21902081.309    21902081.2444   21902083.3824  115096224.459 7  89685401.13245
      1217.602         948.778
  20447929.234    20447928.5744   20447930.8334  107454632.902 8  83730908.82047
       637.200         496.526
  24546508.530    24546507.2694   24546509.1894  128992775.411 6 100513869.91242
      2922.894        2277.572
  21559035.311    21559034.6524   21559035.5904  113293521.326 8  88280684.89245
     -1463.197       -1140.182
  23114817.626    23114816.9424   23114821.7484  121469201.347 6  94651342.38843
       941.443         733.602
  23258620.813    23258620.5314   23258622.8284  122224901.934 6  95240202.53043
      2868.163        2234.931
  22744139.268    22744138.9574   22744141.5494  119521285.457 7  93133513.66344
     -2593.824       -2021.160
  23106169.182    23106169.5034   23106171.0954  121423766.753 6  94615947.94744
     -3427.620       -2670.870
 08  5 12  0 30 30.0000000  0 12G 3G 6G 7G10G13G16G21G23G24G25G29G31
  24132707.934    24132707.8154   24132709.0964  126818246.974 5  98819437.39741
      3941.481        3071.306
  22279500.901    22279500.1864   22279503.1654  117079597.482 7  91230878.12045
      2695.303        2100.244
  24898350.116    24898350.1274   24898352.3104  130841707.388 5 101954603.96042
      3685.070        2871.482
  24407562.507    24407561.3404   24407564.7964  128262609.925 5  99944910.35141
      2136.342        1664.656
  21895190.502    21895190.5094   21895192.2934  115060012.969 7  89657184.41645
      1196.477         932.322
  20444342.227    20444341.5004   20444343.6744  107435782.711 8  83716220.45047
       619.477         482.699
  24529844.129    24529842.7974   24529844.1794  128905204.102 5 100445632.46941
      2915.061        2271.482
  21567447.397    21567446.8514   21567447.3044  113337728.526 7  88315132.56845
     -1483.983       -1156.374
  23109498.504    23109497.8954   23109502.2764  121441248.655 6  94629561.04843
       922.078         718.503
  23242272.302    23242271.8444   23242274.3984  122138990.110 6  95173258.25943
      2859.191        2227.936
  22758987.864    22758987.3964   22758989.6714  119599313.012 6  93194314.34444
     -2608.009       -2032.210
  23125759.995    23125759.9674   23125761.8634  121526715.870 6  94696168.02044
     -3435.628       -2677.112
 08  5 12  0 31  0.0000000  0 12G 3G 6G 7G10G13G16G21G23G24G25G29G31
  24110218.120    24110218.5054   24110221.2534  126700067.736 5  98727349.71641
      3937.265        3067.956
  22264149.928    22264149.6204   22264152.5274  116998928.100 7  91168018.75645
      2682.701        2090.417
  24877321.504    24877321.7514   24877324.2074  130731204.145 5 101868497.62242
      3681.827        2868.952
  24395413.032    24395411.7674   24395416.7584  128198766.577 5  99895162.31441
      2119.906        1651.881
  21888421.267    21888420.8334   21888422.8554  115024437.873 7  89629463.57745
      1175.191         915.737
  20440856.182    20440855.5854   20440857.7994  107417464.414 8  83701946.52947
       601.755         468.904
  24513223.415    24513224.1114   24513225.8064  128817868.616 5 100377578.79841
      2907.175        2265.343
  21575977.901    21575977.3404   21575978.1274  113382558.018 8  88350064.83545
     -1504.718       -1172.538
  23104289.530    23104289.3444   23104294.0464  121413875.253 6  94608230.23743
       902.728         703.420
  23225975.128    23225974.9694   23225978.0664  122053349.593 6  95106525.41243
      2850.173        2220.911
  22773916.627    22773916.3684   22773918.9774  119677766.682 7  93255447.03444
     -2622.174       -2043.247
  23145396.264    23145395.9194   23145398.2504  121629904.557 6  94776574.75844
     -3443.537       -2683.270
 08  5 12  0 31 30.0000000  0 12G 3G 6G 7G10G13G16G21G23G24G25G29G31
  24087755.833    24087755.1774   24087758.3334  126582017.422 5  98635362.51541
      3932.803        3064.507
  22248870.980    22248870.5824   22248873.9074  116918637.234 7  91105454.46545
      2670.055        2080.559
  24856312.371    24856311.4994   24856316.5844  130620800.294 5 101782468.64842
      3678.372        2866.263
  24383358.815    24383356.7634   24383361.6254  128135417.218 5  99845799.21841
      2103.358        1638.969
  21881772.575    21881772.5374   21881774.0444  114989500.432 7  89602239.60145
      1153.914         899.155
  20437471.473    20437470.8824   20437473.1004  107399677.610 8  83688086.63147
       584.047         455.107
  24496650.917    24496649.6184   24496652.5564  128730771.066 5 100309710.57841
      2899.255        2259.172
  21584626.839    21584626.0474   21584627.0004  113428008.332 8  88385480.70145
     -1525.354       -1188.592
  23099191.602    23099191.1914   23099196.4814  121387085.195 6  94587354.88243
       883.348         688.330
  23209729.608    23209729.5884   23209733.1524  121967982.075 6  95040005.27743
      2841.040        2213.796
  22788926.731    22788926.8524   22788928.1084  119756641.249 7  93316906.55444
     -2636.074       -2054.006
  23165076.856    23165077.5234   23165079.0224  121733330.311 6  94857166.22944
     -3451.477       -2689.466
 08  5 12  0 32  0.0000000  0 12G 3G 6G 7G10G13G16G21G23G24G25G29G31
  24065316.709    24065316.2114   24065319.0254  126464095.759 5  98543475.53342
      3928.542        3061.187
  22233663.885    22233663.3314   22233667.0634  116838724.265 7  91043184.65245
      2657.431        2070.733
  24835322.315    24835321.8894   24835325.2714  130510495.619 5 101696517.01941
      3675.223        2863.832
  24371396.790    24371395.6954   24371398.8564  128072561.182 5  99796820.46741
      2086.951        1626.193
  21875244.867    21875245.1224   21875246.8054  114955199.346 7  89575511.46645
      1132.744         882.664
  20434187.781    20434187.1244   20434189.3264  107382420.004 8  83674638.90047
       566.506         441.477
  24480121.849    24480121.0574   24480123.5954  128643912.107 6 100242028.14942
      2891.279        2252.955
  21593393.069    21593392.6794   21593393.4724  113474074.847 8  88421376.27245
     -1545.794       -1204.484
  23094204.384    23094203.7514   23094208.8654  121360877.824 6  94566934.75643
       863.890         673.120
  23193537.002    23193536.4154   23193540.1654  121882886.821 6  94973697.28743
      2831.933        2206.701
  22804016.758    22804016.6454   22804019.7634  119835935.744 7  93378693.81844
     -2650.109       -2065.000
  23184802.661    23184803.1804   23184804.7014  121836989.121 6  94937939.26344
     -3459.096       -2695.395
 08  5 12  0 32 30.0000000  0 12G 3G 6G 7G10G13G16G21G23G24G25G29G31
  24042900.659    24042900.5584   24042903.2064  126346303.276 5  98451689.27242
      3924.096        3057.725
  22218528.980    22218528.2844   22218531.5344  116759188.806 7  90981209.03245
      2644.762        2060.856
  24814351.303    24814351.0674   24814353.6054  130400289.601 5 101610642.35241
      3671.793        2861.137
  24359530.068    24359529.0994   24359532.7524  128010199.284 5  99748226.85141
      2070.394        1613.316
  21868838.627    21868838.6344   21868840.7794  114921533.888 7  89549278.68245
      1111.499         866.109
  20431004.514    20431003.9284   20431006.4494  107365688.883 8  83661600.78347
       548.760         427.577
  24463638.727    24463637.1074   24463640.7694  128557292.194 5 100174532.24542
      2883.282        2246.713
  21602276.063    21602275.5694   21602276.1844  113520755.846 8  88457751.33745
     -1566.309       -1220.516
  23089327.197    23089326.1664   23089330.3064  121335248.221 6  94546964.38943
       844.593         658.120
  23177396.214    23177395.6484   23177398.9274  121798063.659 7  94907601.34544
      2822.823        2199.609
  22819185.384    22819184.8764   22819187.4064  119915643.377 7  93440802.72144
     -2663.872       -2075.706
  23204572.751    23204572.7934   23204574.2734  121940876.448 6  95018890.40844
     -3466.811       -2701.406
 08  5 12  0 33  0.0000000  0 12G 3G 6G 7G10G13G16G21G23G24G25G29G31
  24020510.661    24020510.3004   24020513.8964  126228645.590 5  98360007.99641
      3919.564        3054.173
  22203466.295    22203465.9924   22203469.3214  116680036.031 7  90919531.54645
      2632.086        2050.971
  24793398.793    24793397.9894   24793401.8014  130290187.126 5 101524848.28841
      3668.360        2858.413
  24347758.621    24347756.3434   24347761.1864  127948336.341 5  99700021.94441
      2053.835        1600.384
  21862554.033    21862553.9974   21862556.3154  114888508.692 7  89523544.77445
      1090.180         849.486
  20427922.379    20427921.6934   20427924.2014  107349489.926 8  83648977.84847
       531.001         413.718
  24447202.052    24447202.1344   24447203.2154  128470916.846 5 100107226.72642
      2875.140        2240.349
  21611276.125    21611275.4934   21611276.0414  113568050.882 8  88494604.62245
     -1586.641       -1236.323
  23084560.787    23084559.9154   23084563.4574  121310200.423 6  94527446.44643
       825.331         643.156
  23161307.470    23161307.2984   23161310.1184  121713517.635 7  94841721.30944
      2813.584        2192.396
  22834432.275    22834432.1264   22834435.5404  119995767.661 6  93503237.16344
     -2677.748       -2086.611
  23224386.032    23224385.6994   23224387.3514  122044993.557 7  95100020.54244
     -3474.326       -2707.275
 08  5 12  0 33 30.0000000  0 12G 3G 6G 7G10G13G16G21G23G24G25G29G31
  23998146.866    23998144.9244   23998150.2324  126111124.729 5  98268433.35542
      3914.986        3050.647
  22188477.708    22188477.1094   22188480.5294  116601268.037 7  90858153.81845
      2619.039        2040.811
  24772467.028    24772465.7664   24772469.3544  130180190.435 5 101439136.59241
      3664.747        2855.660
  24336079.891    24336078.2964   24336084.5384  127886975.304 5  99652208.20841
      2036.918        1587.209
  21856391.948    21856391.5484   21856393.8364  114856125.181 7  89498310.89845
      1068.663         832.721
  20424940.892    20424940.2644   20424942.7454  107333823.490 8  83636770.44547
       513.264         399.926
  24430811.253    24430811.3684   24430813.3604  128384788.685 5 100040113.96042
      2866.744        2233.822
  21620392.752    21620392.3614   21620393.0934  113615958.979 8  88531935.56045
     -1607.267       -1252.432
  23079906.133    23079905.2194   23079908.5364  121285734.932 6  94508380.97043
       805.536         627.676
  23145271.506    23145271.4504   23145274.5224  121629250.860 6  94776058.91644
      2804.139        2185.041
  22849757.708    22849757.8004   22849760.6934  120076305.291 6  93565994.28744
     -2691.510       -2097.305
  23244242.097    23244241.7024   23244243.1134  122149338.832 6  95181328.48544
     -3482.028       -2713.271
 08  5 12  0 34  0.0000000  0 12G 3G 6G 7G10G13G16G21G23G24G25G29G31
  23975810.277    23975809.7334   23975812.5284  125993742.863 6  98176966.98941
      3910.482        3047.117
  22173561.904    22173561.6314   22173564.9504  116522886.025 7  90797076.95345
      2606.248        2030.844
  24751554.626    24751554.8154   24751557.7504  130070300.709 5 101353508.23041
      3661.178        2852.843
  24324500.264    24324499.6284   24324503.1764  127826117.728 5  99604786.74641
      2020.191        1574.170
  21850351.797    21850351.6314   21850353.3874  114824383.623 7  89473577.22545
      1047.312         816.083
  20422060.486    20422059.8774   20422062.3294  107318687.985 8  83624976.78547
       495.618         386.176
  24414468.798    24414468.7524   24414471.9744  128298909.531 5  99973195.18341
      2858.453        2227.352
  21629625.369    21629625.1404   21629625.8894  113664477.814 7  88569742.42045
     -1627.467       -1268.157
  23075361.715    23075361.2584   23075365.5394  121261856.848 6  94489774.62843
       786.092         612.498
  23129289.804    23129289.2074   23129292.2424  121545264.087 6  94710614.67944
      2794.847        2177.800
  22865160.841    22865160.8494   22865163.9274  120157251.871 6  93629070.29244
     -2704.988       -2107.804
  23264141.168    23264141.0374   23264143.0774  122253909.541 6  95262812.10544
     -3489.406       -2719.025
 08  5 12  0 34 30.0000000  0 12G 3G 6G 7G10G13G16G21G23G24G25G29G31
  23953498.824    23953498.8714   23953503.8944  125876500.433 5  98085609.27142
      3905.512        3043.244
  22158719.997    22158719.4554   22158722.7954  116444890.577 7  90736301.32145
      2593.246        2020.708
  24730663.952    24730664.3184   24730667.7614  129960518.542 5 101267963.62441
      3657.409        2849.927
  24313014.947    24313013.1384   24313019.2134  127765764.049 5  99557757.90741
      2003.171        1560.907
  21844433.808    21844433.9014   21844434.9424  114793283.927 7  89449343.70645
      1025.812         799.323
  20419280.896    20419280.3714   20419282.7864  107304081.333 8  83613594.96447
       477.830         372.297
  24398175.660    24398174.4604   24398176.8094  128213280.462 6  99906471.29742
      2849.969        2220.738
  21638973.590    21638973.4014   21638974.4964  113713603.930 7  88608022.39045
     -1647.793       -1283.994
  23070929.141    23070928.3784   23070932.6424  121238563.307 6  94471623.96343
       766.593         597.332
  23113360.896    23113360.7294   23113363.3884  121461558.136 7  94645389.29744
      2785.342        2170.391
  22880641.627    22880641.4324   22880644.2294  120238601.615 7  93692459.32744
     -2718.542       -2118.340
  23284082.260    23284081.9174   23284083.7024  122358702.272 6  95344468.70444
     -3496.950       -2724.895
 08  5 12  0 35  0.0000000  0 12G 3G 6G 7G10G13G16G21G23G24G25G29G31
  23931215.906    23931215.6254   23931220.1824  125759403.321 5  97994364.83442
      3900.893        3039.667
  22143952.475    22143951.7844   22143955.3144  116367286.877 7  90675830.97845
      2580.337        2010.648
  24709795.490    24709794.3594   24709798.1634  129850848.795 5 101182506.65942
      3653.827        2847.161
  24301627.118    24301626.7524   24301631.0854  127705919.552 5  99511125.83041
      1986.309        1547.794
  21838638.739    21838638.5244   21838640.3604  114762831.106 7  89425614.25845
      1004.372         782.627
  20416602.927    20416602.1974   20416604.6394  107290007.636 8  83602628.43247
       460.340         358.714
  24381928.732    24381928.5964   24381931.3994  128127906.846 6  99839946.47242
      2841.591        2214.236
  21648438.531    21648438.0684   21648438.6884  113763338.481 8  88646776.20545
     -1667.843       -1299.608
  23066608.223    23066607.6574   23066612.8994  121215858.069 6  94453931.42443
       747.045         582.084
  23097486.683    23097486.0874   23097489.8224  121378137.812 6  94580386.45744
      2775.983        2163.107
  22896199.708    22896199.4564   22896201.8484  120320358.312 6  93756165.92744
     -2731.871       -2128.727
  23304066.257    23304066.6514   23304067.3714  122463718.518 6  95426299.45044
     -3504.173       -2730.528
 08  5 12  0 35 30.0000000  0 12G 3G 6G 7G10G13G16G21G23G24G25G29G31
  23908962.217    23908961.4214   23908965.2584  125642452.149 5  97903234.11842
      3895.933        3035.804
  22129259.227    22129258.9924   22129262.1584  116290074.931 7  90615665.91145
      2567.142        2000.374
  24688946.959    24688946.2344   24688950.3854  129741291.864 5 101097137.64241
      3650.022        2844.171
  24290336.167    24290334.2294   24290339.1124  127646585.289 5  99464891.38941
      1969.215        1534.456
  21832966.333    21832966.1804   21832968.6134  114733024.006 7  89402387.98945
       982.767         765.784
  20414025.716    20414025.0224   20414027.4164  107276466.194 8  83592077.06547
       442.549         344.841
  24365732.038    24365731.0834   24365733.8744  128042789.271 6  99773621.16642
      2832.953        2207.489
  21658018.547    21658018.0284   21658018.6254  113813677.899 8  88686001.06045
     -1688.229       -1315.555
  23062399.306    23062398.8094   23062403.6584  121193742.469 6  94436699.41143
       727.344         566.716
  23081666.738    23081666.5064   23081669.3244  121295003.380 6  94515606.38744
      2766.363        2155.612
  22911832.974    22911833.0034   22911835.7074  120402517.524 7  93820186.55944
     -2745.185       -2139.077
  23324091.806    23324091.7664   23324093.7874  122568954.253 6  95508301.30844
     -3511.491       -2736.224
 08  5 12  0 36  0.0000000  0 12G 3G 6G 7G10G13G16G21G23G24G25G29G31
  23886735.035    23886735.4294   23886738.0764  125525649.176 6  97812218.83042
      3891.023        3031.980
  22114641.415    22114640.9724   22114644.2154  116213256.758 7  90555807.63545
      2554.021        1990.150
  24668121.227    24668120.3794   24668122.9784  129631849.962 5 101011858.23541
      3646.100        2841.103
  24279143.475    24279142.2714   24279145.7784  127587763.707 5  99419056.41641
      1952.057        1521.056
  21827417.098    21827417.1624   21827419.7364  114703864.146 7  89379666.02945
       961.193         748.983
  20411549.775    20411549.1614   20411551.5184  107263455.721 8  83581939.11547
       424.839         331.040
  24349584.216    24349583.6044   24349585.2684  127957931.423 6  99707498.17142
      2824.248        2200.698
  21667712.789    21667712.2044   21667712.6114  113864623.156 8  88725699.09945
     -1708.176       -1331.050
  23058302.286    23058301.5624   23058306.3454  121172214.098 6  94419924.39043
       707.923         551.666
  23065901.838    23065901.1184   23065904.2374  121212156.880 6  94451050.66744
      2756.741        2148.117
  22927544.237    22927543.6484   22927546.4414  120485075.200 7  93884517.17344
     -2758.524       -2149.491
  23344159.134    23344159.3394   23344160.5934  122674407.828 6  95590473.02644
     -3518.705       -2741.856
 08  5 12  0 36 30.0000000  0 12G 3G 6G 7G10G13G16G21G23G24G25G29G31
  23864536.981    23864536.0444   23864539.5234  125408996.719 5  97721320.80742
      3885.939        3028.000
  22100098.682    22100098.3664   22100101.3134  116136834.310 7  90496257.70645
      2540.819        1979.861
  24647316.693    24647316.4374   24647320.0684  129522524.684 5 100926669.76441
      3642.256        2838.138
  24268046.330    24268045.5414   24268050.5254  127529456.325 5  99373622.08341
      1934.951        1507.739
  21821992.009    21821992.0374   21821993.6594  114675352.981 7  89357449.57145
       939.582         732.137
  20409175.085    20409174.4884   20409176.7844  107250976.543 8  83572215.10547
       407.106         317.216
  24333485.089    24333484.6804   24333486.3734  127873335.135 5  99641578.97842
      2815.547        2193.950
  21677521.450    21677520.8464   21677521.0544  113916170.597 8  88765866.56445
     -1728.251       -1346.710
  23054317.812    23054317.2924   23054321.7734  121151274.526 6  94403607.77343
       688.153         536.242
  23050191.085    23050190.8484   23050194.1224  121129600.141 6  94386720.78044
      2747.054        2140.565
  22943329.680    22943329.0964   22943332.3514  120568029.252 6  93949156.42544
     -2771.722       -2159.768
  23364267.649    23364267.3094   23364269.2054  122780077.132 6  95672812.81244
     -3525.879       -2747.440
 08  5 12  0 37  0.0000000  0 12G 3G 6G 7G10G13G16G21G23G24G25G29G31
  23842367.970    23842367.4394   23842370.8864  125292498.529 5  97630543.04842
      3880.661        3023.883
  22085631.886    22085631.5654   22085634.7194  116060810.077 7  90437017.99645
      2527.547        1969.519
  24626535.417    24626535.2364   24626538.7764  129413319.007 5 100841574.52841
      3638.273        2835.011
  24257050.609    24257049.2884   24257053.4514  127471666.492 5  99328591.03641
      1917.803        1494.395
  21816690.185    21816690.2114   21816691.7194  114647492.224 7  89335739.87445
       917.947         715.285
  20406901.664    20406901.0154   20406903.3154  107239030.453 8  83562906.73247
       389.394         303.417
  24317437.805    24317436.8994   24317439.8884  127789003.931 6  99575866.36142
      2806.621        2186.977
  21687444.689    21687443.9654   21687444.0234  113968318.107 8  88806501.35445
     -1748.147       -1362.185
  23050445.362    23050444.6744   23050449.4714  121130926.631 6  94387752.39243
       668.454         520.869
  23034536.884    23034536.4394   23034539.7744  121047335.780 6  94322618.69544
      2737.325        2132.980
  22959189.878    22959189.9774   22959192.9494  120651380.618 6  94014106.32044
     -2784.876       -2170.049
  23384416.079    23384416.2074   23384417.5264  122885961.108 6  95755319.80944
     -3532.925       -2752.928
 08  5 12  0 37 30.0000000  0 12G 3G 6G 7G10G13G16G21G23G24G25G29G31
  23820227.874    23820226.9064   23820231.2254  125176156.172 5  97539886.72042
      3875.586        3019.930
  22071241.489    22071240.6884   22071243.6994  115985186.047 7  90378090.12645
      2514.104        1959.050
  24605776.965    24605777.5954   24605780.8634  129304234.788 5 100756573.89042
      3634.034        2831.733
  24246151.929    24246151.7114   24246156.3134  127414396.646 5  99283965.21141
      1900.299        1480.762
  21811512.143    21811512.1064   21811514.1494  114620283.079 7  89314537.93345
       896.077         698.249
  20404729.490    20404728.8524   20404731.1974  107227616.604 8  83554012.91947
       371.605         289.580
  24301440.167    24301439.9154   24301442.5484  127704940.104 5  99510362.08542
      2797.615        2179.962
  21697481.262    21697480.9094   21697481.2594  114021064.566 7  88847602.73945
     -1768.141       -1377.773
  23046685.834    23046685.3104   23046689.3114  121111171.425 6  94372359.22943
       648.663         505.454
  23018938.770    23018938.2184   23018940.8944  120965365.779 7  94258746.01544
      2727.368        2125.219
  22975125.639    22975125.6234   22975127.5714  120735122.252 7  94079359.12344
     -2797.900       -2180.147
  23404606.127    23404605.7894   23404607.2674  122992057.863 6  95837992.62744
     -3540.091       -2758.524
 08  5 12  0 38  0.0000000  0 12G 3G 6G 7G10G13G16G21G23G24G25G29G31
  23798119.273    23798118.5224   23798123.1314  125059973.694 5  97449354.95842
      3870.059        3015.620
  22056927.091    22056926.6364   22056929.8144  115909965.424 7  90319476.63045
      2500.647        1948.549
  24585042.881    24585043.1794   24585046.5594  129195275.123 5 100671670.31642
      3629.928        2828.518
  24235354.330    24235351.8704   24235357.2194  127357650.029 5  99239747.12641
      1882.796        1467.124
  21806458.897    21806458.7244   21806461.3304  114593727.720 7  89293845.49645
       874.328         681.298
  20402659.107    20402658.4894   20402660.7354  107216736.443 8  83545534.94047
       353.805         275.688
  24285495.632    24285495.4344   24285496.7434  127621147.652 5  99445069.33742
      2788.608        2172.925
  21707632.280    21707632.0034   21707632.4774  114074408.961 8  88889169.93245
     -1788.056       -1393.297
  23043039.265    23043038.7484   23043043.1374  121092008.869 6  94357427.13843
       628.888         490.052
  23003396.915    23003396.4724   23003399.4704  120883693.083 6  94195105.00244
      2717.471        2117.513
  22991136.370    22991136.4424   22991138.5164  120819255.385 6  94144917.07044
     -2810.834       -2190.223
  23424834.625    23424835.0504   23424836.8354  123098366.459 6  95920830.48643
     -3547.049       -2763.931
 08  5 12  0 38 30.0000000  0 12G 3G 6G 7G10G13G16G21G23G24G25G29G31
  23776042.494    23776041.4044   23776044.5854  124943953.312 6  97358949.53142
      3864.529        3011.280
  22042690.114    22042689.6754   22042692.9384  115835149.824 7  90261178.73345
      2487.040        1937.948
  24564333.259    24564333.1484   24564336.2244  129086441.917 5 100586865.21642
      3625.615        2825.162
  24224655.782    24224653.6954   24224657.6944  127301427.961 5  99195937.76041
      1865.184        1453.388
  21801530.490    21801530.1714   21801532.6204  114567827.212 7  89273663.29445
       852.413         664.212
  20400690.123    20400689.5894   20400691.7664  107206390.295 8  83537473.06747
       335.944         261.771
  24269602.122    24269601.6014   24269605.0434  127537628.327 6  99379989.41342
      2779.360        2165.699
  21717896.601    21717896.2634   21717896.8864  114128349.507 8  88931201.66545
     -1807.946       -1408.790
  23039505.981    23039505.5314   23039509.7344  121073441.728 6  94342959.23143
       609.023         474.579
  22987911.359    22987911.1854   22987914.8294  120802319.375 6  94131696.94344
      2707.453        2109.702
  23007219.349    23007219.5294   23007224.3394  120903778.460 6  94210779.47144
     -2824.099       -2200.665
  23445104.912    23445105.0924   23445107.2664  123204884.562 6  96003831.60944
     -3554.093       -2769.432
 08  5 12  0 39  0.0000000  0 13G 3G 6G 7G10G13G16G21G23G24G25G27G29
                                G31
  23753995.409    23753994.3614   23753997.6124  124828098.330 5  97268672.90042
      3859.099        3007.076
  22028530.508    22028530.0744   22028533.6554  115760742.137 7  90203198.67745
      2473.467        1927.368
  24543647.306    24543647.9854   24543650.7014  128977738.341 5 100502161.13842
      3621.329        2821.802
  24214056.284    24214054.2554   24214059.8484  127245734.506 4  99152540.26741
      1847.741        1439.820
  21796727.129    21796726.8704   21796728.5034  114542583.693 7  89253993.00245
       830.525         647.160
  20398823.063    20398822.5074   20398824.8354  107196578.798 8  83529827.70547
       318.238         247.998
  24253763.037    24253762.2154   24253763.4484  127454386.279 6  99315125.54942
      2770.167        2158.575
  21728274.789    21728274.1984   21728274.5054  114182885.094 8  88973696.90845
     -1827.725       -1424.205
  23036086.447    23036085.4084   23036090.2104  121055471.251 6  94328956.29243
       589.117         459.039
  22972484.551    22972484.0114   22972487.3514  120721247.703 6  94068524.24744
      2697.368        2101.840
  25327866.254                                   133098841.790 4
      3265.455
  23023377.087    23023377.1314   23023380.1374  120988688.788 6  94276943.66544
     -2836.699       -2210.404
  23465415.233    23465415.1424   23465416.6064  123311611.476 6  96086995.43744
     -3560.971       -2774.791
 08  5 12  0 39 30.0000000  0 13G 3G 6G 7G10G13G16G21G23G24G25G27G29
                                G31
  23731980.118    23731979.7254   23731982.6494  124712409.779 5  97178525.98242
      3853.424        3002.675
  22014449.100    22014448.4724   22014451.9714  115686742.647 7  90145536.78145
      2459.795        1916.720
  24522986.703    24522986.1044   24522989.1614  128869164.239 5 100417557.97341
      3616.908        2818.365
  24203559.187    24203558.1304   24203562.2324  127190569.358 5  99109554.52841
      1830.008        1426.008
  21792047.870    21792047.7024   21792049.5794  114517996.245 7  89234833.95245
       808.615         630.094
  20397057.564    20397056.9724   20397059.2944  107187300.001 8  83522597.26247
       300.394         234.076
  24237974.265    24237973.7044   24237976.2204  127371421.880 5  99250478.02642
      2760.802        2151.286
  21738764.769    21738764.4654   21738764.8224  114238012.245 8  89016653.14245
     -1847.433       -1439.564
  23032779.104    23032779.3844   23032783.4744  121038096.648 6  94315418.00743
       569.216         443.544
  22957114.732    22957114.3414   22957117.0064  120640478.070 6  94005586.89644
      2687.258        2093.964
  25309230.867    25309229.8314   25309237.5424  133000913.524 4 103637093.92941
      3262.922        2542.537
  23039608.905    23039608.7034   23039611.1204  121073981.263 7  94343405.11544
     -2849.366       -2220.267
  23485763.398    23485762.9934   23485764.5994  123418543.560 6  96170319.10643
     -3567.819       -2780.125
 08  5 12  0 40  0.0000000  0 13G 3G 6G 7G10G13G16G21G23G24G25G27G29
                                G31
  23709996.824    23709997.1564   23710000.6714  124596892.042 5  97088512.24542
      3847.800        2998.267
  22000445.788    22000445.5924   22000448.8554  115613155.437 7  90088196.09145
      2445.995        1905.969
  24502349.895    24502350.8284   24502353.3184  128760724.256 5 100333059.36241
      3612.395        2814.844
  24193162.629    24193161.8904   24193165.6414  127135936.998 5  99066983.88941
      1812.204        1412.136
  21787494.396    21787493.9464   21787496.3204  114494068.365 7  89216188.87445
       786.631         612.950
  20395393.879    20395393.2604   20395395.5984  107178557.522 8  83515785.07747
       282.473         220.088
  24222241.207    24222240.9704   24222241.9784  127288740.417 6  99186050.97142
      2751.328        2143.885
  21749368.080    21749367.6474   21749367.7794  114293731.342 8  89060070.66145
     -1867.167       -1454.940
  23029587.244    23029586.5274   23029591.1984  121021320.028 6  94302345.50843
       549.266         427.986
  22941802.436    22941802.2714   22941805.4084  120560014.853 6  93942888.32244
      2677.006        2085.984
  25290609.448    25290608.8924   25290614.5254  132903057.934 4 103560842.86341
      3260.537        2540.685
  23055911.796    23055912.0054   23055913.9724  121159656.045 6  94410164.32444
     -2862.131       -2230.223
  23506151.669    23506150.6844   23506152.5654  123525680.978 6  96253802.82443
     -3574.649       -2785.435
 08  5 12  0 40 30.0000000  0 13G 3G 6G 7G10G13G16G21G23G24G25G27G29
                                G31
  23688048.956    23688048.4774   23688052.2114  124481547.882 6  96998633.69242
      3841.962        2993.739
  21986521.705    21986521.2154   21986524.3904  115539982.011 7  90031177.66145
      2432.245        1895.261
  24481740.360    24481740.5074   24481744.7874  128652420.256 5 100248666.70741
      3607.853        2811.302
  24182868.905    24182868.2484   24182871.1904  127081840.283 5  99024830.62341
      1794.341        1398.184
  21783066.995    21783066.7664   21783069.2194  114470801.053 7  89198058.51545
       764.599         595.787
  20393831.933    20393831.4024   20393833.6354  107170350.823 8  83509390.47447
       264.682         206.244
  24206561.708    24206560.4524   24206562.1584  127206343.987 5  99121845.99642
      2741.777        2136.430
  21760083.116    21760082.7334   21760083.0484  114350040.240 8  89103947.60945
     -1886.746       -1470.180
  23026509.035    23026508.0544   23026511.8904  121005142.583 6  94289739.88943
       529.283         412.419
  22926550.197    22926549.8304   22926552.4124  120479859.949 7  93880430.01344
      2666.669        2077.927
  25272002.826    25272002.4274   25272008.6604  132805276.777 4 103484649.82741
      3258.077        2538.754
  23072288.640    23072288.6434   23072291.1644  121245711.996 6  94477220.85744
     -2874.844       -2240.133
  23526576.695    23526577.3574   23526578.5854  123633021.989 6  96337445.14944
     -3581.378       -2790.678
 08  5 12  0 41  0.0000000  0 13G 3G 6G 7G10G13G16G21G23G24G25G27G29
                                G31
  23666132.391    23666131.9444   23666135.1404  124366376.371 6  96908889.64142
      3836.126        2989.186
  21972676.057    21972675.6104   21972678.7034  115467222.455 7  89974482.09845
      2418.446        1884.496
  24461157.215    24461157.3124   24461160.6874  128544251.551 5 100164379.48142
      3603.401        2807.844
  24172676.522    24172675.5164   24172679.0534  127028277.685 6  98983093.52642
      1776.577        1384.376
  21778764.594    21778764.6064   21778766.6534  114448192.191 7  89180441.21045
       742.675         578.710
  20392371.598    20392370.9444   20392373.2204  107162676.339 8  83503410.41447
       246.976         192.444
  24190936.084    24190935.0494   24190937.1464  127124232.343 6  99057862.94542
      2732.393        2129.135
  21770910.017    21770909.3924   21770909.8224  114406934.206 8  89148280.41545
     -1906.140       -1485.289
  23023544.075    23023543.1964   23023547.2454  120989562.167 6  94277599.38943
       509.433         396.959
  22911355.250    22911354.8684   22911357.9404  120400012.367 7  93818211.17744
      2656.466        2069.971
  25253410.217    25253408.8704   25253413.7484  132707568.801 5 103408513.80541
      3255.757        2536.960
  23088735.307    23088734.9714   23088737.8694  121332142.257 6  94544568.61444
     -2887.251       -2249.835
  23547041.301    23547041.3824   23547043.1554  123740561.704 6  96421242.32644
     -3587.890       -2795.755
 08  5 12  0 41 30.0000000  0 13G 3G 6G 7G10G13G16G21G23G24G25G27G29
                                G31
  23644248.911    23644248.6594   23644252.3994  124251381.033 5  96819282.91042
      3830.326        2984.673
  21958909.140    21958909.0154   21958912.0694  115394878.658 7  89918110.42345
      2404.525        1873.655
  24440600.349    24440600.2704   24440603.1154  128436221.342 6 100080200.16942
      3598.671        2804.165
  24162585.681    24162584.6464   24162588.0264  126975252.725 6  98941775.36041
      1758.545        1370.298
  21774588.007    21774588.0304   21774590.0034  114426244.364 7  89163339.03745
       720.588         561.493
  20391012.478    20391012.0784   20391014.2214  107155535.874 8  83497846.57547
       229.151         178.554
  24175365.478    24175364.7954   24175366.4794  127042409.241 6  98994104.73642
      2722.644        2121.548
  21781847.789    21781847.3364   21781847.9204  114464411.584 7  89193067.50045
     -1925.631       -1500.501
  23020693.142    23020692.6364   23020695.9264  120974580.433 6  94265925.33143
       489.435         381.378
  22896220.127    22896219.2704   22896222.4024  120320474.897 7  93756233.98844
      2646.103        2061.898
  25234831.775    25234830.0274   25234835.9584  132609936.610 5 103332436.86941
      3253.084        2534.881
  23105253.897    23105253.8204   23105256.8794  121418947.236 6  94612209.05344
     -2899.633       -2259.445
  23567542.822    23567543.1944   23567545.3044  123848299.188 6  96505193.58243
     -3594.465       -2800.888
 08  5 12  0 42  0.0000000  0 13G 3G 6G 7G10G13G16G21G23G24G25G27G29
                                G31
  23622399.797    23622399.3874   23622403.1274  124136563.257 5  96729814.51442
      3824.324        2979.990
  21945222.244    21945221.6054   21945224.4104  115322950.974 7  89862062.84145
      2390.642        1862.834
  24420068.982    24420068.8504   24420072.6364  128328329.920 6  99996128.98843
      3594.081        2800.572
  24152597.879    24152595.8204   24152600.5294  126922765.788 5  98900876.36941
      1740.557        1356.276
  21770536.794    21770536.8354   21770538.6964  114404956.604 7  89146751.15945
       698.599         544.363
  20389755.075    20389754.4894   20389756.5594  107148927.527 8  83492697.27147
       211.415         164.736
  24159850.674    24159849.9194   24159850.5724  126960875.516 6  98930571.96142
      2712.981        2114.010
  21792896.155    21792895.5284   21792895.7944  114522471.012 8  89238308.78345
     -1944.962       -1515.559
  23017956.307    23017955.2364   23017959.0384  120960195.731 6  94254715.98943
       469.544         365.892
  22881142.896    22881142.9574   22881146.0264  120241248.193 7  93694498.95444
      2635.681        2053.775
  25216266.911    25216265.7864   25216272.4864  132512380.139 5 103256418.89141
      3250.557        2532.907
  23121842.438    23121842.7664   23121844.7584  121506120.829 7  94680136.18144
     -2911.846       -2268.916
  23588081.348    23588081.4584   23588083.5354  123956231.036 6  96589296.28043
     -3600.896       -2805.899
 08  5 12  0 42 30.0000000  0 13G 3G 6G 7G10G13G16G21G23G24G25G27G29
                                G31
  23600585.533    23600584.7634   23600588.4694  124021926.399 6  96640487.20642
      3818.196        2975.228
  21931614.312    21931613.8144   21931616.8224  115251442.549 7  89806342.08445
      2376.554        1851.858
  24399564.374    24399564.6304   24399568.3024  128220580.037 5  99912168.11042
      3589.266        2796.820
  24142712.108    24142712.8104   24142717.3024  126870819.606 5  98860398.84041
      1722.518        1342.188
  21766612.204    21766611.9994   21766613.9864  114384330.892 7  89130679.20545
       676.423         527.082
  20388598.983    20388598.3594   20388600.4754  107142852.148 8  83487963.25447
       193.583         150.843
  24144389.367    24144389.7544   24144392.1074  126879634.453 5  98867267.25742
      2703.104        2106.313
  21804054.404    21804054.2164   21804054.5374  114581109.871 7  89284001.51245
     -1964.343       -1530.666
  23015333.447    23015332.5824   23015336.7004  120946410.214 7  94243973.49443
       449.474         350.257
  22866126.648    22866126.6634   22866128.9094  120162334.824 7  93633008.06144
      2625.146        2045.565
  25197717.477    25197716.6094   25197721.3574  132414901.770 5 103180461.76241
      3247.850        2530.802
  23138501.031    23138500.8224   23138505.2174  121593661.943 6  94748349.43144
     -2924.247       -2278.660
  23608657.880    23608657.5494   23608658.8404  124064356.200 6  96673549.65143
     -3607.326       -2810.884
 08  5 12  0 43  0.0000000  0 13G 3G 6G 7G10G13G16G21G23G24G25G27G29
                                G31
  23578806.159    23578805.0674   23578808.5514  123907474.091 6  96551303.62642
      3811.884        2970.296
  21918087.335    21918086.7544   21918089.6374  115180356.098 7  89750949.82145
      2362.451        1840.885
  24379086.723    24379087.4934   24379092.4984  128112975.703 5  99828320.65342
      3584.256        2792.920
  24132929.949    24132928.3574   24132935.0504  126819417.924 5  98820345.54541
      1704.278        1327.989
  21762813.786    21762813.5434   21762815.8594  114364369.631 7  89115124.97045
       654.268         509.824
  20387544.473    20387543.9074   20387546.0484  107137311.139 8  83483645.55247
       175.764         136.963
  24128987.806    24128987.2054   24128988.5034  126798690.143 6  98804193.76542
      2693.135        2098.531
  21815323.506    21815322.9624   21815323.3514  114640327.568 8  89330145.29345
     -1983.546       -1545.613
  23012825.601    23012824.6354   23012828.0894  120933225.939 7  94233699.15043
       429.349         334.540
  22851170.046    22851169.6024   22851172.4034  120083738.378 7  93571764.10044
      2614.553        2037.307
  25179184.357    25179182.8424   25179187.6764  132317504.713 5 103104568.04241
      3245.194        2528.717
  23155231.332    23155230.9204   23155233.1094  121681571.771 6  94816850.86044
     -2936.462       -2288.138
  23629270.033    23629270.6254   23629271.1594  124172674.478 6  96757953.43943
     -3613.853       -2815.975
 08  5 12  0 43 30.0000000  0 13G 3G 6G 7G10G13G16G21G23G24G25G27G29
                                G31
  23557062.493    23557061.6824   23557065.3974  123793210.387 6  96462267.05142
      3805.641        2965.427
  21904641.012    21904640.5214   21904643.5834  115109695.215 7  89695889.06845
      2348.385        1829.918
  24358640.310    24358640.4754   24358643.4104  128005520.606 5  99744589.51541
      3579.412        2789.154
  24123253.030    24123253.4554   24123256.5504  126768564.643 4  98780719.69841
      1686.083        1313.824
  21759142.241    21759142.1004   21759144.3074  114345075.577 7  89100090.67245
       632.138         492.573
  20386592.210    20386591.5914   20386593.7594  107132306.660 8  83479745.94847
       157.985         123.100
  24113641.586    24113640.2694   24113642.0184  126718046.961 6  98741354.91642
      2683.188        2090.802
  21826702.232    21826701.8404   21826702.1944  114700123.693 7  89376739.64545
     -2002.719       -1560.561
  23010430.351    23010429.9594   23010434.0734  120920648.944 6  94223899.59043
       409.333         318.955
  22836274.505    22836274.4954   22836277.4584  120005462.471 7  93510769.95044
      2603.924        2029.023
  25160666.744    25160666.0034   25160669.7054  132220192.193 5 103028740.15241
      3242.474        2526.594
  23172028.986    23172028.4164   23172030.6054  121769846.534 6  94885600.95644
     -2948.406       -2297.396
  23649918.570    23649918.6684   23649921.2094  124281185.685 6  96842507.59643
     -3620.152       -2820.897
 08  5 12  0 44  0.0000000  0 13G 3G 6G 7G10G13G16G21G23G24G25G27G29
                                G31
  23535355.015    23535353.7044   23535357.5024  123679135.707 6  96373377.73642
      3799.359        2960.536
  21891275.866    21891275.3894   21891278.5494  115039460.678 7  89641160.93345
      2334.022        1818.701
  24338220.444    24338220.7394   24338222.8414  127898214.551 5  99660974.42641
      3574.341        2785.193
  24113681.049    24113679.7654   24113685.5794  126718259.065 5  98741520.61441
      1667.732        1299.534
  21755596.887    21755596.8174   21755599.3294  114326447.104 7  89085574.97645
       609.831         475.198
  20385741.568    20385740.9704   20385743.0834  107127836.124 8  83476262.37947
       140.086         109.150
  24098353.081    24098351.7324   24098354.5004  126637705.238 6  98678751.03042
      2673.006        2082.865
  21838190.077    21838189.7034   21838190.3284  114760494.358 7  89423781.76345
     -2021.926       -1575.525
  23008151.868    23008151.4714   23008155.1874  120908672.199 6  94214566.74243
       389.294         303.405
  22821440.226    22821439.7214   22821442.7274  119927506.702 7  93450025.25344
      2593.126        2020.614
  25142164.531    25142163.3724   25142167.8964  132122963.481 5 102952977.58741
      3239.508        2524.260
  23188896.366    23188896.2614   23188899.1464  121858484.461 6  94954669.89444
     -2960.628       -2307.016
  23670603.303    23670603.4844   23670606.0654  124389884.853 6  96927208.17343
     -3626.467       -2825.816
 08  5 12  0 44 30.0000000  0 13G 3G 6G 7G10G13G16G21G23G24G25G27G29
                                G31
  23513683.948    23513683.5314   23513686.5904  123565253.389 6  96284638.31442
      3792.858        2955.452
  21877991.807    21877991.5534   21877994.5754  114969654.445 7  89586766.60745
      2319.694        1807.540
  24317829.302    24317830.1014   24317832.1954  127791060.443 6  99577477.72642
      3569.250        2781.240
  24104214.054    24104212.8844   24104216.8444  126668504.654 5  98702750.96242
      1649.324        1285.199
  21752179.466    21752179.0524   21752181.3724  114308486.101 7  89071579.40945
       587.559         457.837
  20384992.597    20384992.0814   20384994.2214  107123900.357 8  83473195.47547
       122.280          95.287
  24083121.672    24083120.9654   24083122.8694  126557668.200 6  98616384.52742
      2662.768        2074.882
  21849787.570    21849787.0484   21849787.6674  114821437.990 8  89471270.23245
     -2040.994       -1590.385
  23005987.304    23005987.4954   23005992.6754  120897299.137 6  94205704.06743
       368.931         287.446
  22806667.438    22806666.6334   22806669.7254  119849873.856 7  93389532.13344
      2582.370        2012.233
  25123677.401    25123677.9184   25123682.7474  132025821.089 4 102877282.25641
      3236.576        2522.023
  23205830.380    23205830.4164   23205833.1974  121947483.380 6  95024020.71344
     -2972.545       -2316.284
  23691323.998    23691323.8794   23691326.1664  124498771.740 6  97012055.03343
     -3632.657       -2830.651
 08  5 12  0 45  0.0000000  0 13G 3G 6G 7G10G13G16G21G23G24G25G27G29
                                G31
  23492049.786    23492048.9194   23492051.4484  123451565.392 6  96196050.27542
      3786.300        2950.361
  21864789.773    21864789.3264   21864792.4174  114900277.666 7  89532706.88645
      2305.326        1796.365
  24297467.787    24297468.1734   24297470.5384  127684060.019 5  99494100.90142
      3564.112        2777.227
  24094851.098    24094849.8824   24094854.0144  126619302.211 5  98664411.45542
      1630.809        1270.765
  21748888.740    21748888.6734   21748890.1884  114291192.913 7  89058104.22045
       565.264         440.463
  20384345.470    20384344.8564   20384347.0224  107120498.965 8  83470545.00047
       104.421          81.355
  24067949.665    24067948.5574   24067950.8374  126477937.838 6  98554256.99442
      2652.493        2066.875
  21861493.202    21861492.9124   21861493.4774  114882952.174 7  89519203.37445
     -2059.984       -1605.195
  23003939.776    23003938.9204   23003942.9934  120886531.055 6  94197313.40643
       348.725         271.679
  22791955.949    22791955.2494   22791958.5194  119772565.499 6  93329291.91344
      2571.525        2003.781
  25105209.016    25105208.4454   25105211.5804  131928766.004 5 102801655.00941
      3233.690        2519.767
  23222834.975    23222834.9084   23222836.4544  122036835.460 6  95093645.07044
     -2984.059       -2325.127
  23712080.168    23712080.1594   23712081.0134  124607843.738 6  97097046.19343
     -3638.898       -2835.505
 08  5 12  0 45 30.0000000  0 13G 3G 6G 7G10G13G16G21G23G24G25G27G29
                                G31
  23470452.759    23470451.5894   23470456.9084  123338077.250 6  96107617.97443
      3779.563        2945.114
  21851670.544    21851669.8054   21851673.3944  114831335.279 7  89478985.49845
      2290.836        1785.065
  24277136.718    24277135.9594   24277139.4584  127577218.494 5  99410847.85642
      3558.707        2772.998
  24085593.250    24085591.9814   24085596.9514  126570657.427 5  98626506.44142
      1612.166        1256.228
  21745725.993    21745725.8794   21745727.4394  114274571.662 7  89045152.59345
       542.829         422.982
  20383800.527    20383799.8464   20383801.8854  107117635.426 8  83468313.83147
        86.480          67.382
  24052836.612    24052836.5944   24052838.9284  126398520.168 6  98492373.11942
      2641.986        2058.681
  21873307.761    21873307.4324   21873307.7014  114945038.175 7  89567582.16645
     -2079.031       -1620.026
  23002005.184    23002004.9444   23002010.1784  120876372.405 6  94189398.61343
       328.344         255.744
  22777307.221    22777306.7354   22777309.3084  119695586.754 7  93269308.50844
      2560.445        1995.152
  25086756.656    25086756.6184   25086762.7004  131831803.244 4 102726099.62941
      3230.587        2517.344
  23239905.761    23239905.5464   23239909.0984  122126548.475 6  95163551.67743
     -2996.436       -2334.938
  23732870.254    23732870.6024   23732873.0634  124717102.216 6  97182182.63443
     -3645.043       -2840.292
 08  5 12  0 46  0.0000000  0 13G 3G 6G 7G10G13G16G21G23G24G25G27G29
                                G31
  23448894.256    23448894.2004   23448899.5124  123224791.194 6  96019343.16443
      3772.879        2939.903
  21838634.426    21838633.7094   21838636.9744  114762829.158 7  89425604.19445
      2276.237        1773.689
  24256835.901    24256836.2944   24256838.8584  127470537.630 5  99327720.00442
      3553.318        2768.825
  24076443.578    24076442.8534   24076446.3424  126522571.817 6  98589037.16642
      1593.524        1241.687
  21742690.686    21742690.5534   21742692.5754  114258622.330 7  89032724.53045
       520.463         405.553
  20383357.504    20383356.9634   20383359.0014  107115308.574 8  83466500.76647
        68.621          53.471
  24037784.221    24037783.7304   24037785.0574  126319417.116 6  98430734.37642
      2631.528        2050.524
  21885230.456    21885230.1844   21885230.6254  115007693.064 7  89616404.23045
     -2097.962       -1634.778
  23000187.564    23000186.9654   23000190.7644  120866820.998 6  94181956.92243
       308.273         240.189
  22762721.945    22762721.3854   22762724.1184  119618939.205 7  93209583.18244
      2549.332        1986.489
  25068324.398    25068324.4054   25068326.3614  131734934.028 5 102650617.20741
      3227.357        2514.802
  23257044.314    23257044.8114   23257047.3614  122216616.053 6  95233734.82344
     -3008.080       -2343.941
  23753697.607    23753697.2264   23753699.1824  124826545.114 6  97267462.83943
     -3651.160       -2845.064
 08  5 12  0 46 30.0000000  0 13G 3G 6G 7G10G13G16G21G23G24G25G27G29
                                G31
  23427375.369    23427375.3784   23427378.7354  123111705.854 6  95931224.75742
      3766.046        2934.589
  21825680.108    21825680.0134   21825683.0684  114694756.944 7  89372561.06345
      2261.706        1762.365
  24236565.394    24236565.5944   24236567.8704  127364015.994 5  99244716.20942
      3547.914        2764.619
  24067399.206    24067398.8794   24067402.7594  126475043.088 5  98552001.82742
      1574.833        1227.131
  21739782.206    21739781.9864   21739785.0304  114243341.957 7  89020817.75345
       498.065         388.107
  20383016.144    20383015.5724   20383017.6094  107113514.723 8  83465103.01747
        50.786          39.571
  24022790.920    24022790.4924   24022792.3094  126240627.292 6  98369339.69542
      2620.969        2042.309
  21897260.317    21897259.6204   21897260.9064  115070910.983 7  89665664.97745
     -2116.738       -1649.401
  22998483.789    22998483.6554   22998487.0944  120857872.613 6  94174984.33543
       288.170         224.560
  22748198.604    22748198.3174   22748201.4274  119542620.910 7  93150114.41244
      2538.328        1977.919
  25049907.847    25049906.9214   25049910.4424  131638156.152 5 102575205.99741
      3224.239        2512.378
  23274250.426    23274250.3304   23274253.0254  122307030.545 6  95304187.24944
     -3019.757       -2353.074
  23774557.336    23774557.5634   23774559.9734  124936166.366 6  97352882.02143
     -3657.180       -2849.753
 08  5 12  0 47  0.0000000  0 13G 3G 6G 7G10G13G16G21G23G24G25G27G29
                                G31
  23405895.249    23405895.1934   23405898.2874  122998826.570 6  95843266.87042
      3759.118        2929.208
  21812810.077    21812809.7374   21812812.8674  114627123.251 7  89319859.56345
      2247.097        1750.989
  24216326.285    24216326.5894   24216328.3544  127257658.195 5  99161840.10142
      3542.403        2760.319
  24058461.207    24058460.1664   24058464.1864  126428076.300 5  98515404.29242
      1556.094        1212.571
  21737002.758    21737002.8674   21737005.5764  114228734.408 7  89009435.25645
       475.669         370.652
  20382776.871    20382776.2854   20382778.3234  107112256.659 8  83464122.58747
        33.010          25.734
  24007858.906    24007857.9224   24007859.5164  126162156.402 6  98308193.58442
      2610.322        2034.000
  21909397.665    21909397.1674   21909397.8334  115134692.793 7  89715365.12045
     -2135.456       -1663.988
  22996896.894    22996896.3184   22996899.8994  120849531.636 6  94168484.74743
       267.923         208.782
  22733739.439    22733738.7534   22733741.9144  119466636.560 7  93090905.86644
      2527.178        1969.233
  25031509.056    25031508.7674   25031512.8934  131541474.156 5 102499869.42041
      3221.145        2509.996
  23291521.511    23291521.6284   23291524.2904  122397795.480 6  95374913.63743
     -3031.262       -2362.009
  23795452.823    23795452.2104   23795454.2214  125045966.838 6  97438440.89343
     -3662.978       -2854.271
 08  5 12  0 47 30.0000000  0 13G 3G 6G 7G10G13G16G21G23G24G25G27G29
                                G31
  23384455.426    23384454.5034   23384456.7434  122886154.520 6  95755470.47042
      3752.241        2923.804
  21800023.124    21800022.8214   21800026.0404  114559928.238 7  89267499.85545
      2232.429        1739.555
  24196118.252    24196117.7054   24196120.2614  127151464.850 5  99079092.14142
      3537.003        2756.120
  24049630.663    24049630.0234   24049633.2414  126381671.625 5  98479244.83641
      1537.383        1197.945
  21734351.397    21734351.3864   21734353.3474  114214798.861 7  88998576.39645
       453.267         353.197
  20382639.091    20382638.5004   20382640.5504  107111532.850 8  83463558.62847
        15.156          11.807
  23992986.973    23992987.1714   23992988.2264  126084005.191 6  98247296.55242
      2599.610        2025.672
  21921641.448    21921640.9934   21921641.2874  115199034.679 7  89765501.77445
     -2154.092       -1678.518
  22995424.938    22995424.5754   22995428.1114  120841796.659 6  94162457.07843
       247.715         193.069
  22719343.977    22719343.4424   22719345.7914  119390986.627 7  93031957.88044
      2515.989        1960.514
  25013130.106    25013129.4204   25013132.3464  131444888.271 5 102424607.75541
      3217.802        2507.381
  23308860.424    23308859.9934   23308862.2834  122488902.171 6  95445904.68544
     -3042.698       -2370.906
  23816379.796    23816379.5444   23816381.5014  125155943.216 6  97524136.84643
     -3668.854       -2858.845
 08  5 12  0 48  0.0000000  0 13G 3G 6G 7G10G13G16G21G23G24G25G27G29
                                G31
  23363053.271    23363053.3344   23363056.6654  122773690.235 6  95667836.00142
      3745.349        2918.438
  21787319.775    21787319.4264   21787322.7594  114493172.115 7  89215482.04945
      2217.879        1728.219
  24175941.863    24175941.9094   24175944.6144  127045436.867 6  98996473.02842
      3531.437        2751.769
  24040906.197    24040906.4614   24040909.5684  126335829.823 5  98443523.89641
      1518.641        1183.381
  21731827.629    21731827.2514   21731828.7554  114201534.430 7  88988240.45945
       430.970         335.817
  20382602.766    20382602.1334   20382604.2044  107111340.812 8  83463408.65647
        -2.479          -1.921
  23978176.083    23978175.6824   23978178.1034  126006174.256 6  98186649.09942
      2589.013        2017.401
  21933991.546    21933990.8564   21933991.0404  115263932.828 7  89816071.78045
     -2172.513       -1692.873
  22994068.992    22994068.4254   22994072.8224  120834665.719 6  94156899.30143
       227.597         177.392
  22705011.505    22705011.2644   22705014.3254  119315671.493 7  92973270.75044
      2504.915        1951.882
  24994768.535    24994767.6094   24994770.9054  131348398.441 5 102349420.93341
      3214.857        2505.040
  23326261.987    23326261.8074   23326265.7744  122580351.125 6  95517163.11843
     -3054.125       -2379.898
  23837340.890    23837340.7754   23837341.9754  125266091.900 6  97609966.99143
     -3674.464       -2863.225
 08  5 12  0 48 30.0000000  0 13G 3G 6G 7G10G13G16G21G23G24G25G27G29
                                G31
  23341693.441    23341692.4544   23341696.6954  122661439.833 6  95580368.21843
      3737.996        2912.723
  21774701.116    21774700.6934   21774703.9074  114426859.621 7  89163809.97145
      2202.915        1716.557
  24155797.668    24155797.3544   24155801.0244  126939579.085 6  98913986.48242
      3525.672        2747.273
  24032291.063    24032290.9254   24032296.4074  126290555.466 5  98408245.20941
      1499.483        1168.430
  21729431.074    21729431.2244   21729433.0844  114188944.424 7  88978430.05445
       408.350         318.201
  20382668.205    20382667.6794   20382669.7454  107111684.625 8  83463676.50447
       -20.468         -15.954
  23963427.465    23963426.7054   23963428.9964  125928669.551 6  98126255.82042
      2577.936        2008.770
  21946447.027    21946446.3424   21946446.4914  115329387.762 7  89867075.59345
     -2191.183       -1707.420
  22992828.411    22992828.1294   22992832.5274  120828145.824 6  94151818.82843
       207.035         161.287
  22690744.388    22690743.9494   22690747.0054  119240695.997 7  92914848.30144
      2493.412        1942.923
  24976425.771    24976424.9634   24976430.5454  131252009.186 4 102274312.56041
      3211.285        2502.316
  23343729.796    23343730.0314   23343732.6854  122672143.116 6  95588689.85644
     -3065.479       -2388.696
  23858333.610    23858334.0044   23858335.4184  125376414.098 6  97695932.36943
     -3680.350       -2867.812
 08  5 12  0 49  0.0000000  0 13G 3G 6G 7G10G13G16G21G23G24G25G27G29
                                G31
  23320372.865    23320372.8054   23320375.9904  122549402.973 6  95493066.81643
      3731.022        2907.275
  21762166.737    21762166.2914   21762169.5114  114360990.912 8  89112483.76045
      2188.177        1705.069
  24135685.813    24135685.8904   24135688.3164  126833891.975 5  98831632.95842
      3520.015        2742.861
  24023784.241    24023783.5634   24023786.5824  126245848.557 5  98373408.65741
      1480.690        1153.786
  21727163.412    21727163.2044   21727165.7444  114177027.780 7  88969144.35945
       385.995         300.775
  20382835.249    20382834.6074   20382836.7374  107112561.452 8  83464359.57947
       -38.123         -29.702
  23948740.638    23948739.9314   23948742.7804  125851491.681 6  98066117.21042
      2567.165        2000.392
  21959007.816    21959007.2854   21959007.4904  115395395.381 7  89918509.90145
     -2209.400       -1721.587
  22991703.152    22991702.5074   22991707.1404  120822233.262 6  94147211.65543
       187.026         145.772
  22676541.412    22676540.9264   22676544.4074  119166060.346 7  92856690.65144
      2482.175        1934.158
  24958101.922    24958101.7934   24958106.9574  131155720.258 4 102199282.32941
      3207.941        2499.678
  23361260.707    23361260.8094   23361262.6034  122764269.626 6  95660476.05643
     -3076.488       -2397.225
  23879359.672    23879360.2404   23879361.1694  125486906.193 6  97782030.09843
     -3685.880       -2872.113
 08  5 12  0 49 30.0000000  0 13G 3G 6G 7G10G13G16G21G23G24G25G27G29
                                G31
  23299094.116    23299093.6084   23299097.7874  122437582.506 6  95405933.99543
      3723.833        2901.692
  21749717.059    21749716.5724   21749719.8164  114295566.963 7  89061503.99346
      2173.474        1693.620
  24115606.300    24115606.2674   24115609.4744  126728377.004 5  98749413.63842
      3514.397        2738.479
  24015385.739    24015382.7154   24015389.5494  126201710.941 5  98339015.74941
      1461.875        1139.092
  21725024.277    21725024.1694   21725026.6364  114165784.945 7  88960383.71745
       363.613         283.333
  20383103.637    20383103.1294   20383105.3584  107113970.832 8  83465457.36947
       -55.779         -43.465
  23934116.854    23934116.9834   23934118.7414  125774642.756 6  98006234.96242
      2556.241        1991.869
  21971673.562    21971673.0624   21971673.4084  115461953.512 7  89970373.18745
     -2227.644       -1735.832
  22990694.208    22990693.1164   22990698.0334  120816926.830 6  94143075.95643
       166.783         129.946
  22662404.242    22662403.4524   22662406.4774  119091766.264 7  92798799.16344
      2470.877        1925.361
  24939798.126    24939797.8464   24939802.9084  131059533.115 5 102124331.41241
      3204.630        2497.111
  23378856.231    23378856.5744   23378859.0844  122856732.344 6  95732525.05443
     -3087.660       -2406.003
  23900417.190    23900417.5184   23900420.1924  125597565.510 6  97868258.11243
     -3691.314       -2876.344
 08  5 12  0 50  0.0000000  0 13G 3G 6G 7G10G13G16G21G23G24G25G27G29
                                G31
  23277857.564    23277856.9934   23277861.3684  122325983.716 6  95318973.91943
      3716.257        2895.786
  21737352.927    21737352.4234   21737355.5684  114230592.781 7  89010874.76245
      2158.378        1681.860
  24095562.329    24095561.8574   24095564.3524  126623039.556 5  98667332.56742
      3508.315        2733.762
  24007095.217    24007094.3214   24007099.8574  126158146.708 5  98305069.61141
      1442.645        1124.146
  21723014.063    21723013.7674   21723016.1384  114155219.277 7  88952150.72945
       340.975         265.707
  20383474.242    20383473.5184   20383475.8504  107115915.516 8  83466972.27347
       -73.688         -57.404
  23919556.425    23919556.1994   23919557.9964  125698127.477 6  97946612.57542
      2544.939        1983.070
  21984444.055    21984443.5254   21984444.2374  115529062.729 7  90022666.02345
     -2246.061       -1750.169
  22989800.514    22989800.0184   22989804.6994  120812233.437 6  94139419.14243
       146.245         113.870
  22648331.814    22648331.1224   22648334.3754  119017818.271 6  92741177.36444
      2459.210        1916.272
  24921515.639    24921515.0524   24921518.8304  130963452.277 5 102049463.28941
      3200.958        2494.264
  23396513.636    23396513.5274   23396517.3374  122949532.582 6  95804838.60143
     -3098.711       -2414.599
  23921506.839    23921507.2854   23921509.3904  125708393.228 6  97954617.35543
     -3696.973       -2880.769
 08  5 12  0 50 30.0000000  0 13G 3G 6G 7G10G13G16G21G23G24G25G27G29
                                G31
  23256663.795    23256663.2184   23256666.5164  122214609.105 6  95232188.53043
      3708.897        2890.052
  21725074.455    21725074.0644   21725077.1134  114166069.454 7  88960596.79245
      2143.454        1670.262
  24075551.481    24075551.5314   24075552.7414  126517881.877 6  98585391.50142
      3502.357        2729.103
  23998915.472    23998914.1014   23998917.4424  126115157.483 5  98271571.50741
      1423.526        1109.243
  21721132.051    21721132.3894   21721134.2434  114145330.931 7  88944445.52645
       318.428         248.124
  20383946.165    20383945.5424   20383947.9094  107118396.424 8  83468905.52347
       -91.491         -71.305
  23905060.642    23905059.7534   23905061.7604  125621948.325 6  97887252.05042
      2533.819        1974.411
  21997319.147    21997318.5534   21997318.6724  115596720.506 7  90075386.36145
     -2264.290       -1764.396
  22989023.332    22989022.6334   22989027.0374  120808152.377 6  94136240.50643
       126.078          98.215
  22634326.405    22634325.8214   22634329.1714  118944218.138 7  92683826.60644
      2447.672        1907.276
  24903252.110    24903251.3134   24903255.8244  130867479.389 5 101974679.31741
      3197.372        2491.455
  23414236.486    23414236.1734   23414237.5354  123042661.836 6  95877406.98543
     -3109.651       -2423.097
  23942628.423    23942629.2104   23942630.1544  125819387.353 6  98041106.33443
     -3702.470       -2885.045
 08  5 12  0 51  0.0000000  0 13G 3G 6G 7G10G13G16G21G23G24G25G27G29
                                G31
  23235512.540    23235512.4254   23235515.9394  122103458.921 6  95145577.95043
      3701.151        2883.996
  21712882.111    21712881.5954   21712884.9344  114101996.581 7  88910669.52145
      2128.098        1658.241
  24055574.094    24055574.5494   24055577.6414  126412903.958 5  98503590.50142
      3496.170        2724.276
  23990843.938    23990842.8494   23990846.3624  126072743.188 5  98238521.42342
      1404.083        1094.074
  21719379.166    21719379.0244   21719381.1224  114136118.821 7  88937267.25445
       295.741         230.454
  20384519.575    20384518.8664   20384521.0884  107121411.097 8  83471255.06447
      -109.413         -85.259
  23890627.890    23890627.4704   23890629.7984  125546106.741 6  97828154.58042
      2522.326        1965.448
  22010297.256    22010296.9154   22010297.2404  115664922.534 7  90128530.82545
     -2282.503       -1778.570
  22988362.321    22988361.6874   22988365.8514  120804678.498 7  94133533.91744
       105.563          82.254
  22620386.727    22620386.4924   22620389.9674  118870966.027 7  92626747.07044
      2435.846        1898.062
  24885008.973    24885008.2094   24885012.8294  130771613.851 5 101899978.94641
      3193.626        2488.552
  23432019.205    23432019.6294   23432022.7684  123136118.080 6  95950229.82843
     -3120.701       -2431.696
  23963780.783    23963780.6554   23963783.3634  125930544.073 6  98127721.94343
     -3708.011       -2889.358
 08  5 12  0 51 30.0000000  0 13G 3G 6G 7G10G13G16G21G23G24G25G27G29
                                G31
  23214404.629    23214404.8194   23214407.8864  121992537.976 6  95059146.05743
      3693.600        2878.130
  21700776.107    21700775.6164   21700778.7954  114038379.641 7  88861098.03346
      2113.053        1646.520
  24035632.239    24035631.7934   24035636.7274  126308110.491 5  98421933.33142
      3490.126        2719.579
  23982882.723    23982882.1924   23982885.9824  126030908.128 6  98205922.68842
      1384.896        1079.130
  21717755.123    21717755.0774   21717757.0814  114127585.804 7  88930618.15545
       273.169         212.852
  20385194.955    20385194.2984   20385196.5194  107124959.886 8  83474020.21347
      -127.134         -99.070
  23876261.226    23876260.1664   23876262.8314  125470607.595 6  97769324.20842
      2510.980        1956.604
  22023379.431    22023378.7344   22023379.1984  115733668.895 7  90182099.45245
     -2300.514       -1792.618
  22987817.324    22987816.6334   22987821.1464  120801815.856 6  94131303.24744
        85.317          66.469
  22606514.431    22606514.2384   22606517.0354  118798066.231 7  92569942.05544
      2424.198        1888.980
  24866788.560    24866786.7784   24866790.9834  130675860.335 5 101825365.92241
      3189.997        2485.707
  23449867.217    23449866.9384   23449869.2844  123229902.448 6  96023308.60743
     -3131.543       -2440.171
  23984964.582    23984965.1234   23984966.4894  126041863.923 6  98214464.65443
     -3713.296       -2893.495
 08  5 12  0 52  0.0000000  0 13G 3G 6G 7G10G13G16G21G23G24G25G27G29
                                G31
  23193341.848    23193341.3264   23193345.0474  121881849.313 6  94972895.16243
      3685.874        2872.103
  21688756.834    21688756.4144   21688759.8004  113975219.653 7  88811882.63846
      2097.823        1634.664
  24015727.380    24015726.9074   24015729.1814  126203503.771 5  98340421.65542
      3483.838        2714.680
  23975032.044    23975031.5564   23975035.8014  125989654.516 5  98173777.03342
      1365.562        1064.055
  21716260.461    21716260.5894   21716262.4604  114119732.500 7  88924498.69845
       250.548         195.227
  20385972.183    20385971.4604   20385973.6144  107129044.412 8  83477203.11647
      -144.902        -112.901
  23861959.077    23861958.3964   23861962.0424  125395453.318 6  97710762.59342
      2499.583        1947.740
  22036564.585    22036564.0574   22036564.4534  115802957.581 7  90236090.66245
     -2318.530       -1806.652
  22987388.537    22987388.2414   22987392.5894  120799564.914 6  94129548.94543
        64.987          50.655
  22592709.609    22592709.2704   22592711.7964  118725521.000 7  92513413.32144
      2412.365        1879.763
  24848588.314    24848587.6494   24848591.9784  130580220.447 5 101750841.40841
      3186.254        2482.778
  23467774.401    23467774.6254   23467778.0924  123324012.461 6  96096641.31043
     -3142.245       -2448.512
  24006178.734    24006178.5584   24006180.6544  126153345.384 5  98301333.32743
     -3718.570       -2897.576
 08  5 12  0 52 30.0000000  0 13G 3G 6G 7G10G13G16G21G23G24G25G27G29
                                G31
  23172323.165    23172322.2524   23172325.1264  121771393.373 6  94886825.60843
      3677.977        2865.962
  21676824.877    21676824.4674   21676827.4634  113912516.210 7  88763022.88545
      2082.498        1622.728
  23995856.536    23995856.4374   23995859.0104  126099084.424 5  98259056.01243
      3477.537        2709.768
  23967292.654    23967292.3644   23967295.8844  125948981.921 5  98142084.12842
      1346.103        1048.917
  21714895.179    21714895.0544   21714897.0534  114112557.793 7  88918908.05245
       227.850         177.548
  20386850.804    20386850.1524   20386852.4104  107133661.638 8  83480800.91647
      -162.840        -126.920
  23847723.915    23847723.3034   23847725.6234  125320644.370 6  97652469.95342
      2487.862        1938.592
  22049852.141    22049851.6224   22049851.8744  115872784.393 7  90290501.24145
     -2336.472       -1820.632
  22987076.367    22987076.1194   22987081.0894  120797925.494 6  94128271.64843
        44.434          34.587
  22578972.000    22578971.5144   22578975.3124  118653330.394 7  92457160.94245
      2400.472        1870.497
  24830410.457    24830409.1864   24830413.2854  130484693.969 5 101676405.33241
      3182.338        2479.735
  23485745.496    23485745.0644   23485747.2614  123418443.444 6  96170224.13744
     -3152.996       -2456.889
  24027423.432    24027423.0014   24027425.8344  126264984.592 6  98388324.92143
     -3723.913       -2901.751
 08  5 12  0 53  0.0000000  0 13G 3G 6G 7G10G13G16G21G23G24G25G27G29
                                G31
  23151349.010    23151348.3574   23151351.4134  121661174.066 6  94800940.30343
      3669.939        2859.701
  21664980.225    21664979.8064   21664982.9524  113850272.577 8  88714521.33446
      2067.025        1610.669
  23976022.838    23976022.4214   23976025.0794  125994856.141 6  98177839.23643
      3470.978        2704.652
  23959663.702    23959662.8694   23959666.7614  125908893.205 5  98110846.14742
      1326.444        1033.592
  21713659.385    21713659.3584   21713661.3734  114106063.436 8  88913847.50645
       205.077         159.798
  20387831.178    20387830.5004   20387832.7124  107138813.321 8  83484815.17947
      -180.711        -140.817
  23833554.603    23833554.2094   23833556.6054  125246184.708 6  97594449.46943
      2476.071        1929.398
  22063241.675    22063241.5804   22063241.8194  115943148.410 7  90345330.34845
     -2354.470       -1834.653
  22986880.791    22986880.6484   22986884.7514  120796898.742 6  94127472.06943
        23.982          18.669
  22565302.674    22565302.2414   22565305.4244  118581497.713 7  92401187.45645
      2388.364        1861.064
  24812254.396    24812254.6204   24812257.9744  130389284.189 5 101602060.15341
      3178.317        2476.604
  23503774.946    23503774.4814   23503777.5484  123513194.187 6  96244056.08843
     -3163.674       -2465.203
  24048697.247    24048697.1214   24048698.7374  126376780.911 6  98475438.94943
     -3729.268       -2905.915
 08  5 12  0 53 30.0000000  0 13G 3G 6G 7G10G13G16G21G23G24G25G27G29
                                G31
  23130419.804    23130419.8754   23130422.9634  121551193.304 6  94715240.99943
      3662.194        2853.654
  21653223.374    21653223.0284   21653226.1484  113788488.996 7  88666378.05246
      2051.910        1598.902
  23956224.880    23956224.5144   23956227.0794  125890819.709 6  98096771.92743
      3464.835        2699.869
  23952146.930    23952145.5634   23952149.6094  125869389.271 6  98080063.88742
      1307.186        1018.584
  21712553.190    21712553.1244   21712554.8824  114100248.726 8  88909316.59245
       182.635         142.314
  20388912.748    20388912.1144   20388914.3394  107144498.737 8  83489245.65347
      -198.274        -154.516
  23819452.211    23819451.4564   23819453.9294  125172075.655 6  97536702.24142
      2464.551        1920.444
  22076733.458    22076732.8824   22076732.9684  116014046.007 7  90400575.25045
     -2371.982       -1848.296
  22986802.358    22986801.7684   22986805.5324  120796482.970 6  94127148.29443
         3.765           2.936
  22551701.904    22551701.4714   22551703.8244  118510023.772 7  92345493.46945
      2376.585        1851.892
  24794120.817    24794119.7654   24794123.1214  130293991.811 5 101527806.46642
      3174.518        2473.626
  23521866.276    23521865.6414   23521867.8594  123608261.229 6  96318134.32643
     -3174.012       -2473.258
  24070000.883    24070000.8944   24070002.7314  126488731.483 6  98562673.16843
     -3734.090       -2909.683
 08  5 12  0 54  0.0000000  0 13G 3G 6G 7G10G13G16G21G23G24G25G27G29
                                G31
  23109536.811    23109536.2384   23109540.2474  121441454.011 6  94629729.96743
      3653.910        2847.200
  21641554.667    21641554.1074   21641557.3534  113727168.437 8  88618595.76946
      2036.227        1586.671
  23936464.027    23936464.1364   23936467.0174  125786978.098 6  98015856.41442
      3458.192        2694.685
  23944741.339    23944739.0894   23944743.6654  125830471.894 5  98049738.69042
      1287.373        1003.152
  21711576.069    21711575.9504   21711578.0324  114095114.399 7  88905315.82845
       159.828         124.538
  20390096.032    20390095.3934   20390097.5214  107150717.042 8  83494091.17447
      -216.192        -168.473
  23805416.780    23805416.0204   23805417.9104  125098319.498 6  97479229.98643
      2452.585        1911.096
  22090325.985    22090325.3914   22090325.7614  116085475.373 7  90456234.43645
     -2389.825       -1862.197
  22986838.767    22986837.9034   22986842.9374  120796679.055 6  94127301.15543
       -16.750         -13.051
  22538169.331    22538168.8144   22538172.6074  118438911.067 7  92290080.98245
      2364.365        1842.359
  24776009.934    24776009.0344   24776012.7784  130198818.763 5 101453645.72242
      3170.396        2470.456
  23540015.463    23540015.5464   23540018.2744  123703642.437 6  96392457.34043
     -3184.580       -2481.479
  24091333.658    24091333.4294   24091335.8344  126600834.869 6  98650026.48943
     -3739.336       -2913.764
 08  5 12  0 54 30.0000000  0 13G 3G 6G 7G10G13G16G21G23G24G25G27G29
                                G31
  23088701.217    23088700.5194   23088703.9214  121331959.736 6  94544409.94343
      3645.719        2840.821
  21629974.241    21629973.7994   21629977.2134  113666313.003 8  88571175.76046
      2020.758        1574.609
  23916742.022    23916741.2084   23916743.1234  125683334.767 5  97935095.42442
      3451.508        2689.501
  23937447.008    23937445.8484   23937449.8534  125792144.464 5  98019873.17641
      1267.725         987.834
  21710728.466    21710728.3194   21710730.9784  114090662.247 7  88901846.62345
       137.071         106.802
  20391380.976    20391380.4044   20391382.4694  107157469.622 8  83499352.96647
      -233.956        -182.301
  23791449.526    23791448.9564   23791451.4564  125024920.830 6  97422036.24243
      2440.642        1901.814
  22104019.236    22104018.7924   22104019.4034  116157435.270 7  90512306.97445
     -2407.440       -1875.921
  22986992.734    22986992.0424   22986997.3314  120797488.549 6  94127931.95043
       -37.186         -28.990
  22524707.029    22524706.4374   22524709.2974  118368162.837 7  92234952.50245
      2352.232        1832.904
  24757922.987    24757921.1524   24757925.0484  130103768.025 5 101379580.29541
      3166.322        2467.250
  23558226.410    23558225.7874   23558228.6394  123799336.994 6  96467024.43443
     -3194.970       -2489.575
  24112695.099    24112694.9574   24112697.7644  126713090.548 6  98737498.43743
     -3744.363       -2917.698
 08  5 12  0 55  0.0000000  0 13G 3G 6G 7G10G13G16G21G23G24G25G27G29
                                G31
  23067911.347    23067911.3254   23067913.8754  121222711.261 6  94459281.37243
      3637.448        2834.363
  21618482.270    21618482.0014   21618485.4154  113605924.057 7  88524119.68046
      2005.190        1562.477
  23897057.613    23897057.5044   23897059.2934  125579890.429 6  97854489.47843
      3444.801        2684.250
  23930266.687    23930265.2104   23930269.5484  125754406.779 5  97990467.17242
      1248.015         972.469
  21710010.582    21710010.5994   21710013.1674  114086891.016 7  88898908.00445
       114.332          89.084
  20392767.082    20392766.5414   20392768.7464  107164754.200 8  83505029.22647
      -251.733        -196.159
  23777550.782    23777549.8784   23777551.6554  124951880.556 6  97365121.79143
      2428.670        1892.464
  22117813.338    22117812.7804   22117813.2704  116229922.339 7  90568790.45145
     -2425.045       -1889.649
  22987263.576    22987262.8224   22987267.2294  120798910.008 6  94129039.54943
       -57.639         -44.915
  22511312.569    22511312.2744   22511315.3664  118297779.363 7  92180108.25345
      2339.964        1823.344
  24739858.097    24739856.7904   24739861.0834  130008839.962 5 101305610.42741
      3162.096        2463.973
  23576495.014    23576494.7934   23576496.9464  123895340.586 6  96541832.46043
     -3205.275       -2497.610
  24134084.543    24134084.5704   24134085.8384  126825494.906 6  98825086.27843
     -3749.292       -2921.539
 08  5 12  0 55 30.0000000  0 13G 3G 6G 7G10G13G16G21G23G24G25G27G29
                                G31
  23047170.488    23047170.0194   23047172.9664  121113714.063 6  94374348.52443
      3629.112        2827.871
  21607080.399    21607079.6834   21607083.0914  113546004.041 8  88477428.58846
      1989.541        1550.291
  23877411.362    23877411.3734   23877413.7554  125476649.894 6  97774042.37143
      3438.011        2678.959
  23923197.819    23923197.1024   23923200.9564  125717262.903 5  97961523.91842
      1228.347         957.158
  21709423.512    21709423.2724   21709425.2954  114083803.602 7  88896502.23745
        91.563          71.349
  20394255.313    20394254.5564   20394256.7244  107172573.938 8  83511122.65247
      -269.502        -210.013
  23763720.855    23763720.2074   23763722.1304  124879203.515 6  97308490.34643
      2416.616        1883.069
  22131707.040    22131706.7294   22131707.3804  116302936.373 7  90625684.64745
     -2442.455       -1903.210
  22987651.361    22987650.7124   22987653.8934  120800946.379 7  94130626.40943
       -78.044         -60.803
  22497990.213    22497989.6024   22497992.7994  118227765.179 7  92125551.76745
      2327.713        1813.802
  24721817.484    24721816.7734   24721821.7614  129914038.867 5 101231739.46641
      3157.938        2460.749
  23594821.742    23594821.6904   23594824.5434  123991653.526 6  96616881.43643
     -3215.452       -2505.537
  24155503.328    24155503.0554   24155504.4814  126938048.863 6  98912790.67443
     -3754.211       -2925.362
 08  5 12  0 56  0.0000000  0 13G 3G 6G 7G10G13G16G21G23G24G25G27G29
                                G31
  23026476.424    23026476.1304   23026479.2194  121004968.353 6  94289611.61443
      3620.590        2821.244
  21595767.261    21595766.7894   21595770.1244  113486553.161 8  88431102.90346
      1973.811        1538.046
  23857804.007    23857803.7224   23857806.6444  125373613.408 6  97693754.23743
      3431.050        2673.540
  23916242.405    23916241.7604   23916245.5734  125680712.614 5  97933043.16041
      1208.436         941.650
  21708965.609    21708965.6224   21708967.5834  114081398.360 7  88894628.00945
        68.775          53.587
  20395844.529    20395843.9034   20395846.1284  107180925.776 8  83517630.52647
      -287.319        -223.891
  23749958.954    23749958.6374   23749960.5824  124806890.079 6  97252142.25343
      2404.369        1873.525
  22145700.695    22145700.4294   22145700.7034  116376472.735 7  90682985.70445
     -2459.908       -1916.804
  22988155.505    22988155.0024   22988157.9634  120803595.198 6  94132690.37743
       -98.537         -76.789
  22484736.842    22484736.4904   22484739.0254  118158120.238 7  92071283.00045
      2315.302        1804.135
  24703801.881    24703800.0574   24703805.2094  129819364.483 5 101157967.31841
      3153.629        2457.364
  23613209.285    23613208.7374   23613211.3034  124088271.435 6  96692168.07243
     -3225.652       -2513.488
  24176949.565    24176949.6674   24176950.4954  127050748.649 6  99000608.68743
     -3759.115       -2929.175
 08  5 12  0 56 30.0000000  0 13G 3G 6G 7G10G13G16G21G23G24G25G27G29
                                G31
  23005831.621    23005830.9034   23005834.5714  120896476.303 6  94205072.38043
      3612.208        2814.703
  21584543.753    21584543.2344   21584546.7604  113427574.067 7  88385145.46446
      1958.197        1525.856
  23838235.800    23838235.1024   23838238.5214  125270782.947 6  97613626.71943
      3424.215        2668.209
  23909399.904    23909399.6724   23909403.0584  125644757.487 5  97905026.16241
      1188.610         926.197
  21708638.397    21708638.0614   21708639.8624  114079675.162 7  88893285.26145
        46.141          35.945
  20397534.990    20397534.3714   20397536.5614  107189809.315 8  83524552.75347
      -304.936        -237.610
  23736269.018    23736267.9934   23736269.4554  124734942.099 6  97196078.85043
      2392.192        1864.031
  22159793.100    22159792.8374   22159793.4424  116450528.440 7  90740691.37645
     -2477.122       -1930.228
  22988775.005    22988774.6234   22988779.2864  120806856.428 6  94135231.55543
      -118.801         -92.574
  22471554.526    22471554.1504   22471556.3394  118088846.120 7  92017303.17945
      2303.006        1794.548
  24685809.845    24685809.8964   24685813.5494  129724818.201 5 101084294.95041
      3149.446        2454.096
  23631652.432    23631652.0474   23631654.0664  124185191.266 6  96767689.91043
     -3235.544       -2521.195
  24198423.646    24198423.1524   24198423.9024  127163591.732 6  99088538.40643
     -3763.672       -2932.743
 08  5 12  0 57  0.0000000  0 13G 3G 6G 7G10G13G16G21G23G24G25G27G29
                                G31
  22985235.229    22985234.6444   22985237.7774  120788241.074 6  94120733.22843
      3603.431        2807.880
  21573410.077    21573409.7404   21573412.9774  113369067.396 8  88339556.03546
      1942.289        1513.470
  23818707.574    23818707.2694   23818709.0234  125168161.100 6  97533661.67242
      3417.159        2662.710
  23902670.540    23902670.4174   23902675.4654  125609398.388 5  97877473.64241
      1168.630         910.621
  21708439.990    21708439.8724   21708442.3044  114078634.751 8  88892474.55145
        23.255          18.114
  20399326.673    20399326.0394   20399328.2804  107199224.699 8  83531889.40047
      -322.759        -251.498
  23722647.697    23722646.8574   23722648.3624  124663362.635 6  97140302.64243
      2379.808        1854.405
  22173984.051    22173983.5834   22173983.8954  116525101.472 7  90798800.06845
     -2494.444       -1943.720
  22989513.290    22989512.6364   22989517.0624  120810730.814 6  94138250.56543
      -139.406        -108.622
  22458443.327    22458442.7854   22458445.9954  118019945.072 7  91963614.09845
      2290.387        1784.716
  24667843.600    24667842.3834   24667847.0734  129630402.310 5 101010724.21342
      3144.913        2450.585
  23650152.865    23650152.8664   23650155.0834  124282410.868 6  96843445.09843
     -3245.656       -2529.066
  24219922.417    24219922.1184   24219924.1364  127276576.874 5  99176578.77342
     -3768.551       -2936.528
 08  5 12  0 57 30.0000000  0 13G 3G 6G 7G10G13G16G21G23G24G25G27G29
                                G31
  22964687.780    22964686.9534   22964690.4214  120680265.372 6  94036596.34943
      3594.882        2801.214
  21562366.783    21562366.3554   21562369.7904  113311035.052 8  88294336.21246
      1926.518        1501.171
  23799219.738    23799219.0284   23799221.1914  125065750.349 6  97453861.12643
      3410.185        2657.278
  23896056.779    23896055.4144   23896059.7904  125574637.722 5  97850387.41641
      1148.721         895.106
  21708371.319    21708371.4724   21708374.1004  114078277.290 7  88892196.02145
         0.558           0.438
  20401219.518    20401218.8654   20401221.0654  107209171.783 8  83539640.51547
      -340.418        -265.276
  23709096.821    23709096.3874   23709097.7584  124592153.982 6  97084815.33443
      2367.441        1844.763
  22188272.667    22188272.4774   22188272.5644  116600189.852 7  90857310.37645
     -2511.491       -1957.008
  22990367.101    22990366.6734   22990370.6124  120815218.083 7  94141747.07044
      -159.750        -124.469
  22445402.800    22445402.5794   22445404.5264  117951419.225 7  91910217.35645
      2277.926        1775.004
  24649901.095    24649901.0874   24649904.9254  129536118.487 5 100937256.34241
      3140.602        2447.220
  23668709.791    23668709.3924   23668712.3354  124379927.760 6  96919431.84043
     -3255.456       -2536.712
  24241449.018    24241450.0084   24241451.3304  127389702.121 6  99264728.32043
     -3773.156       -2940.106
 08  5 12  0 58  0.0000000  0 13G 3G 6G 7G10G13G16G21G23G24G25G27G29
                                G31
  22944190.707    22944189.9124   22944193.3614  120572551.995 6  93952663.88943
      3586.009        2794.271
  21551414.255    21551413.8674   21551416.9984  113253479.021 7  88249487.55246
      1910.555        1488.741
  23779772.381    23779771.8534   23779774.3924  124963553.320 6  97374227.07543
      3403.036        2651.722
  23889556.333    23889555.2514   23889558.0864  125540477.373 5  97823768.94041
      1128.628         879.464
  21708433.909    21708433.8974   21708436.0804  114078603.371 8  88892450.11845
       -22.259         -17.347
  20403213.355    20403212.7164   20403214.8824  107219650.732 8  83547806.17847
      -358.176        -279.108
  23695617.248    23695616.4944   23695619.1044  124521319.441 6  97029619.47743
      2354.874        1834.966
  22202659.278    22202659.0014   22202659.6594  116675791.343 7  90916220.59245
     -2528.556       -1970.294
  22991338.167    22991337.7084   22991340.4234  120820316.932 6  94145719.31843
      -180.138        -140.313
  22432435.081    22432434.5684   22432437.2074  117883270.841 7  91857114.71845
      2265.268        1765.140
  24631985.664    24631984.6634   24631988.9364  129441968.964 5 100863893.14141
      3135.959        2443.602
  23687323.049    23687323.1674   23687325.5664  124477741.127 6  96995650.00243
     -3265.351       -2544.442
  24263001.786    24263002.2064   24263004.4264  127502966.194 5  99352986.04642
     -3777.777       -2943.721
 08  5 12  0 58 30.0000000  0 13G 3G 6G 7G10G13G16G21G23G24G25G27G29
                                G31
  22923743.967    22923743.9164   22923747.0354  120465106.695 6  93868940.33243
      3576.994        2787.250
  21540552.915    21540552.5204   21540555.7244  113196403.731 8  88205013.40846
      1894.531        1476.249
  23760365.900    23760365.8794   23760368.9074  124861575.510 6  97294763.87443
      3395.614        2645.927
  23883170.907    23883169.9724   23883173.6804  125506922.074 5  97797621.96041
      1108.445         863.734
  21708626.795    21708626.5944   21708628.7214  114079616.371 7  88893239.48345
       -45.219         -35.235
  20405308.982    20405308.3164   20405310.3654  107230663.806 8  83556387.99147
      -375.969        -292.965
  23682210.187    23682209.5014   23682211.8154  124450864.397 6  96974719.41343
      2342.147        1825.050
  22217143.876    22217143.3694   22217144.1214  116751906.145 7  90975530.53245
     -2545.759       -1983.730
  22992425.822    22992425.3044   22992429.4604  120826032.650 6  94150172.36843
      -200.834        -156.481
  22419538.781    22419538.2994   22419541.8784  117815504.857 7  91804310.08445
      2252.498        1755.192
  24614095.176    24614095.0364   24614099.2494  129347958.578 5 100790638.42441
      3131.324        2439.987
  23705992.129    23705992.7714   23705995.1284  124575851.929 6  97072100.41343
     -3275.249       -2552.177
  24284583.439    24284583.5564   24284584.8754  127616370.360 6  99441352.95642
     -3782.451       -2947.362
 08  5 12  0 59  0.0000000  0 13G 3G 6G 7G10G13G16G21G23G24G25G27G29
                                G31
  22903349.375    22903348.2594   22903351.9624  120357929.345 6  93785425.56043
      3568.104        2780.352
  21529783.205    21529782.8574   21529785.9794  113139808.471 8  88160913.30046
      1878.556        1463.816
  23741001.671    23741001.3654   23741004.2044  124759816.751 5  97215471.43042
      3388.297        2640.226
  23876900.953    23876899.7674   23876904.5474  125473970.433 5  97771945.32741
      1088.402         848.096
  21708949.654    21708949.7054   21708951.8314  114081313.728 8  88894562.11645
       -67.954         -52.945
  20407505.750    20407505.1164   20407507.1934  107242207.981 8  83565383.43747
      -393.599        -306.693
  23668874.813    23668874.8884   23668876.7734  124380788.607 6  96920114.82743
      2329.559        1815.260
  22231724.971    22231724.3474   22231724.9494  116828530.467 7  91035237.91045
     -2562.518       -1996.763
  22993631.084    22993630.2394   22993634.2694  120832365.353 6  94155107.74043
      -221.340        -172.520
  22406717.058    22406716.3354   22406718.6524  117748120.879 7  91751803.09945
      2239.793        1745.296
  24596232.619    24596232.1024   24596235.3664  129254086.770 5 100717491.60641
      3126.776        2436.479
  23724716.914    23724717.3204   23724719.6604  124674254.078 6  97148777.77043
     -3284.833       -2559.612
  24306190.387    24306189.5504   24306191.8234  127729909.658 6  99529825.13643
     -3786.856       -2950.800
 08  5 12  0 59 30.0000000  0 13G 3G 6G 7G10G13G16G21G23G24G25G27G29
                                G31
  22883004.830    22883004.5774   22883008.3254  120251021.085 6  93702120.35143
      3559.186        2773.392
  21519104.960    21519104.4194   21519107.6884  113083693.459 8  88117187.32946
      1862.540        1451.337
  23721679.713    23721679.8434   23721682.5044  124658278.109 6  97136350.36643
      3381.035        2634.585
  23870745.071    23870744.2524   23870748.6604  125441622.855 5  97746739.32242
      1068.227         832.394
  21709403.285    21709402.8364   21709404.9784  114083694.554 7  88896417.24845
       -90.697         -70.666
  20409803.532    20409802.8444   20409804.7594  107254280.402 8  83574789.74147
      -410.820        -319.897
  23655613.032    23655612.5144   23655614.4204  124311093.538 6  96865806.98143
      2316.906        1805.382
  22246401.852    22246401.5364   22246401.9454  116905659.892 7  91095338.75944
     -2579.343       -2009.893
  22994952.732    22994951.9304   22994955.7584  120839310.304 6  94160519.94444
      -241.646        -188.294
  22393966.199    22393965.9424   22393969.4184  117681119.557 7  91699594.19345
      2227.014        1735.344
  24578395.915    24578394.8774   24578399.9544  129160354.004 5 100644453.04341
      3122.114        2432.825
  23743497.963    23743498.1654   23743500.2664  124772942.910 6  97225678.12943
     -3294.304       -2566.965
  24327819.692    24327819.4694   24327821.9804  127843581.506 5  99618400.46542
     -3791.271       -2954.219
 08  5 12  1  0  0.0000000  0 13G 3G 6G 7G10G13G16G21G23G24G25G27G29
                                G31
  22862713.437    22862712.7164   22862716.0774  120144386.256 6  93619028.34643
      3549.977        2766.215
  21508518.446    21508518.0364   21508521.0194  113028061.731 8  88073838.06646
      1846.356        1438.719
  23702399.648    23702400.4384   23702401.5924  124556963.136 6  97057403.73042
      3373.519        2628.710
  23864705.397    23864704.4204   23864708.3104  125409881.894 5  97722006.21342
      1048.003         816.601
  21709986.401    21709986.1674   21709988.3354  114086760.234 8  88898806.15445
      -113.559         -88.492
  20412202.847    20412202.0944   20412204.4994  107266884.097 8  83584610.01847
      -428.986        -334.290
  23642423.555    23642423.1214   23642424.8224  124241782.761 6  96811798.75443
      2303.969        1795.286
  22261175.510    22261174.7174   22261175.2274  116983293.185 7  91155832.40645
     -2596.088       -2022.930
  22996389.911    22996389.7844   22996393.8034  120846867.932 6  94166409.00044
      -262.095        -204.217
  22381289.953    22381289.5584   22381292.4004  117614504.212 7  91647686.23245
      2214.077        1725.250
  24560585.710    24560585.7384   24560589.0164  129066763.585 5 100571525.57841
      3117.343        2429.108
  23762332.010    23762332.2434   23762334.8054  124871918.406 6  97302801.85243
     -3303.962       -2574.531
  24349477.061    24349476.9194   24349478.4684  127957385.548 6  99707079.07442
     -3795.585       -2957.600
 08  5 12  1  0 30.0000000  0 13G 3G 6G 7G10G13G16G21G23G24G25G27G29
                                G31
  22842473.366    22842473.1524   22842475.9284  120038026.372 6  93536150.55143
      3540.579        2758.901
  21498024.238    21498023.5444   21498026.6064  112972914.292 8  88030866.14346
      1830.036        1425.993
  23683162.607    23683163.0454   23683164.9004  124455873.743 5  96978632.81542
      3365.714        2622.620
  23858780.808    23858780.1614   23858783.6484  125378748.250 5  97697746.22942
      1027.541         800.670
  21710699.765    21710699.7594   21710701.6814  114090510.368 7  88901728.36445
      -136.493        -106.362
  20414702.041    20414701.3264   20414703.6114  107280020.266 8  83594846.64947
      -446.835        -348.228
  23629306.888    23629307.1224   23629309.2894  124172857.306 6  96758090.14643
      2290.967        1785.185
  22276043.484    22276043.0724   22276043.8364  117061426.394 7  91216715.29345
     -2612.799       -2035.933
  22997944.295    22997944.0804   22997948.4544  120855038.836 6  94172775.90243
      -282.747        -220.342
  22368687.591    22368687.0314   22368689.3434  117548276.168 7  91596079.98345
      2201.001        1715.063
  24542803.347    24542803.0104   24542806.2184  128973316.689 5 100498709.86841
      3112.314        2425.160
  23781219.926    23781219.8114   23781222.9974  124971178.535 6  97380147.72143
     -3313.427       -2581.898
  24371156.850    24371156.9844   24371159.1144  128071319.329 5  99795858.58342
     -3800.010       -2961.041
 08  5 12  1  1  0.0000000  0 13G 3G 6G 7G10G13G16G21G23G24G25G27G29
                                G31
  22822286.748    22822285.9484   22822289.5334  119931943.625 6  93453488.65443
      3531.403        2751.753
  21487621.960    21487621.6394   21487624.7294  112918251.551 8  87988271.84946
      1813.918        1413.442
  23663969.416    23663969.4444   23663972.3304  124355011.114 6  96900038.58143
      3358.216        2616.799
  23852972.527    23852970.3014   23852975.1144  125348222.675 6  97673960.01942
      1007.336         784.930
  21711543.398    21711543.2334   21711545.1534  114094943.590 8  88905182.77045
      -159.230        -124.074
  20417301.749    20417301.2264   20417303.2174  107293684.282 8  83605494.36647
      -464.246        -361.720
  23616265.149    23616264.8074   23616267.5894  124104320.033 6  96704684.27343
      2278.034        1775.082
  22291006.239    22291005.7524   22291006.5644  117140056.802 7  91277985.49044
     -2629.342       -2048.835
  22999615.469    22999615.0964   22999619.4034  120863822.548 6  94179620.64743
      -303.038        -236.143
  22356158.475    22356157.9244   22356161.0824  117482436.381 7  91544776.24545
      2188.106        1705.013
  24525048.539    24525047.4484   24525051.8324  128880014.217 5 100426006.63541
      3107.582        2421.476
  23800161.679    23800162.0624   23800165.0304  125070718.451 6  97457711.24643
     -3322.718       -2589.139
  24392861.353    24392861.3554   24392864.0644  128185379.739 5  99884736.79542
     -3804.159       -2964.281
 08  5 12  1  1 30.0000000  0 13G 3G 6G 7G10G13G16G21G23G24G25G27G29
                                G31
  22802152.743    22802152.5184   22802156.0274  119826142.627 6  93371046.34343
      3522.054        2744.477
  21477313.245    21477312.6764   21477315.6974  112864077.647 8  87946058.43046
      1797.692        1400.799
  23644819.857    23644820.0174   23644823.4324  124254380.575 6  96821625.27643
      3350.518        2610.804
  23847279.685    23847278.3604   23847282.7424  125318309.124 5  97650650.77542
       986.961         769.053
  21712517.069    21712517.3164   21712519.3974  114100063.051 7  88909171.98845
      -182.041        -141.848
  20420002.959    20420002.3694   20420004.4014  107307878.278 8  83616554.55747
      -481.899        -375.500
  23603298.022    23603297.5194   23603300.0944  124036175.950 6  96651585.13343
      2264.963        1764.909
  22306064.222    22306063.7204   22306064.3274  117219185.243 7  91339644.11345
     -2645.855       -2061.715
  23001405.024    23001404.0944   23001407.5184  120873220.394 6  94186943.68943
      -323.438        -252.021
  22343704.059    22343703.8834   22343706.2624  117416989.596 7  91493778.79245
      2175.014        1694.818
  24507322.505    24507321.0424   24507325.8654  128786860.767 5 100353419.64942
      3102.654        2417.659
  23819156.743    23819157.0664   23819159.5594  125170539.157 6  97535493.64843
     -3331.927       -2596.288
  24414592.541    24414591.8044   24414593.2704  128299567.939 5  99973714.65342
     -3808.296       -2967.512
 08  5 12  1  2  0.0000000  0 13G 3G 6G 7G10G13G16G21G23G24G25G27G29
                                G31
  22782073.545    22782072.8774   22782077.3174  119720622.845 6  93288823.10043
      3512.625        2737.107
  21467097.097    21467096.5514   21467099.4534  112810390.837 7  87904224.45146
      1781.450        1388.152
  23625715.394    23625714.4944   23625717.8144  124153981.147 6  96743392.04543
      3342.783        2604.779
  23841703.112    23841702.5304   23841706.8654  125289005.832 5  97627817.07742
       966.641         753.217
  21713621.443    21713621.4654   21713623.7844  114105865.673 7  88913693.52245
      -204.781        -159.570
  20422804.399    20422803.7544   20422805.8774  107322599.641 8  83628025.67847
      -499.459        -389.195
  23590404.264    23590403.9064   23590406.4514  123968424.283 6  96598791.90543
      2251.872        1754.701
  22321215.263    22321214.8504   22321215.5114  117298805.167 7  91401685.51745
     -2662.116       -2074.367
  23003309.529    23003309.0844   23003312.9834  120883229.382 7  94194742.80143
      -343.815        -267.905
  22331324.713    22331324.0924   22331326.8804  117351934.305 7  91443086.37745
      2162.002        1684.679
  24489623.878    24489622.9214   24489627.0154  128693854.819 5 100280947.50442
      3097.801        2413.877
  23838204.910    23838205.0424   23838207.5894  125270634.507 6  97613489.86543
     -3340.997       -2603.377
  24436344.548    24436343.9974   24436346.1324  128413879.069 5 100062788.28443
     -3812.354       -2970.680
 08  5 12  1  2 30.0000000  0 13G 3G 6G 7G10G13G16G21G23G24G25G27G29
                                G31
  22762048.391    22762048.2154   22762051.0374  119615389.178 6  93206822.85943
      3503.117        2729.695
  21456974.168    21456973.5694   21456976.6814  112757194.033 8  87862772.20246
      1765.143        1375.439
  23606654.228    23606653.7624   23606655.2674  124053816.689 6  96665341.80843
      3334.908        2598.624
  23836243.293    23836242.3174   23836246.7854  125260315.825 5  97605461.24242
       946.222         737.310
  21714856.038    21714855.8784   21714858.3744  114112352.727 8  88918748.36045
      -227.542        -177.303
  20425706.438    20425705.7584   20425707.7994  107337849.165 8  83639908.32047
      -516.992        -402.835
  23577587.103    23577587.0214   23577589.6904  123901067.940 6  96546306.60843
      2238.686        1744.413
  22336459.652    22336459.2404   22336460.3124  117378914.991 7  91464108.46644
     -2678.389       -2087.052
  23005330.444    23005329.7654   23005334.5394  120893851.624 6  94203020.06144
      -364.175        -283.772
  22319020.133    22319019.6094   22319022.6624  117287274.113 7  91392701.83245
      2148.843        1674.423
  24471954.159    24471953.0264   24471957.4334  128600999.797 5 100208592.94241
      3092.729        2409.916
  23857304.903    23857304.5504   23857307.7734  125371004.375 6  97691700.16543
     -3350.177       -2610.533
  24458120.254    24458120.1544   24458122.1864  128528312.916 5 100151957.48542
     -3816.387       -2973.822
 08  5 12  1  3  0.0000000  0 13G 3G 6G 7G10G13G16G21G23G24G25G27G29
                                G31
  22742077.890    22742077.1514   22742080.5234  119510441.541 6  93125045.34143
      3493.484        2722.194
  21446944.288    21446943.9524   21446947.1774  112704488.179 8  87821702.69346
      1748.646        1362.581
  23587638.343    23587638.0794   23587640.5234  123953888.274 6  96587475.55542
      3326.857        2592.345
  23830900.060    23830899.2004   23830903.9564  125232238.682 5  97583582.97542
       925.663         721.264
  21716220.449    21716220.4984   21716222.7324  114119523.082 8  88924335.68645
      -250.409        -195.128
  20428708.415    20428707.8264   20428710.0204  107353625.339 8  83652201.37847
      -534.674        -416.643
  23564845.287    23564844.3804   23564846.5464  123834108.292 6  96494130.41543
      2225.329        1734.025
  22351797.326    22351796.5764   22351797.8354  117459511.900 7  91526911.17745
     -2694.679       -2099.756
  23007467.747    23007467.0674   23007471.3524  120905084.440 6  94211772.90343
      -384.597        -299.687
  22306790.997    22306790.4204   22306793.1554  117223009.695 7  91342625.68145
      2135.542        1664.058
  24454312.693    24454311.9464   24454316.8894  128508296.417 5 100136356.58041
      3087.539        2405.903
  23876456.412    23876456.0494   23876458.2034  125471644.636 6  97770121.22543
     -3359.165       -2617.533
  24479919.334    24479919.0844   24479920.9214  128642865.491 5 100241219.27342
     -3820.358       -2976.902
 08  5 12  1  3 30.0000000  0 13G 3G 6G 7G10G13G16G21G23G24G25G27G29
                                G31
  22722162.354    22722161.6374   22722164.8694  119405784.813 6  93043494.62443
      3483.746        2714.613
  21437008.668    21437008.1384   21437011.3414  112652275.435 8  87781017.50446
      1732.251        1349.804
  23568668.447    23568668.1944   23568670.4404  123854199.366 6  96509795.91643
      3318.985        2586.230
  23825674.976    23825673.6974   23825678.2364  125204777.275 5  97562184.49042
       905.150         705.319
  21717715.095    21717714.9994   21717717.2744  114127377.650 7  88930456.17745
      -273.168        -212.856
  20431810.776    20431810.2204   20431812.2614  107369929.504 8  83664906.24347
      -552.184        -430.279
  23552179.473    23552178.3984   23552180.8954  123767548.981 6  96442266.16243
      2212.000        1723.635
  22367226.332    22367225.5874   22367226.7984  117540594.685 7  91590092.86544
     -2710.769       -2112.302
  23009721.753    23009721.3994   23009725.4074  120916929.371 6  94221002.81043
      -404.979        -315.565
  22294638.105    22294637.3654   22294640.0444  117159143.921 7  91292860.14645
      2122.275        1653.721
  24436700.846    24436700.6474   24436704.4774  128415747.507 5 100064240.58241
      3082.404        2401.863
  23895657.994    23895657.8624   23895659.8804  125572554.119 6  97848751.93643
     -3368.085       -2624.472
  24501738.149    24501738.8454   24501740.4984  128757536.668 5 100330573.46042
     -3824.334       -2979.973
 08  5 12  1  4  0.0000000  0 13G 3G 6G 7G10G13G16G21G23G24G25G27G29
                                G31
  22702301.937    22702301.2074   22702304.9504  119301420.285 6  92962171.73743
      3473.912        2706.957
  21427166.712    21427166.2544   21427169.4274  112600556.341 7  87740716.98446
      1715.719        1336.918
  23549743.256    23549743.8534   23549746.3344  123754751.572 6  96432304.19643
      3310.900        2579.915
  23820564.999    23820564.0254   23820568.6674  125177931.569 5  97541265.76942
       884.628         689.341
  21719340.184    21719339.8434   21719341.5564  114135915.234 8  88937108.83445
      -295.995        -230.642
  20435013.300    20435012.6394   20435014.6684  107386758.724 8  83678020.00347
      -569.771        -443.975
  23539590.061    23539589.5164   23539591.3174  123701391.161 6  96390714.70843
      2198.519        1713.122
  22382747.189    22382746.5964   22382747.2994  117622159.539 7  91653650.35944
     -2726.828       -2124.813
  23012092.555    23012091.4434   23012095.3414  120929384.905 7  94230708.42943
      -425.371        -331.446
  22282560.489    22282560.2554   22282563.0464  117095677.918 7  91243406.13245
      2108.815        1643.236
  24419119.044    24419118.5834   24419122.8914  128323354.060 5  99992245.72542
      3077.122        2397.761
  23914911.191    23914911.0694   23914914.0184  125673729.510 6  97927589.86843
     -3376.896       -2631.352
  24523583.556    24523583.2944   24523585.3284  128872323.512 5 100420017.76342
     -3828.166       -2982.978
 08  5 12  1  4 30.0000000  0 13G 3G 6G 7G10G13G16G21G23G24G25G27G29
                                G31
  22682498.220    22682498.0514   22682501.4364  119197352.548 6  92881080.10944
      3464.032        2699.255
  21417419.320    21417418.9924   21417422.1304  112549334.299 8  87700803.68546
      1699.191        1324.044
  23530866.214    23530865.9514   23530868.6384  123655549.435 6  96355003.93743
      3302.667        2573.514
  23815574.878    23815573.6804   23815578.8114  125151704.915 5  97520829.45142
       863.972         673.199
  21721094.985    21721094.7924   21721096.2504  114145138.140 7  88944295.54945
      -318.766        -248.395
  20438316.037    20438315.5234   20438317.6714  107404115.118 8  83691544.29747
      -587.256        -457.606
  23527077.858    23527076.8844   23527079.0954  123635639.280 6  96339479.56243
      2185.022        1702.610
  22398360.016    22398359.3894   22398359.6984  117704205.180 7  91717582.35144
     -2742.740       -2137.211
  23014578.676    23014578.2334   23014582.4544  120942453.555 6  94240891.98443
      -445.730        -347.314
  22270559.848    22270559.4864   22270562.6994  117032615.700 7  91194266.77145
      2095.415        1632.787
  24401568.074    24401567.5184   24401571.8834  128231119.867 5  99920374.96342
      3071.875        2393.672
  23934215.451    23934215.1874   23934217.8514  125775170.604 6  98006634.76743
     -3385.698       -2638.199
  24545448.028    24545447.5184   24545450.4934  128987226.696 5 100509552.69642
     -3831.909       -2985.912
 08  5 12  1  5  0.0000000  0 13G 3G 6G 7G10G13G16G21G23G24G25G27G29
                                G31
  22662751.661    22662750.8774   22662754.2064  119093581.341 6  92800219.52344
      3453.963        2691.401
  21407766.484    21407766.1614   21407769.3254  112498608.173 7  87661276.88646
      1682.441        1310.988
  23512034.703    23512034.9034   23512037.6744  123556592.345 6  96277894.56743
      3294.353        2567.027
  23810701.998    23810700.4234   23810706.1604  125126096.066 5  97500874.51442
       843.195         657.030
  21722979.818    21722979.6954   21722981.4484  114155043.208 7  88952013.80845
      -341.677        -266.248
  20441718.920    20441718.2704   20441720.5194  107421995.329 8  83705476.59747
      -604.938        -471.397
  23514643.069    23514642.1734   23514643.9544  123570293.764 6  96288561.03243
      2171.240        1691.874
  22414063.070    22414062.4094   22414062.8584  117786726.038 7  91781884.46544
     -2758.734       -2149.678
  23017181.274    23017180.5904   23017185.5324  120956131.414 6  94251549.97643
      -466.230        -363.294
  22258636.867    22258636.2324   22258638.7914  116969956.234 7  91145441.22445
      2081.760        1622.148
  24384046.665    24384045.9324   24384050.6174  128139044.298 5  99848627.82942
      3066.406        2389.418
  23953567.855    23953567.5744   23953571.6224  125876872.235 5  98085882.71743
     -3394.487       -2645.062
  24567335.394    24567334.9564   24567336.6414  129102241.421 5 100599174.55842
     -3835.821       -2988.939
 08  5 12  1  5 30.0000000  0 13G 3G 6G 7G10G13G16G21G23G24G25G27G29
                                G31
  22643060.860    22643060.6334   22643064.0814  118990109.216 6  92719591.94843
      3444.110        2683.715
  21398208.025    21398207.8584   21398211.0534  112448379.270 7  87622137.54246
      1666.054        1298.223
  23493251.829    23493251.8784   23493254.0934  123457882.785 6  96200978.07143
      3286.177        2560.652
  23805946.809    23805945.6934   23805949.2734  125101105.848 5  97481401.65141
       822.660         641.049
  21724994.521    21724994.4404   21724996.5474  114165630.217 7  88960263.42845
      -364.232        -283.818
  20445221.148    20445220.5484   20445222.7604  107440400.028 8  83719817.94347
      -622.195        -484.838
  23502285.842    23502284.9474   23502286.8754  123505356.544 6  96237960.63343
      2157.762        1681.375
  22429856.539    22429855.8034   22429855.7814  117869719.890 7  91846555.01044
     -2774.288       -2161.779
  23019900.816    23019900.3304   23019904.1264  120970418.383 6  94262682.60743
      -486.316        -378.938
  22246789.845    22246789.6374   22246792.3094  116907701.709 7  91096931.23945
      2068.423        1611.760
  24366555.809    24366554.6894   24366558.7664  128047129.043 5  99777005.61242
      3061.258        2385.398
  23972970.915    23972970.7474   23972973.7034  125978831.874 6  98165331.69543
     -3402.857       -2651.578
  24589242.434    24589242.6754   24589244.2184  129217365.982 5 100688882.06042
     -3839.274       -2991.621
 08  5 12  1  6  0.0000000  0 13G 3G 6G 7G10G13G16G21G23G24G25G27G29
                                G31
  22623429.175    22623428.1124   22623432.2364  118886939.314 6  92639199.84644
      3434.042        2675.883
  21388744.952    21388744.4764   21388747.7524  112398649.822 8  87583387.39046
      1649.417        1285.257
  23474515.385    23474515.2024   23474517.5664  123359423.983 6  96124256.95443
      3277.823        2554.148
  23801308.399    23801308.0884   23801312.7714  125076736.310 5  97462412.42141
       802.001         624.946
  21727139.350    21727139.2094   21727141.1984  114176899.915 8  88969045.01945
      -386.933        -301.509
  20448823.068    20448822.3594   20448824.5344  107459329.088 8  83734568.15147
      -639.592        -498.392
  23490006.540    23490006.1534   23490007.9584  123440830.269 6  96187680.43743
      2144.089        1670.720
  22445738.885    22445738.6514   22445738.8804  117953184.991 7  91911592.75244
     -2789.901       -2173.944
  23022735.781    23022735.0774   23022738.7504  120985315.060 6  94274290.36743
      -506.618        -394.770
  22235020.763    22235020.5384   22235022.9714  116845854.553 7  91048738.67045
      2054.828        1601.162
  24349096.209    24349094.7124   24349098.7844  127955376.876 5  99705510.47042
      3055.743        2381.101
  23992422.221    23992421.8654   23992423.7644  126081047.868 6  98244980.41043
     -3411.309       -2658.156
  24611171.160    24611170.5274   24611173.1444  129332599.037 5 100778674.02742
     -3842.836       -2994.411
 08  5 12  1  6 30.0000000  0 13G 3G 6G 7G10G13G16G21G23G24G25G27G29
                                G31
  22603854.464    22603853.6364   22603857.7374  118784074.293 6  92559045.31844
      3423.850        2667.927
  21379377.310    21379376.6944   21379379.8714  112349421.321 7  87545027.53746
      1632.709        1272.242
  23455827.311    23455827.3414   23455829.5994  123261218.354 6  96047733.12143
      3269.387        2547.563
  23796789.399    23796789.1494   23796794.9444  125052988.738 5  97443907.85942
       781.283         608.801
  21729413.649    21729413.6734   21729415.7214  114188852.114 7  88978358.40445
      -409.694        -319.240
  20452524.807    20452524.0584   20452526.1524  107478781.622 8  83749725.98347
      -657.037        -511.979
  23477806.079    23477805.4044   23477807.5924  123376717.711 6  96137722.56043
      2130.293        1659.969
  22461711.094    22461710.6954   22461711.1464  118037118.768 7  91976995.66144
     -2805.457       -2186.071
  23025686.316    23025685.2654   23025689.6164  121000821.222 6  94286373.00243
      -526.913        -410.571
  22223329.554    22223329.0254   22223331.8024  116784416.976 7  91000865.25445
      2041.174        1590.528
  24331667.786    24331666.4954   24331670.3724  127863789.995 5  99634144.12642
      3050.191        2376.769
  24011921.358    24011921.7154   24011923.9944  126183517.949 6  98324827.09443
     -3419.794       -2664.769
  24633118.965    24633119.0394   24633120.8654  129447939.064 5 100868549.38942
     -3846.275       -2997.105
 08  5 12  1  7  0.0000000  0 13G 3G 6G 7G10G13G16G21G23G24G25G27G29
                                G31
  22584338.491    22584337.7074   22584340.6844  118681517.223 6  92479130.66244
      3413.319        2659.735
  21370104.982    21370104.6104   21370107.6074  112300695.327 8  87507059.14446
      1615.723        1259.004
  23437188.312    23437188.2214   23437190.1934  123163268.756 6  95971408.81043
      3260.645        2540.762
  23792389.703    23792388.7294   23792394.2974  125029864.876 5  97425889.26542
       760.334         592.479
  21731817.924    21731817.7754   21731819.7534  114201487.296 7  88988204.01245
      -432.656        -337.139
  20456326.005    20456325.2914   20456327.3384  107498757.809 9  83765291.94447
      -674.659        -525.713
  23465685.321    23465684.4874   23465687.3654  123313021.342 6  96088089.06443
      2116.172        1648.962
  22477772.185    22477771.5744   22477771.9004  118121518.966 7  92042762.03644
     -2821.177       -2198.325
  23028752.740    23028752.3854   23028756.4084  121016937.022 6  94298930.73443
      -547.399        -426.540
  22211716.798    22211716.3854   22211719.1824  116723391.277 7  90953312.77745
      2027.223        1579.652
  24314271.117    24314269.9264   24314274.0254  127772370.418 5  99562908.16142
      3044.413        2372.258
  24031469.260    24031469.0524   24031470.7514  126286240.854 6  98404870.88943
     -3428.333       -2671.428
  24655088.188    24655087.6994   24655089.0954  129563384.804 5 100958507.13442
     -3850.060       -3000.060
 08  5 12  1  7 30.0000000  0 13G 3G 6G 7G10G13G16G21G23G24G25G27G29
                                G31
  22564880.726    22564880.2934   22564884.4914  118579271.381 6  92399458.61944
      3402.999        2651.690
  21360928.687    21360928.3514   21360931.4434  112252473.398 8  87469483.53446
      1599.007        1245.981
  23418598.926    23418598.6334   23418600.7594  123065577.774 6  95895285.98644
      3252.108        2534.113
  23788108.480    23788107.4884   23788112.5474  125007365.277 5  97408357.14142
       739.589         576.300
  21734351.791    21734351.8934   21734354.0064  114214804.764 7  88998581.27245
      -455.251        -354.742
  20460226.716    20460226.0824   20460228.0704  107519256.681 8  83781265.16547
      -691.962        -539.191
  23453643.957    23453643.4484   23453645.0474  123249744.053 6  96038782.07843
      2102.299        1638.150
  22493920.985    22493920.3414   22493921.1304  118206383.196 7  92108889.99944
     -2836.457       -2210.227
  23031935.504    23031935.0394   23031939.0324  121033662.120 7  94311963.26843
      -567.615        -442.300
  22200182.278    22200181.8444   22200184.6044  116662779.297 7  90906082.70845
      2013.529        1568.977
  24296906.854    24296905.9474   24296909.7464  127681120.082 6  99491804.05242
      3038.888        2367.970
  24051063.756    24051063.1034   24051065.3014  126389213.767 5  98485109.50342
     -3436.444       -2677.741
  24677076.186    24677075.6994   24677078.9164  129678934.344 5 101048545.79242
     -3853.297       -3002.585
 08  5 12  1  8  0.0000000  0 13G 3G 6G 7G10G13G16G21G23G24G25G27G29
                                G31
  22545483.442    22545482.7614   22545486.8774  118477337.200 6  92320029.37544
      3392.548        2643.535
  21351848.350    21351847.7344   21351851.0614  112204755.470 8  87432300.77046
      1582.097        1232.795
  23400058.267    23400057.7964   23400060.4924  122968145.926 6  95819365.07844
      3243.293        2527.238
  23783945.863    23783944.6414   23783949.2934  124985489.889 5  97391311.38442
       718.734         560.047
  21737015.505    21737015.2024   21737017.6984  114228802.386 7  89009488.52145
      -477.977        -372.452
  20464226.591    20464225.9654   20464228.0904  107540275.112 8  83797642.79647
      -709.308        -552.697
  23441682.565    23441682.2794   23441684.3344  123186885.745 6  95989801.38443
      2088.208        1627.179
  22510157.223    22510156.9604   22510157.7564  118291706.584 7  92175375.73844
     -2851.774       -2222.159
  23035233.827    23035233.6134   23035237.4154  121050993.960 6  94325468.50143
      -587.889        -458.087
  22188727.169    22188726.9674   22188729.4354  116602581.171 7  90859175.07645
      1999.647        1558.169
  24279573.817    24279574.1754   24279577.6354  127590038.945 6  99420831.75342
      3033.166        2363.499
  24070705.138    24070705.9654   24070708.6224  126492432.770 5  98565539.89542
     -3444.756       -2684.215
  24699084.177    24699084.1284   24699086.7064  129794583.819 5 101138662.20542
     -3856.643       -3005.185
 08  5 12  1  8 30.0000000  0 13G 3G 6G 7G10G13G16G21G23G24G25G27G29
                                G31
  22526146.710    22526146.3344   22526149.6194  118375719.073 7  92240846.37144
      3381.937        2635.287
  21342864.368    21342863.8214   21342867.0534  112157545.123 8  87395513.63146
      1565.139        1219.585
  23381566.950    23381567.0694   23381569.5734  122870977.992 6  95743649.87143
      3234.379        2520.296
  23779903.003    23779901.6564   23779906.1494  124964241.771 6  97374754.43242
       697.755         543.719
  21739809.155    21739808.7074   21739810.9794  114243482.454 7  89020927.55245
      -500.761        -390.203
  20468325.714    20468325.1074   20468327.2354  107561817.645 8  83814429.54047
      -726.861        -566.398
  23429801.523    23429801.4164   23429803.5694  123124451.575 6  95941151.39143
      2073.977        1616.077
  22526480.729    22526480.1734   22526481.1094  118377488.915 7  92242219.03444
     -2867.102       -2234.096
  23038647.809    23038647.4264   23038651.3994  121068934.496 6  94339448.08043
      -608.228        -473.944
  22177351.273    22177350.8624   22177353.8544  116542800.966 7  90812593.11445
      1985.606        1547.231
  24262275.140    24262274.7224   24262277.6734  127499131.522 5  99349994.86542
      3027.224        2358.878
  24090394.361    24090394.1334   24090397.5144  126595897.522 5  98646161.80042
     -3452.981       -2690.632
  24721109.809    24721109.2214   24721111.8164  129910334.350 5 101228857.45042
     -3860.066       -3007.857
 08  5 12  1  9  0.0000000  0 13G 3G 6G 7G10G13G16G21G23G24G25G27G29
                                G31
  22506870.833    22506869.7864   22506873.3674  118274420.209 6  92161912.08844
      3371.306        2626.991
  21333977.448    21333977.1004   21333979.9994  112110844.315 8  87359123.47846
      1548.232        1206.415
  23363127.788    23363127.7744   23363129.3964  122774076.890 6  95668142.57144
      3225.577        2513.434
  23775979.437    23775978.7194   23775982.2714  124943623.026 6  97358687.87442
       676.781         527.369
  21742732.670    21742732.4644   21742734.7194  114258845.383 7  89032898.65045
      -523.459        -407.889
  20472524.475    20472523.7834   20472525.9264  107583882.502 8  83831623.09147
      -744.168        -579.872
  23418002.806    23418002.3284   23418004.8124  123062444.894 6  95892834.59243
      2059.769        1605.007
  22542892.926    22542892.1174   22542892.6114  118463728.638 7  92309418.75044
     -2882.191       -2245.871
  23042177.739    23042176.8614   23042181.8044  121087484.282 6  94353902.38343
      -628.473        -489.718
  22166055.790    22166055.2314   22166057.8104  116483441.587 7  90766339.06245
      1971.639        1536.342
  24245009.910    24245009.2694   24245012.9064  127408400.417 6  99279295.36842
      3021.451        2354.380
  24110130.390    24110129.4914   24110131.9534  126699606.541 6  98726973.95143
     -3461.009       -2696.884
  24743156.216    24743155.3204   24743156.8524  130026184.616 5 101319130.44641
     -3863.320       -3010.393
 08  5 12  1  9 30.0000000  0 13G 3G 6G 7G10G13G16G21G23G24G25G27G29
                                G31
  22487654.619    22487654.0604   22487657.4394  118173439.995 6  92083226.06244
      3360.675        2618.703
  21325187.087    21325186.7224   21325189.7174  112064650.693 8  87323128.46546
      1531.382        1193.288
  23344739.041    23344738.4394   23344739.8014  122677442.318 6  95592842.91343
      3216.738        2506.548
  23772175.325    23772174.2174   23772178.0724  124923631.318 6  97343109.91642
       655.968         511.165
  21745785.597    21745785.4814   21745787.0304  114274887.005 7  89045398.60345
      -545.953        -425.423
  20476821.772    20476821.2054   20476823.2574  107606465.565 8  83849220.33347
      -761.307        -593.225
  23406284.740    23406283.3964   23406285.4224  123000864.084 6  95844849.69743
      2045.666        1594.027
  22559388.436    22559388.4124   22559389.3134  118550419.156 7  92376969.82544
     -2897.077       -2257.465
  23045823.120    23045822.0624   23045825.7374  121106639.759 6  94368828.94743
      -648.473        -505.300
  22154839.649    22154839.1114   22154842.2194  116424501.337 7  90720411.60545
      1957.752        1525.520
  24227777.284    24227777.6694   24227780.8284  127317844.293 6  99208732.19542
      3015.766        2349.949
  24129910.682    24129910.1524   24129912.9004  126803553.854 6  98807971.73143
     -3468.791       -2702.959
  24765218.519    24765218.8084   24765220.7424  130142129.415 5 101409477.03142
     -3866.253       -3012.654
 08  5 12  1 10  0.0000000  0 13G 3G 6G 7G10G13G16G21G23G24G25G27G29
                                G31
  22468500.115    22468499.3214   22468502.5784  118072781.616 6  92004791.10344
      3349.849        2610.271
  21316493.768    21316493.1484   21316496.1844  112018965.605 8  87287529.67446
      1514.302        1179.981
  23326400.453    23326400.5544   23326403.4354  122581076.318 6  95517752.55644
      3207.679        2499.487
  23768489.679    23768489.0244   23768493.2374  124904267.027 6  97328020.85342
       634.953         494.767
  21748967.219    21748966.9764   21748968.9724  114291607.216 8  89058427.33745
      -568.686        -443.129
  20481217.778    20481217.1784   20481219.2424  107629566.355 8  83867220.88247
      -778.689        -606.760
  23394646.977    23394646.4254   23394648.1994  122939711.019 6  95797198.01843
      2031.258        1582.794
  22575970.586    22575970.5144   22575971.1304  118637557.848 7  92444870.14244
     -2912.124       -2269.189
  23049582.665    23049582.5004   23049586.4644  121126398.970 6  94384225.45943
      -668.737        -521.085
  22143704.115    22143703.5514   22143706.2274  116365981.862 7  90674812.03345
      1943.561        1514.465
  24210577.828    24210577.6714   24210581.5634  127227464.800 5  99138306.64942
      3009.615        2345.145
  24149736.642    24149736.2634   24149738.4854  126907737.472 6  98889153.76343
     -3476.755       -2709.154
  24787301.259    24787301.1014   24787301.9074  130258166.744 5 101499895.74642
     -3869.505       -3015.190
 08  5 12  1 10 30.0000000  0 13G 3G 6G 7G10G13G16G21G23G24G25G27G29
                                G31
  22449407.261    22449406.3854   22449409.9504  117972447.186 7  91926608.49944
      3339.071        2601.873
  21307896.832    21307896.4554   21307899.5814  111973790.361 8  87252328.21946
      1497.354        1166.769
  23308114.117    23308114.1844   23308116.7594  122484980.935 6  95442873.10344
      3198.667        2492.471
  23764924.807    23764923.6984   23764926.3514  124885530.933 6  97313421.30642
       614.098         478.519
  21752277.887    21752277.7784   21752279.8474  114309005.415 8  89071984.39245
      -591.215        -460.684
  20485712.131    20485711.4764   20485713.6524  107653184.557 8  83885624.73347
      -795.880        -620.173
  23383091.601    23383090.8754   23383093.0424  122878988.190 6  95749881.58843
      2016.953        1571.656
  22592637.190    22592636.6374   22592637.1674  118725142.127 6  92513117.70744
     -2926.870       -2280.682
  23053458.395    23053457.6884   23053461.4404  121146761.857 6  94400092.28243
      -688.802        -536.711
  22132648.381    22132647.7614   22132650.2944  116307885.125 7  90629541.87245
      1929.502        1503.513
  24193413.721    24193412.1684   24193416.2614  127137263.817 5  99068020.22142
      3003.693        2340.537
  24169605.848    24169606.2734   24169608.1994  127012154.138 5  98970517.07243
     -3484.375       -2715.068
  24809397.352    24809398.2604   24809400.3534  130374294.963 5 101590385.35742
     -3872.391       -3017.456
 08  5 12  1 11  0.0000000  0 13G 3G 6G 7G10G13G16G21G23G24G25G27G29
                                G31
  22430376.392    22430375.6714   22430378.6434  117872440.372 7  91848681.03544
      3328.155        2593.376
  21299397.712    21299397.4344   21299400.4794  111929127.829 8  87217526.28646
      1480.274        1153.461
  23289880.815    23289880.5804   23289882.3614  122389160.370 6  95368207.75344
      3189.484        2485.310
  23761479.296    23761478.9664   23761481.8424  124867426.036 6  97299313.57542
       593.069         462.154
  21755717.791    21755717.5854   21755719.6004  114327082.563 8  89086070.47345
      -613.767        -478.260
  20490304.920    20490304.4364   20490306.5114  107677320.991 8  83904432.46447
      -813.102        -633.585
  23371619.148    23371618.5274   23371620.4754  122818699.138 6  95702903.12343
      2002.427        1560.323
  22609388.876    22609388.0964   22609389.1674  118813170.264 7  92581711.05644
     -2941.545       -2292.120
  23057448.465    23057447.5124   23057451.7634  121167731.287 6  94416432.52143
      -709.017        -552.558
  22121674.115    22121673.6454   22121676.3654  116250214.672 7  90584603.88345
      1915.301        1492.442
  24176282.989    24176283.2834   24176286.0924  127047244.727 5  98997875.52942
      2997.569        2335.761
  24189520.303    24189519.8754   24189522.8554  127116803.828 5  99052061.87742
     -3492.149       -2721.158
  24831514.780    24831514.2934   24831515.2174  130490513.895 5 101680945.51041
     -3875.383       -3019.775
 08  5 12  1 11 30.0000000  0 13G 3G 6G 7G10G13G16G21G23G24G25G27G29
                                G31
  22411407.754    22411407.0424   22411411.0094  117772762.769 7  91771010.22444
      3317.046        2584.702
  21290996.420    21290995.9204   21290998.9504  111884977.802 8  87183123.68546
      1463.094        1140.073
  23271698.174    23271698.0564   23271700.4884  122293615.565 6  95293757.27743
      3180.211        2478.083
  23758154.301    23758153.2564   23758156.4414  124849951.626 6  97285697.14542
       571.917         445.658
  21759286.627    21759286.4124   21759288.3464  114345836.883 7  89100684.22145
      -636.424        -495.913
  20494996.363    20494995.6114   20494997.6354  107701973.361 8  83923642.06747
      -830.333        -647.001
  23360229.517    23360228.5314   23360230.5074  122758845.257 6  95656263.78743
      1987.853        1548.969
  22626223.842    22626223.1784   22626223.5794  118901638.578 7  92650647.46744
     -2956.283       -2303.597
  23061552.762    23061552.5134   23061556.5704  121189302.786 6  94433241.59243
      -729.112        -568.141
  22110780.606    22110780.3814   22110783.1684  116192970.690 7  90539998.20445
      1900.980        1481.284
  24159188.404    24159188.3114   24159191.5454  126957408.301 6  98927873.15142
      2991.550        2331.063
  24209478.323    24209478.4854   24209481.3374  127221683.446 5  99133786.31442
     -3499.770       -2727.087
  24853647.412    24853647.6214   24853648.4254  130606820.060 5 101771573.77942
     -3878.322       -3022.089
 08  5 12  1 12  0.0000000  0 13G 3G 6G 7G10G13G16G21G23G24G25G27G29
                                G31
  22392502.390    22392502.1314   22392506.1164  117673417.278 6  91693598.28444
      3305.992        2576.097
  21282692.683    21282692.2834   21282695.4574  111841342.367 8  87149122.03946
      1445.939        1126.703
  23253571.012    23253570.4284   23253571.7914  122198350.017 6  95219524.40743
      3170.851        2470.791
  23754949.434    23754948.4664   23754950.6174  124833109.292 6  97272573.25242
       550.920         429.302
  21762983.979    21762984.0974   21762986.2884  114365268.622 7  89115825.83745
      -658.997        -513.508
  20499785.890    20499785.2154   20499787.2304  107727142.029 8  83943253.89947
      -847.551        -660.430
  23348922.298    23348921.7134   23348923.7264  122699428.985 6  95609965.40843
      1973.229        1537.582
  22643141.887    22643141.2574   22643142.3264  118990544.456 7  92719924.78644
     -2970.804       -2314.912
  23065773.007    23065772.1824   23065776.2814  121211477.655 7  94450520.88343
      -749.211        -583.800
  22099969.446    22099969.0344   22099971.5854  116136156.015 7  90495727.04345
      1886.688        1470.140
  24142128.182    24142127.9874   24142130.8404  126867757.465 6  98858015.37242
      2985.354        2326.244
  24229479.207    24229478.3784   24229482.5274  127326791.421 5  99215688.95842
     -3507.271       -2732.929
  24875795.841    24875794.8184   24875796.5174  130723212.541 5 101862269.21942
     -3881.145       -3024.275
 08  5 12  1 12 30.0000000  0 13G 3G 6G 7G10G13G16G21G23G24G25G27G29
                                G31
  22373662.481    22373661.8194   22373665.0194  117574407.552 7  91616447.88744
      3294.730        2567.323
  21274487.506    21274487.0754   21274490.1714  111798223.376 8  87115522.80646
      1428.698        1113.271
  23235495.940    23235495.7004   23235497.3984  122103366.829 6  95145511.54044
      3161.435        2463.450
  23751864.898    23751863.5084   23751866.4624  124816900.826 6  97259943.25742
       529.722         412.799
  21766810.829    21766810.8834   21766812.9154  114385378.189 7  89131495.63345
      -681.578        -531.095
  20504673.537    20504672.9444   20504675.0104  107752827.099 8  83963268.17147
      -864.719        -673.806
  23337699.977    23337699.2974   23337701.1964  122640453.328 6  95564010.24143
      1958.573        1526.171
  22660142.807    22660142.3914   22660143.5734  119079886.446 6  92789541.94444
     -2985.251       -2326.176
  23070106.939    23070106.4124   23070110.2524  121234255.442 6  94468269.79743
      -769.255        -599.416
  22089239.803    22089239.5634   22089242.3694  116079773.246 7  90451792.43745
      1872.217        1458.874
  24125104.245    24125103.7414   24125107.5714  126778294.662 5  98788304.13542
      2979.061        2321.342
  24249523.576    24249523.3674   24249526.4694  127432125.476 6  99297767.84042
     -3514.878       -2738.886
  24897959.957    24897960.8884   24897963.1094  130839690.534 5 101953031.24342
     -3883.998       -3026.496
 08  5 12  1 13  0.0000000  0 13G 3G 6G 7G10G13G16G21G23G24G25G27G29
                                G31
  22354885.460    22354885.0724   22354887.8424  117475736.290 7  91539561.28344
      3283.345        2558.448
  21266380.835    21266380.4374   21266383.5074  111755622.462 8  87082327.30346
      1411.334        1099.742
  23217474.970    23217474.7184   23217477.1914  122008668.525 6  95071720.68943
      3151.797        2455.947
  23748901.105    23748899.8624   23748903.8814  124801326.820 5  97247807.66241
       508.483         396.218
  21770766.291    21770766.3764   21770768.3904  114406164.638 7  89147692.86845
      -704.199        -548.725
  20509659.560    20509658.8134   20509660.9054  107779028.307 8  83983684.76447
      -882.016        -687.289
  23326561.765    23326561.2104   23326563.5284  122581920.088 6  95518399.45243
      1943.666        1514.556
  22677226.510    22677225.9994   22677226.8574  119169661.819 7  92859496.81244
     -2999.746       -2337.456
  23074556.232    23074555.9394   23074559.4214  121257635.803 6  94486488.23643
      -789.421        -615.125
  22078593.131    22078592.8664   22078595.3304  116023823.994 7  90408195.62445
      1857.662        1447.531
  24108115.774    24108115.0604   24108118.8454  126689021.752 5  98718740.88342
      2972.481        2316.243
  24269610.853    24269610.4384   24269612.9354  127537683.053 6  99380020.65843
     -3522.437       -2744.767
  24920141.666    24920141.4204   24920142.3714  130956252.236 5 102043858.55241
     -3886.864       -3028.730
 08  5 12  1 13 30.0000000  0 13G 3G 6G 7G10G13G16G21G23G24G25G27G29
                                G31
  22336174.093    22336173.7654   22336176.8624  117377406.587 7  91462940.82544
      3272.042        2549.636
  21258373.172    21258372.7584   21258375.7214  111713541.483 8  87049536.91946
      1394.128        1086.330
  23199508.810    23199508.7414   23199511.2054  121914258.626 6  94998154.58943
      3142.254        2448.513
  23746058.079    23746056.8954   23746059.8914  124786389.525 5  97236168.19241
       487.388         379.784
  21774850.848    21774850.6734   21774853.1104  114427628.486 7  89164417.95445
      -726.633        -566.203
  20514743.386    20514742.9574   20514744.9654  107805745.749 8  84004503.63447
      -899.060        -700.568
  23315508.575    23315507.8394   23315509.5914  122523833.725 6  95473137.21743
      1928.853        1503.009
  22694392.619    22694392.0954   22694392.8164  119259868.583 7  92929787.80044
     -3013.958       -2348.539
  23079120.178    23079119.9134   23079123.4944  121281619.373 6  94505176.73443
      -809.406        -630.697
  22068029.649    22068029.3554   22068031.9404  115968311.407 7  90364939.07145
      1843.229        1436.282
  24091164.821    24091164.1634   24091167.3074  126599941.798 6  98649327.99242
      2966.181        2311.300
  24289740.146    24289740.0394   24289742.7704  127643462.580 6  99462446.06043
     -3529.583       -2750.319
  24942338.528    24942339.5114   24942337.6834  131072896.553 5 102134750.32941
     -3889.403       -3030.710
 08  5 12  1 14  0.0000000  0 13G 3G 6G 7G10G13G16G21G23G24G25G27G29
                                G31
  22317528.292    22317527.5994   22317530.4314  117279420.225 7  91386587.84844
      3260.521        2540.675
  21250464.576    21250464.1434   21250467.0054  111671981.270 8  87017152.39146
      1376.673        1072.733
  23181599.423    23181598.9754   23181600.6424  121820138.689 6  94924814.37143
      3132.488        2440.910
  23743336.516    23743335.7344   23743339.6594  124772088.356 5  97225024.39541
       466.109         363.221
  21779064.101    21779063.7634   21779066.4584  114449768.682 7  89181670.05745
      -749.240        -583.818
  20519925.564    20519924.9844   20519926.9474  107832977.956 8  84025723.61747
      -916.250        -713.952
  23304540.330    23304539.3864   23304541.8014  122466195.185 6  95428223.99643
      1913.818        1491.305
  22711639.928    22711639.3614   22711639.6044  119350503.476 7  93000412.43744
     -3028.219       -2359.653
  23083798.652    23083798.4834   23083802.1744  121306204.756 6  94524334.21843
      -829.519        -646.381
  22057549.284    22057548.6164   22057551.3184  115913236.373 7  90322023.46745
      1828.578        1424.867
  24074250.286    24074249.1414   24074252.5384  126511056.245 6  98580066.50242
      2959.744        2306.291
  24309910.058    24309910.7004   24309914.2344  127749461.628 5  99545042.63442
     -3536.962       -2756.069
  24964549.262    24964549.4284   24964551.4174  131189621.418 5 102225704.85141
     -3892.135       -3032.827
 08  5 12  1 14 30.0000000  0 14G 3G 6G 7G10G13G16G19G21G23G24G25G27
                                G29G31
  22298947.985    22298947.1054   22298950.3624  117181781.821 7  91310506.04144
      3248.724        2531.471
  21242655.533    21242655.1534   21242658.0814  111630944.606 8  86985175.82146
      1359.124        1059.056
  23163744.280    23163744.2124   23163746.9004  121726313.244 6  94851703.64143
      3122.449        2433.084
  23740736.894    23740735.8914   23740739.3644  124758426.570 5  97214378.84241
       444.703         346.518
  21783406.156    21783406.1524   21783408.4154  114472586.258 7  89199450.00445
      -771.890        -601.471
  20525205.796    20525205.1784   20525207.0984  107860725.873 8  84047345.43147
      -933.565        -727.454
  25113704.393                                   131973415.226 5
      3858.918
  23293658.204    23293657.4964   23293659.7934  122409008.858 7  95383663.35543
      1898.628        1479.445
  22728968.228    22728967.5414   22728968.4314  119441565.359 7  93071369.74944
     -3042.537       -2370.809
  23088591.919    23088591.7144   23088595.6204  121331392.941 6  94543961.39243
      -849.719        -662.123
  22047152.813    22047152.3734   22047154.9904  115858602.598 7  90279451.69146
      1813.692        1413.267
  24057372.928    24057372.1464   24057376.5604  126422368.732 5  98510959.37442
      2952.863        2300.926
  24330121.837    24330121.9724   24330126.7794  127855679.809 5  99627809.95642
     -3544.297       -2761.784
  24986777.383    24986777.3434   24986779.6424  131306426.682 5 102316721.88242
     -3894.911       -3035.011
 08  5 12  1 15  0.0000000  0 14G 3G 6G 7G10G13G16G19G21G23G24G25G27
                                G29G31
  22280433.991    22280433.4304   22280436.6684  117084490.488 7  91234694.65244
      3237.213        2522.491
  21234945.691    21234945.2824   21234948.1754  111590429.211 8  86953605.33846
      1341.814        1045.568
  23145945.424    23145945.2914   23145947.9874  121632781.272 6  94778821.66543
      3112.789        2425.563
  23738258.602    23738256.9444   23738261.0184  124745401.476 5  97204229.41142
       423.542         330.050
  21787876.960    21787876.5704   21787878.5804  114496077.431 7  89217754.83145
      -794.249        -618.898
  20530583.441    20530582.8154   20530584.7864  107888985.706 8  84069366.08847
      -950.540        -740.680
  25091679.358    25091677.4554   25091679.3214  131857673.686 5 102746253.52241
      3857.095        3005.544
  23282861.829    23282861.1124   23282862.8794  122352273.205 6  95339453.94543
      1883.627        1467.755
  22746376.591    22746376.0354   22746377.1534  119533048.282 7  93142655.15944
     -3056.412       -2381.620
  23093499.208    23093498.4954   23093502.3384  121357179.814 7  94564055.04943
      -869.553        -677.570
  22036840.121    22036839.5134   22036842.3554  115804408.838 8  90237222.80046
      1799.103        1401.894
  24040533.938    24040533.7484   24040537.0824  126333877.852 5  98442005.49042
      2946.311        2295.824
  24350376.275    24350376.2014   24350379.6364  127962111.162 5  99710743.36742
     -3551.131       -2767.132
  25009017.842    25009018.6534   25009020.6194  131423307.451 5 102407797.76442
     -3897.336       -3036.887
 08  5 12  1 15 30.0000000  0 14G 3G 6G 7G10G13G16G19G21G23G24G25G27
                                G29G31
  22261986.265    22261985.4874   22261989.1264  116987548.234 7  91159155.22544
      3225.641        2513.481
  21227335.370    21227334.8844   21227337.6974  111550435.786 8  86922441.58546
      1324.461        1032.050
  23128203.031    23128203.2174   23128204.9244  121539544.478 6  94706169.65443
      3103.003        2417.925
  23735900.250    23735900.2944   23735904.2864  124733013.092 5  97194576.14441
       402.414         313.570
  21792474.559    21792474.4394   21792476.1764  114520240.553 7  89236583.24845
      -816.615        -636.320
  20536058.370    20536057.7414   20536059.6544  107917756.333 8  84091784.79847
      -967.478        -753.882
  25069661.354    25069660.9644   25069664.4754  131741987.296 4 102656108.38241
      3855.426        3004.208
  23272151.097    23272150.3234   23272152.1034  122295989.959 7  95295597.06443
      1868.599        1456.052
  22763864.819    22763864.3704   22763864.7824  119624948.849 7  93214266.01744
     -3070.218       -2392.381
  23098519.565    23098519.0634   23098523.3814  121383564.038 6  94584614.26543
      -889.378        -693.016
  22026611.305    22026610.8214   22026613.1764  115750656.119 7  90195337.57045
      1784.427        1390.464
  24023732.559    24023732.1094   24023735.3264  126245584.922 5  98373205.87842
      2939.817        2290.761
  24370670.633    24370670.6274   24370671.9964  128068753.069 6  99793840.63042
     -3558.213       -2772.644
  25031275.170    25031275.4394   25031276.8654  131540260.757 5 102498930.25342
     -3899.613       -3038.657
 08  5 12  1 16  0.0000000  0 14G 3G 6G 7G10G13G16G19G21G23G24G25G27
                                G29G31
  22243604.972    22243604.3034   22243607.7214  116890953.352 7  91083886.41544
      3213.997        2504.424
  21219823.625    21219823.1534   21219825.9594  111510961.347 8  86891682.23546
      1307.092        1018.518
  23110516.993    23110516.8954   23110519.0634  121446601.377 6  94633746.44443
      3093.183        2410.278
  23733662.857    23733661.7784   23733667.2074  124721257.978 5  97185416.33841
       381.143         296.995
  21797199.695    21797199.5604   21797201.0754  114545070.920 8  89255931.58245
      -838.866        -653.664
  20541629.306    20541628.6654   20541630.6794  107947032.572 8  84114597.50147
      -984.356        -767.036
  25047661.024    25047658.6744   25047661.5874  131626354.038 5 102566004.61841
      3853.434        3002.673
  23261526.447    23261525.4444   23261527.7074  122240156.401 6  95252090.52143
      1853.543        1444.317
  22781430.779    22781430.6354   22781430.5904  119717259.679 6  93286196.53144
     -3083.931       -2403.074
  23103653.399    23103652.6704   23103656.4824  121410540.664 6  94605635.03243
      -909.158        -708.439
  22016465.753    22016465.3754   22016468.2044  115697341.948 8  90153794.07045
      1769.761        1379.030
  24006968.596    24006967.8804   24006971.2284  126157487.810 6  98304558.82642
      2933.192        2285.604
  24391002.973    24391002.6314   24391004.2784  128175599.702 6  99877098.01442
     -3565.044       -2777.952
  25053540.716    25053542.2494   25053543.9104  131657281.325 4 102590115.12142
     -3901.916       -3040.454
 08  5 12  1 16 30.0000000  0 14G 3G 6G 7G10G13G16G19G21G23G24G25G27
                                G29G31
  22225290.109    22225289.6484   22225293.2304  116794708.250 7  91008890.16344
      3202.191        2495.214
  21212410.914    21212410.5074   21212413.4774  111472006.489 8  86861327.55646
      1289.701        1004.965
  23092886.332    23092886.0214   23092889.7034  121353954.641 6  94561554.24444
      3083.138        2402.439
  23731546.492    23731545.8364   23731550.7234  124710136.798 5  97176750.49341
       359.968         280.498
  21802051.692    21802051.2704   21802052.9464  114570567.494 7  89275799.04345
      -861.110        -670.994
  20547296.489    20547295.9054   20547297.8174  107976813.706 8  84137803.59847
     -1001.214        -780.167
  25025666.681    25025666.2604   25025667.7394  131510776.190 5 102475943.91341
      3851.521        3001.177
  23250986.915    23250986.4714   23250988.9534  122184775.125 6  95208936.42644
      1838.422        1432.520
  22799075.237    22799074.7654   22799074.7314  119809978.100 7  93358444.63144
     -3097.488       -2413.618
  23108899.037    23108898.4244   23108902.5614  121438108.854 6  94627116.71243
      -928.865        -723.784
  22006404.226    22006403.7734   22006406.1964  115644468.122 8  90112593.69546
      1754.990        1367.525
  23990241.264    23990240.8034   23990244.0724  126069588.478 5  98236065.85942
      2926.472        2280.380
  24411372.342    24411373.3594   24411375.4524  128282648.296 5  99960512.81942
     -3571.746       -2783.180
  25075823.926    25075822.3704   25075825.8154  131774367.573 5 102681351.02741
     -3904.021       -3042.092
 08  5 12  1 17  0.0000000  0 14G 3G 6G 7G10G13G16G19G21G23G24G25G27
                                G29G31
  22207042.071    22207041.6084   22207045.0734  116698815.268 7  90934168.42344
      3190.469        2486.080
  21205097.268    21205096.9314   21205099.8084  111433572.764 8  86831379.04146
      1272.386         991.488
  23075313.837    23075313.5794   23075315.9904  121261606.592 6  94489594.80344
      3073.199        2394.703
  23729551.679    23729550.7154   23729555.8214  124699649.964 5  97168578.94542
       338.886         264.076
  21807029.731    21807029.4344   21807031.4614  114596729.531 7  89296185.03945
      -883.228        -688.226
  20553059.573    20553058.9494   20553060.9354  108007098.683 8  84161402.25147
     -1017.957        -793.212
  25003685.160    25003682.8744   25003685.3354  131395255.688 5 102385927.97641
      3849.594        2999.701
  23240534.590    23240533.7744   23240536.0794  122129847.430 6  95166135.68843
      1823.256        1420.725
  22816795.704    22816795.2044   22816795.6794  119903101.067 7  93431007.98444
     -3110.878       -2424.062
  23114257.192    23114256.9414   23114260.6584  121466267.765 6  94649058.73043
      -948.528        -739.123
  21996426.938    21996426.5024   21996429.2294  115592036.258 8  90071737.71046
      1740.261        1356.048
  23973552.747    23973551.4384   23973555.9874  125981888.598 5  98167728.35242
      2919.924        2275.273
  24431779.825    24431780.5504   24431785.0794  128389895.821 5 100044082.34942
     -3578.302       -2788.283
  25098118.869    25098116.8764   25098117.1894  131891516.509 5 102772636.04541
     -3906.124       -3043.732
 08  5 12  1 17 30.0000000  0 14G 3G 6G 7G10G13G16G19G21G23G24G25G27
                                G29G31
  22188862.490    22188862.0714   22188865.4334  116603280.022 7  90859725.41644
      3178.457        2476.720
  21197883.651    21197883.2544   21197886.2944  111395664.347 8  86801839.87846
      1254.795         977.760
  23057797.674    23057797.8684   23057799.2434  121169562.357 6  94417872.03043
      3062.969        2386.722
  23727677.599    23727676.2384   23727681.6744  124689801.248 5  97160904.66142
       317.532         247.426
  21812135.321    21812134.9904   21812137.1434  114623559.281 7  89317091.34345
      -905.518        -705.603
  20558918.914    20558918.3024   20558920.3524  108037890.171 8  84185395.64747
     -1034.867        -806.390
  24981711.054    24981711.0934   24981715.0284  131279797.885 4 102295960.90241
      3847.577        2998.099
  23230169.487    23230168.9814   23230171.0994  122075379.674 6  95123693.35843
      1807.856        1408.713
  22834593.286    22834592.7534   22834593.9204  119996629.051 7  93503886.89344
     -3124.343       -2434.550
  23119729.237    23119728.3564   23119732.1434  121495019.676 6  94671462.81743
      -968.313        -754.530
  21986534.473    21986533.9444   21986536.5534  115540051.492 8  90031230.11446
      1725.270        1344.368
  23956902.591    23956902.2584   23956906.1164  125894393.492 5  98099550.41043
      2912.985        2269.860
  24452225.945    24452225.8714   24452230.3054  128497343.689 4 100127807.88042
     -3585.033       -2793.520
  25120421.220    25120421.6984   25120423.7764  132008729.977 5 102863971.26842
     -3908.136       -3045.305
 08  5 12  1 18  0.0000000  0 14G 3G 6G 7G10G13G16G19G21G23G24G25G27
                                G29G31
  22170751.076    22170750.5624   22170753.7824  116508103.844 7  90785562.10244
      3166.611        2467.506
  21190769.795    21190769.4114   21190772.4224  111358281.273 8  86772710.26046
      1237.428         964.234
  23040340.299    23040340.1604   23040342.2994  121077823.344 6  94346387.07443
      3052.882        2378.878
  23725925.196    23725924.1594   23725929.2864  124680590.369 5  97153727.36242
       296.480         231.017
  21817367.483    21817367.3704   21817369.5504  114651054.718 7  89338516.37245
      -927.529        -722.752
  20564874.470    20564873.7154   20564875.7434  108069185.836 8  84209781.86447
     -1051.552        -819.390
  24959752.630    24959752.3714   24959755.6914  131164403.899 4 102206043.48941
      3845.429        2996.450
  23219892.103    23219891.2844   23219893.9694  122021372.140 6  95081609.62243
      1792.634        1396.849
  22852467.406    22852466.7624   22852467.8024  120090557.727 6  93577077.95644
     -3137.506       -2444.805
  23125312.383    23125311.6374   23125316.3094  121524362.309 6  94694327.17443
      -987.870        -769.760
  21976727.078    21976726.7624   21976729.3664  115488513.979 7  89991071.02446
      1710.514        1332.866
  23940291.931    23940291.2664   23940295.8584  125807103.744 6  98031532.47043
      2906.315        2264.655
  24472712.501    24472712.4204   24472714.4404  128604988.086 5 100211686.65842
     -3591.317       -2798.434
  25142738.150    25142737.9004   25142740.7884  132126005.451 5 102955354.69043
     -3910.174       -3046.899
 08  5 12  1 18 30.0000000  0 14G 3G 6G 7G10G13G16G19G21G23G24G25G27
                                G29G31
  22152708.297    22152707.6104   22152711.1234  116413287.236 7  90711678.70644
      3154.628        2458.160
  21183755.959    21183755.4684   21183758.5484  111321422.415 8  86743989.03646
      1219.990         950.643
  23022941.861    23022941.6474   23022944.2854  120986390.243 6  94275140.54544
      3042.756        2370.972
  23724293.489    23724292.2814   23724296.7484  124672015.332 5  97147045.52542
       275.380         214.585
  21822726.217    21822726.1314   21822727.8464  114679213.385 7  89360458.19145
      -949.521        -739.886
  20570925.220    20570924.5994   20570926.7274  108100983.488 8  84234559.22647
     -1068.154        -832.326
  24937807.049    24937804.7014   24937808.0614  131049074.281 4 102116176.30041
      3843.402        2994.856
  23209702.530    23209701.6974   23209704.2464  121967825.312 6  95039884.92443
      1777.304        1384.906
  22870417.112    22870416.6164   22870417.4284  120184882.846 6  93650577.96844
     -3150.625       -2455.019
  23131008.680    23131007.9924   23131012.3444  121554293.058 6  94717649.83343
     -1007.382        -784.970
  21967004.784    21967004.4664   21967007.1544  115437424.006 7  89951260.66346
      1695.658        1321.290
  23923720.830    23923720.2904   23923723.4784  125720019.842 6  97963674.92343
      2899.504        2259.350
  24493232.840    24493232.3504   24493234.3424  128712825.053 6 100295715.57542
     -3597.627       -2803.351
  25165064.549    25165065.5524   25165068.0154  132243339.155 4 103046783.53942
     -3911.800       -3048.148
 08  5 12  1 19  0.0000000  0 14G 3G 6G 7G10G13G16G19G21G23G24G25G27
                                G29G31
  22134734.915    22134734.0584   22134737.6624  116318834.194 7  90638078.70544
      3142.292        2448.547
  21176842.147    21176841.7064   21176844.7924  111285089.974 8  86715678.06446
      1202.239         936.798
  23005601.330    23005601.0314   23005603.6244  120895266.681 6  94204135.20944
      3032.199        2362.759
  23722783.519    23722782.3734   23722787.2504  124664078.227 5  97140860.79542
       253.867         197.814
  21828211.063    21828210.7754   21828212.5014  114708035.327 7  89382916.84245
      -971.815        -757.255
  20577071.644    20577070.9804   20577072.9884  108133283.542 8  84259728.26547
     -1085.106        -845.554
  24915874.459    24915873.0474   24915874.7644  130933812.273 5 102026361.76941
      3840.818        2992.869
  23199601.051    23199600.5474   23199602.5404  121914741.840 6  94998521.26244
      1761.648        1372.711
  22888441.711    22888441.1794   22888441.1744  120279602.275 7  93724385.26644
     -3163.881       -2465.361
  23136816.461    23136815.6964   23136819.5874  121584811.959 6  94741430.79243
     -1027.133        -800.370
  21957368.820    21957368.5144   21957370.8624  115386784.288 8  89911801.15546
      1680.431        1309.426
  23907189.171    23907188.3624   23907191.8464  125633144.433 6  97895979.83143
      2892.274        2253.718
  24513790.484    24513790.0564   24513791.6544  128820853.538 5 100379893.63342
     -3604.224       -2808.491
  25187405.140    25187404.9674   25187408.7114  132360730.344 4 103138257.19041
     -3913.969       -3049.844
 08  5 12  1 19 30.0000000  0 14G 3G 6G 7G10G13G16G19G21G23G24G25G27
                                G29G31
  22116830.889    22116830.3634   22116833.7524  116224748.771 7  90564765.49144
      3130.072        2439.007
  21170028.510    21170028.2354   21170031.3214  111249286.825 8  86687779.84246
      1184.660         923.099
  22988319.864    22988320.3074   22988322.4964  120804456.160 6  94133373.79144
      3021.817        2354.656
  23721394.252    23721393.5734   23721398.4684  124656780.289 5  97135174.09243
       232.663         181.295
  21833821.949    21833821.7104   21833823.4644  114737520.438 7  89405892.23945
      -993.861        -774.431
  20583313.672    20583312.9794   20583315.0144  108166085.789 8  84285288.48447
     -1101.755        -858.510
  24893954.514    24893953.3284   24893954.2814  130818620.973 5 101936602.38542
      3838.589        2991.103
  23189588.395    23189587.9744   23189589.7204  121862125.034 6  94957521.18244
      1746.135        1360.629
  22906540.996    22906540.4904   22906541.3204  120374713.780 6  93798497.82344
     -3176.881       -2475.492
  23142736.000    23142734.7894   23142738.2924  121615919.241 6  94765670.21443
     -1046.640        -815.561
  21947818.113    21947817.6734   21947820.4754  115336597.399 7  89872694.48746
      1665.344        1297.670
  23890696.985    23890696.4894   23890700.1064  125546480.653 6  97828449.63943
      2885.251        2248.247
  24534381.490    24534382.0354   24534386.5734  128929072.310 5 100464219.93542
     -3610.404       -2813.293
  25209755.792    25209755.8314   25209756.7644  132478178.124 5 103229774.94441
     -3915.790       -3051.260
 08  5 12  1 20  0.0000000  0 14G 3G 6G 7G10G13G16G19G21G23G24G25G27
                                G29G31
  22098997.396    22098997.0324   22099000.5664  116131035.056 7  90491742.17244
      3117.546        2429.227
  21163316.495    21163316.1234   21163319.0004  111214014.751 8  86660295.40346
      1166.873         909.248
  22971100.297    22971100.4074   22971102.2574  120713963.008 6  94062859.65844
      3011.163        2346.354
  23720128.092    23720127.4234   23720131.4174  124650123.428 6  97129986.92643
       211.280         164.632
  21839558.766    21839558.5254   21839560.5084  114767669.724 7  89429385.17045
     -1016.041        -791.717
  20589651.252    20589650.8044   20589652.7814  108199391.233 8  84311240.76347
     -1118.559        -871.599
  24872047.539    24872046.0294   24872048.6964  130703504.612 5 101846901.33542
      3835.878        2988.986
  23179665.190    23179664.3914   23179666.9884  121809978.694 6  94916887.61643
      1730.416        1348.388
  22924713.960    22924713.9364   22924714.6264  120470217.182 6  93872916.00244
     -3189.934       -2485.673
  23148767.089    23148766.4364   23148770.5354  121647615.748 6  94790368.78043
     -1066.377        -830.939
  21938355.016    21938354.6374   21938357.0764  115286866.978 7  89833943.51146
      1650.065        1285.766
  23874246.469    23874245.8704   23874249.6114  125460032.288 6  97761087.30743
      2878.003        2242.604
  24555012.080    24555012.9554   24555014.4314  129037480.914 5 100548694.21642
     -3616.765       -2818.267
  25232116.561    25232116.2414   25232116.9364  132595682.501 5 103321336.83142
     -3917.680       -3052.737
 08  5 12  1 20 30.0000000  0 14G 3G 6G 7G10G13G16G19G21G23G24G25G27
                                G29G31
  22081235.242    22081234.7254   22081237.7524  116037693.243 7  90419008.50144
      3105.149        2419.598
  21156705.281    21156704.8774   21156707.7414  111179272.971 8  86633224.00946
      1149.196         895.472
  22953940.491    22953940.5814   22953942.6364  120623787.976 6  93992593.39644
      3000.470        2338.033
  23718983.071    23718982.3654   23718986.7424  124644107.376 5  97125299.09843
       189.871         147.950
  21845421.832    21845421.6884   21845423.6254  114798480.519 7  89453393.56545
     -1038.091        -808.897
  20596084.605    20596083.9084   20596085.9034  108233197.585 8  84337583.44347
     -1135.267        -884.631
  24850156.336    24850154.7164   24850156.0064  130588463.571 5 101757259.03541
      3833.352        2987.021
  23169831.935    23169831.4674   23169833.4324  121758303.201 6  94876621.01744
      1714.627        1336.065
  22942962.426    22942961.7614   22942961.8844  120566107.754 7  93947635.97844
     -3202.769       -2495.669
  23154910.445    23154909.9174   23154913.7034  121679898.761 6  94815524.34743
     -1085.849        -846.122
  21928978.076    21928977.6594   21928980.8604  115237593.165 8  89795548.34146
      1634.816        1273.879
  23857836.793    23857836.2724   23857840.2484  125373799.555 6  97693892.98643
      2870.715        2236.919
  24575676.516    24575677.2824   24575679.0544  129146075.122 5 100633313.15642
     -3622.900       -2823.028
  25254485.036    25254485.2844   25254486.1124  132713240.369 5 103412940.33941
     -3919.596       -3054.245
 08  5 12  1 21  0.0000000  0 14G 3G 6G 7G10G13G16G19G21G23G24G25G27
                                G29G31
  22063544.445    22063543.8444   22063547.0224  115944728.292 7  90346568.20544
      3092.544        2409.793
  21150195.754    21150195.4224   21150198.1854  111145065.389 8  86606568.77646
      1131.331         881.561
  22936842.761    22936842.6774   22936844.2214  120533936.399 6  93922579.17144
      2989.633        2329.582
  23717960.667    23717959.9364   23717964.6054  124638734.577 6  97121112.48743
       168.383         131.199
  21851411.137    21851411.0914   21851413.1434  114829954.663 7  89477918.87145
     -1060.203        -826.131
  20602613.215    20602612.6574   20602614.6174  108267506.658 8  84364317.82747
     -1152.001        -897.662
  24828279.341    24828278.4864   24828279.4324  130473503.080 5 101667679.38341
      3830.686        2984.941
  23160088.943    23160088.4544   23160090.0134  121707103.715 6  94836725.33544
      1698.682        1323.649
  22961282.939    22961282.4864   22961282.6764  120662385.195 7  94022657.54443
     -3215.640       -2505.695
  23161165.177    23161164.9424   23161169.1604  121712770.116 6  94841138.33143
     -1105.474        -861.398
  21919689.896    21919689.3694   21919691.8544  115188780.468 7  89757512.47546
      1619.373        1261.850
  23841469.610    23841469.2164   23841472.9594  125287787.508 6  97626870.63843
      2863.389        2231.208
  24596376.879    24596376.7544   24596380.0674  129254855.421 5 100718076.98641
     -3629.083       -2827.850
  25276865.795    25276865.9354   25276866.1374  132830852.568 5 103504586.18541
     -3921.260       -3055.532
 08  5 12  1 21 30.0000000  0 14G 3G 6G 7G10G13G16G19G21G23G24G25G27
                                G29G31
  22045925.660    22045925.5614   22045928.5194  115852139.572 7  90274420.44644
      3080.069        2400.094
  21143787.893    21143787.4744   21143790.3354  111111390.751 8  86580328.63446
      1113.652         867.790
  22919805.765    22919805.6674   22919807.3894  120444408.645 6  93852817.29544
      2978.854        2321.181
  23717060.638    23717059.5374   23717064.6104  124634004.095 5  97117426.39343
       147.028         114.564
  21857526.073    21857525.8544   21857528.5484  114862089.274 7  89502958.82545
     -1082.088        -843.185
  20609237.262    20609236.6194   20609238.5454  108302315.488 8  84391441.57547
     -1168.564        -910.570
  24806419.149    24806416.4944   24806419.7944  130358623.289 5 101578162.79141
      3827.928        2982.783
  23150436.756    23150436.1454   23150437.7024  121656380.156 6  94797200.61744
      1682.875        1311.325
  22979676.652    22979676.4094   22979676.3854  120759044.551 6  94097976.65344
     -3228.292       -2515.555
  23167531.822    23167531.3024   23167535.8464  121746226.923 6  94867208.53743
     -1124.922        -876.558
  21910488.495    21910488.1014   21910491.1594  115140428.533 8  89719835.65246
      1604.071        1249.928
  23825144.037    23825143.5374   23825146.9554  125201996.209 6  97560020.28943
      2855.936        2225.403
  24617112.487    24617112.1914   24617115.4324  129363817.763 5 100802982.62542
     -3635.049       -2832.505
  25299256.483    25299256.3584   25299258.3074  132948515.627 4 103596271.64441
     -3922.916       -3056.827
 08  5 12  1 22  0.0000000  0 13G 3G 6G 7G10G13G16G19G21G23G24G25G27
                                G29
  22028379.134    22028378.4164   22028381.4714  115759929.127 7  90202568.04944
      3067.285        2390.089
  21137481.001    21137480.4754   21137483.5034  111078247.497 8  86554502.61646
      1095.853         853.917
  22902831.435    22902831.1364   22902832.8614  120355204.097 7  93783307.27544
      2968.031        2312.747
  23716282.188    23716281.4874   23716285.4064  124629912.855 6  97114238.43543
       125.732          97.978
  21863766.216    21863766.0144   21863768.1734  114894880.149 7  89528510.16245
     -1104.015        -860.273
  20615955.521    20615954.9524   20615956.8424  108337620.514 8  84418952.01547
     -1185.141        -923.484
  24784573.164    24784571.8754   24784575.0264  130243823.424 5 101488708.43842
      3825.248        2980.699
  23140874.402    23140873.5954   23140875.4244  121606130.552 6  94758045.09944
      1666.984        1298.956
  22998141.237    22998140.8424   22998141.6864  120856079.863 6  94173588.65244
     -3240.769       -2525.278
  23174008.952    23174008.2664   23174013.0904  121780265.151 6  94893731.84743
     -1144.286        -891.659
  21901375.041    21901374.5114   21901377.0694  115092535.901 8  89682516.72446
      1588.704        1237.951
  23808859.266    23808859.4174   23808862.9284  125116424.302 6  97493340.89343
      2848.687        2219.763
  24637881.569    24637881.1924   24637884.2494  129472957.154 6 100888026.31243
     -3641.008       -2837.145
 08  5 12  1 22 30.0000000  0 13G 3G 6G 7G10G13G16G19G21G23G24G25G27
                                G29
  22010904.563    22010904.0974   22010907.7144  115668102.624 7  90131015.19844
      3054.387        2380.030
  21131276.003    21131275.4684   21131278.5094  111045640.040 8  86529094.18146
      1077.923         839.945
  22885918.031    22885918.1284   22885920.7294  120266329.002 6  93714053.97444
      2956.921        2304.094
  23715625.878    23715625.1594   23715629.4714  124626464.746 6  97111551.61343
       104.185          81.179
  21870131.352    21870131.1564   21870133.5844  114928329.513 7  89554574.60745
     -1125.986        -877.389
  20622768.719    20622768.1574   20622770.0094  108373423.886 8  84446850.73147
     -1201.797        -936.464
  24762741.901    24762743.0314   24762743.9924  130129109.025 4 101399320.61542
      3822.249        2978.396
  23131403.721    23131403.1594   23131404.8054  121556361.355 6  94719263.90844
      1650.862        1286.385
  23016677.772    23016677.6704   23016677.7214  120953491.208 6  94249493.58143
     -3253.316       -2535.047
  23180597.134    23180597.0284   23180600.9014  121814887.110 6  94920709.96243
     -1163.819        -906.865
  21892349.537    21892349.1664   21892352.1614  115045107.919 8  89645559.87146
      1573.108        1225.795
  23792619.473    23792618.5674   23792622.1124  125031077.545 6  97426836.94143
      2841.060        2213.815
  24658683.740    24658683.7974   24658685.6614  129582274.420 5 100973208.65043
     -3646.857       -2841.706
 08  5 12  1 23  0.0000000  0 13G 3G 6G 7G10G13G16G19G21G23G24G25G27
                                G29
  21993504.263    21993503.4344   21993507.1954  115576662.270 7  90059763.05345
      3041.494        2369.977
  21125173.271    21125172.8554   21125175.9564  111013570.167 8  86504104.53846
      1060.023         825.993
  22869069.160    22869069.2844   22869071.8104  120177786.862 6  93645060.15044
      2945.828        2295.453
  23715092.359    23715091.8724   23715096.3554  124623661.241 6  97109367.06343
        82.682          64.426
  21876621.621    21876621.4054   21876624.1494  114962437.585 7  89581152.34945
     -1147.900        -894.466
  20629676.900    20629676.2814   20629678.1894  108409726.193 8  84475138.16247
     -1218.413        -949.411
  24740931.851    24740931.3764   24740932.3454  130014483.727 5 101310002.23741
      3819.322        2976.124
  23122024.563    23122024.1374   23122025.8194  121507075.272 6  94680859.17844
      1634.802        1273.878
  23035286.310    23035285.9474   23035286.6494  121051277.128 6  94325690.32343
     -3265.746       -2544.738
  23187297.061    23187296.3364   23187300.1384  121850092.856 6  94948143.00843
     -1183.236        -921.998
  21883413.336    21883412.9584   21883415.6114  114998147.559 7  89608967.40546
      1557.506        1213.637
  23776422.022    23776420.9434   23776424.6814  124945958.946 6  97360510.80543
      2833.460        2207.885
  24679518.879    24679519.4734   24679522.4784  129691768.773 5 101058528.95442
     -3652.690       -2846.244
 08  5 12  1 23 30.0000000  0 13G 3G 6G 7G10G13G16G19G21G23G24G25G27
                                G29
  21976177.589    21976177.0934   21976180.6054  115485612.136 7  89988815.02745
      3028.407        2359.804
  21119173.253    21119172.8584   21119176.0374  110982040.170 8  86479535.74646
      1041.877         811.856
  22852284.301    22852284.2204   22852286.3394  120089581.102 6  93576328.41544
      2934.412        2286.555
  23714682.419    23714680.7794   23714685.8734  124621503.465 6  97107685.67643
        61.030          47.560
  21883237.450    21883237.4174   21883239.7064  114997204.191 7  89608243.21845
     -1169.973        -911.669
  20636680.096    20636679.4374   20636681.3414  108446527.957 8  84503814.84047
     -1235.142        -962.450
  24719136.785    24719135.4204   24719137.5224  129899950.886 5 101220755.91042
      3816.120        2973.606
  23112738.766    23112737.9414   23112739.8184  121458275.648 7  94642833.54044
      1618.422        1261.101
  23053965.334    23053964.6934   23053965.5474  121149436.099 6  94402177.76043
     -3278.224       -2554.455
  23194107.777    23194107.3494   23194111.4804  121885882.430 6  94976030.97743
     -1202.800        -937.232
  21874566.759    21874566.2124   21874568.5604  114951657.096 8  89572741.06746
      1541.739        1201.357
  23760267.772    23760267.4454   23760271.2864  124861071.387 6  97294364.68243
      2825.635        2201.804
  24700386.994    24700388.0444   24700390.8744  129801439.180 4 101143986.40441
     -3658.660       -2850.922
 08  5 12  1 24  0.0000000  0 13G 3G 6G 7G10G13G16G19G21G23G24G25G27
                                G29
  21958925.995    21958925.5414   21958929.1994  115394954.671 7  89918172.88745
      3015.221        2349.519
  21113276.484    21113275.9314   21113279.0694  110951050.746 8  86455387.97546
      1023.901         797.846
  22835564.047    22835563.4154   22835566.0224  120001714.595 6  93507861.02444
      2923.090        2277.737
  23714394.596    23714393.6254   23714398.0954  124619992.286 6  97106508.14543
        39.497          30.773
  21889978.500    21889978.4814   21889980.6744  115032628.718 7  89635846.76045
     -1191.859        -928.724
  20643778.072    20643777.4044   20643779.2914  108483827.976 8  84532879.76647
     -1251.670        -975.327
  24697359.269    24697358.4034   24697360.0334  129785512.981 5 101131583.54841
      3812.849        2971.028
  23103545.700    23103544.7054   23103546.4684  121409964.076 6  94605188.16144
      1602.178        1248.459
  23072715.363    23072714.9794   23072715.3324  121247965.603 6  94478954.05843
     -3290.550       -2564.065
  23201028.776    23201028.5334   23201032.8264  121922254.928 6  95004373.17443
     -1222.193        -952.362
  21865809.504    21865809.1134   21865811.8464  114905638.778 7  89536882.66446
      1526.016        1189.101
  23744158.549    23744157.8604   23744161.4674  124776417.342 5  97228400.50243
      2817.809        2195.706
  24721291.285    24721291.9074   24721293.9264  129911282.927 5 101229578.89041
     -3664.323       -2855.317
 08  5 12  1 24 30.0000000  0 13G 3G 6G 7G10G13G16G19G21G23G24G25G27
                                G29
  21941749.844    21941749.2814   21941752.7654  115304693.826 7  89847839.92745
      3002.132        2339.312
  21107482.493    21107482.0704   21107485.3424  110920604.516 8  86431663.68646
      1005.895         783.814
  22818908.640    22818908.3594   22818910.7154  119914190.891 6  93439660.76444
      2911.776        2268.914
  23714230.024    23714228.7004   23714233.6874  124619129.089 6  97105835.53343
        18.035          14.059
  21896845.121    21896844.8754   21896846.5994  115068710.970 7  89663962.80945
     -1213.612        -945.671
  20650970.819    20650970.3664   20650972.2324  108521626.528 8  84562333.10647
     -1268.177        -988.185
  24675600.260    24675599.8934   24675602.1714  129671173.280 5 101042487.68842
      3809.804        2968.662
  23094445.687    23094444.5474   23094446.1984  121362143.758 7  94567925.55644
      1585.853        1235.728
  23091534.704    23091534.3774   23091534.7234  121346863.295 6  94556017.14843
     -3302.630       -2573.480
  23208061.504    23208060.7394   23208064.7504  121959210.237 6  95033169.51743
     -1241.493        -967.388
  21857142.986    21857142.5354   21857144.9644  114860095.211 7  89501394.17946
      1510.238        1176.811
  23728094.168    23728093.5124   23728097.3054  124691999.931 6  97162620.73243
      2810.066        2189.653
  24742227.899    24742227.6364   24742229.9364  130021299.643 6 101315306.16742
     -3669.998       -2859.741
 08  5 12  1 25  0.0000000  0 13G 3G 6G 7G10G13G16G19G21G23G24G25G27
                                G29
  21924649.471    21924648.6194   21924651.8784  115214829.976 7  89777816.18245
      2988.878        2329.002
  21101791.925    21101791.3954   21101794.5654  110890700.031 8  86408361.54346
       987.814         769.726
  22802319.400    22802318.9024   22802321.0734  119827010.741 6  93371728.21144
      2900.296        2259.976
  23714189.048    23714188.1974   23714191.8934  124618911.947 6  97105666.32243
        -3.503          -2.731
  21903835.791    21903835.4734   21903837.2524  115105447.566 7  89692588.73645
     -1235.403        -962.646
  20658258.091    20658257.5024   20658259.4384  108559920.875 8  84592172.73347
     -1284.688       -1001.043
  24653862.490    24653861.1664   24653862.7334  129556932.184 5 100953468.66842
      3806.382        2966.016
  23085438.961    23085438.4134   23085439.7674  121314814.939 6  94531045.97444
      1569.454        1222.962
  23110424.272    23110423.3414   23110423.2314  121446124.386 6  94633363.41143
     -3314.740       -2582.916
  23215204.295    23215204.0994   23215207.5824  121996745.438 6  95062417.72043
     -1260.757        -982.412
  21848566.591    21848566.3224   21848568.8804  114815026.347 8  89466275.59546
      1494.402        1164.471
  23712075.744    23712075.1164   23712078.5894  124607819.209 6  97097025.37743
      2802.116        2183.488
  24763195.321    24763194.9974   24763197.4984  130131484.807 5 101401164.69043
     -3675.572       -2864.088
 08  5 12  1 25 30.0000000  0 13G 3G 6G 7G10G13G16G19G21G23G24G25G27
                                G29
  21907624.765    21907624.1254   21907627.8244  115125365.511 7  89708103.66545
      2975.514        2318.584
  21096204.449    21096203.9804   21096207.0944  110861338.511 8  86385482.63646
       969.712         755.607
  22785794.505    22785794.5174   22785797.0534  119740176.516 6  93304065.21444
      2888.733        2250.963
  23714270.010    23714269.2024   23714273.9024  124619341.137 6  97106000.74243
       -25.040         -19.520
  21910950.700    21910950.4264   21910952.2594  115142837.964 7  89721724.11045
     -1257.142        -979.588
  20665639.611    20665639.0124   20665640.9774  108598710.405 8  84622398.24047
     -1301.171       -1013.902
  24632142.978    24632141.5754   24632142.4114  129442792.166 5 100864528.34941
      3803.018        2963.410
  23076526.502    23076525.8194   23076527.4504  121267979.816 6  94494551.11244
      1552.966        1210.106
  23129381.232    23129380.8414   23129380.5434  121545746.407 6  94710990.97743
     -3326.706       -2592.245
  23222457.601    23222456.9014   23222460.7684  122034859.524 6  95092117.02843
     -1280.082        -997.464
  21840081.194    21840080.6914   21840082.7784  114770433.932 8  89431528.26846
      1478.515        1152.089
  23696101.956    23696101.0874   23696104.9724  124523877.549 6  97031616.30943
      2794.089        2177.214
  24784193.960    24784193.9494   24784196.6944  130241836.975 5 101487153.38043
     -3681.174       -2868.451
 08  5 12  1 26  0.0000000  0 13G 3G 6G 7G10G13G16G19G21G23G24G25G27
                                G29
  21890677.121    21890676.5524   21890679.9664  115036305.747 7  89638706.61745
      2962.047        2308.091
  21090720.700    21090720.3084   21090723.5674  110832523.172 8  86363029.32346
       951.534         741.452
  22769337.628    22769337.6154   22769339.5304  119653693.449 6  93236675.82844
      2877.008        2241.821
  23714475.057    23714474.7034   23714479.3044  124620419.581 6  97106841.09043
       -46.622         -36.322
  21918190.566    21918190.4264   21918191.9074  115180883.088 7  89751369.67045
     -1278.929        -996.563
  20673115.554    20673114.9694   20673117.0134  108637996.523 8  84653010.73847
     -1317.660       -1026.743
  24610441.650    24610440.3654   24610442.2884  129328757.774 5 100775670.44142
      3799.516        2960.669
  23067708.625    23067707.7634   23067709.5704  121221642.201 6  94458443.91544
      1536.411        1197.201
  23148407.439    23148406.5964   23148406.5614  121645728.583 6  94788899.12243
     -3338.593       -2601.500
  23229820.143    23229819.6054   23229823.8474  122073553.719 6  95122268.36443
     -1299.337       -1012.465
  21831686.571    21831686.1024   21831688.9244  114726321.801 8  89397155.18746
      1462.508        1139.616
  23680173.869    23680173.6074   23680177.0724  124440179.405 5  96966397.00943
      2785.946        2170.877
  24805223.027    24805223.8324   24805229.5554  130352355.909 4 101573271.93142
     -3686.471       -2872.557
 08  5 12  1 26 30.0000000  0 13G 3G 6G 7G10G13G16G19G21G23G24G25G27
                                G29
  21873805.675    21873805.4134   21873809.0014  114947647.604 7  89569622.41345
      2948.582        2297.594
  21085340.523    21085339.9744   21085343.1234  110804249.592 8  86340998.03546
       933.442         727.359
  22752946.494    22752946.3134   22752948.8374  119567559.081 6  93169558.16344
      2865.294        2232.699
  23714803.983    23714802.4584   23714807.2264  124622142.573 6  97108183.67743
       -68.218         -53.161
  21925553.272    21925553.2554   21925555.3334  115219576.876 7  89781520.67845
     -1300.586       -1013.446
  20680685.014    20680684.3204   20680686.3784  108677773.609 8  84684005.84047
     -1334.062       -1039.527
  24588761.652    24588761.3754   24588761.1934  129214827.172 5 100686893.36842
      3795.888        2957.853
  23058985.441    23058984.6624   23058986.1824  121175799.118 6  94422722.07244
      1519.842        1184.288
  23167499.205    23167499.3154   23167499.9944  121746063.421 6  94867082.16943
     -3350.239       -2610.572
  23237293.221    23237292.7814   23237296.6014  122112821.982 6  95152867.03343
     -1318.487       -1027.398
  21823383.446    21823382.9714   21823385.2234  114682687.090 8  89363154.12346
      1446.535        1127.169
  23664293.348    23664292.5414   23664295.9954  124356721.823 6  96901365.15342
      2777.897        2164.598
  24826285.174    24826285.5954   24826288.4914  130463034.530 4 101659514.83141
     -3691.943       -2876.835
 08  5 12  1 27  0.0000000  0 13G 3G 6G 7G10G13G16G19G21G23G24G25G27
                                G29
  21857012.442    21857011.8634   21857015.0864  114859396.439 7  89500855.36045
      2934.850        2286.893
  21080063.967    21080063.3954   21080066.6074  110776521.223 8  86319391.53046
       915.168         713.119
  22736623.298    22736623.0524   22736625.4294  119481778.405 6  93102716.11744
      2853.418        2223.445
  23715255.081    23715253.8414   23715258.1634  124624512.590 6  97110030.44943
       -89.855         -70.012
  21933040.273    21933040.4544   21933042.2274  115258920.648 7  89812178.17345
     -1322.292       -1030.361
  20688347.865    20688347.3354   20688349.4134  108718043.380 8  84715384.92647
     -1350.540       -1052.371
  24567101.337    24567100.0874   24567100.8974  129101004.459 5 100598200.36941
      3792.265        2955.027
  23050356.571    23050355.6314   23050357.5284  121130455.873 7  94387389.69144
      1503.045        1171.196
  23186661.153    23186660.3364   23186660.2684  121846750.462 6  94945539.64843
     -3362.027       -2619.755
  23244875.164    23244874.7564   23244878.6184  122152665.705 6  95183914.12343
     -1337.697       -1042.373
  21815171.423    21815170.9774   21815173.5544  114639533.608 8  89329528.04046
      1430.401        1114.598
  23648458.762    23648457.9404   23648460.8854  124273509.331 5  96836524.28243
      2769.617        2158.140
  24847379.022    24847379.1134   24847379.3104  130573873.107 5 101745882.54341
     -3697.276       -2881.041
 08  5 12  1 27 30.0000000  0 13G 3G 6G 7G10G13G16G19G21G23G24G25G27
                                G29
  21840296.683    21840295.9944   21840299.1724  114771554.956 7  89432407.52945
      2921.297        2276.337
  21074891.378    21074890.8484   21074893.9754  110749339.221 8  86298210.72146
       897.057         699.006
  22720367.389    22720367.0604   22720369.5714  119396354.123 6  93036151.75344
      2841.559        2214.207
  23715828.678    23715827.8254   23715832.2524  124627530.271 6  97112381.87543
      -111.295         -86.722
  21940651.069    21940650.7804   21940652.0944  115298913.080 7  89843341.11245
     -1343.777       -1047.095
  20696104.596    20696103.9034   20696106.0324  108758804.790 8  84747147.12047
     -1366.835       -1065.068
  24545463.571    24545462.1864   24545463.7714  128987292.584 5 100509593.82242
      3788.639        2952.168
  23041823.621    23041822.4354   23041824.6054  121085613.997 7  94352447.97544
      1486.413        1158.247
  23205885.950    23205886.1464   23205886.9494  121947786.767 6  95024269.26143
     -3373.537       -2628.721
  23252566.520    23252565.8954   23252569.3234  122193083.750 6  95215408.70643
     -1356.780       -1057.229
  21807051.603    21807051.1654   21807053.5774  114596863.585 8  89296278.68346
      1414.332        1102.077
  23632671.108    23632670.3374   23632673.6574  124190544.460 6  96771876.34143
      2761.427        2151.756
  24868501.078    24868501.3394   24868501.5424  130684870.123 6 101832373.84541
     -3702.505       -2885.079
 08  5 12  1 28  0.0000000  0 13G 3G 6G 7G10G13G16G19G21G23G24G25G27
                                G29
  21823658.747    21823658.2124   21823661.4404  114684123.816 7  89364279.42945
      2907.519        2265.595
  21069822.587    21069822.1704   21069825.3384  110722703.249 8  86277455.39646
       878.766         684.751
  22704180.295    22704179.7944   22704181.9404  119311287.456 7  92969866.05344
      2829.639        2204.914
  23716525.871    23716525.0874   23716529.5454  124631193.932 6  97115236.67643
      -132.878        -103.541
  21948384.246    21948384.0294   21948386.1034  115339551.828 7  89875007.66045
     -1365.352       -1063.908
  20703954.265    20703953.6784   20703955.7364  108800055.833 8  84779290.87947
     -1383.154       -1077.787
  24523844.856    24523844.4864   24523845.7884  128873692.266 5 100421074.09542
      3784.840        2949.218
  23033385.395    23033384.7784   23033386.9264  121041273.923 6  94317897.26144
      1469.652        1145.187
  23225179.063    23225178.4984   23225179.2534  122049168.140 6  95103267.74243
     -3385.113       -2637.741
  23260366.310    23260365.7394   23260369.4304  122234073.627 6  95247348.88243
     -1375.849       -1072.103
  21799023.868    21799023.5604   21799025.7904  114554677.206 7  89263406.19846
      1398.169        1089.481
  23616930.195    23616929.7264   23616933.1944  124107827.705 6  96707421.75643
      2753.071        2145.244
  24889652.925    24889651.9504   24889653.5714  130796021.959 5 101918985.62942
     -3707.620       -2889.047
 08  5 12  1 28 30.0000000  0 13G 3G 6G 7G10G13G16G19G21G23G24G25G27
                                G29
  21807099.999    21807099.4024   21807102.7054  114597106.433 7  89296473.76745
      2893.757        2254.866
  21064858.062    21064857.6394   21064860.7744  110696614.224 8  86257126.28946
       860.594         670.593
  22688061.086    22688060.6814   22688062.8554  119226581.356 6  92903861.33944
      2817.582        2195.515
  23717346.185    23717345.5704   23717350.1034  124635504.382 6  97118595.46143
      -154.369        -120.284
  21956240.264    21956240.2334   21956241.8554  115380835.908 7  89907177.07145
     -1386.792       -1080.616
  20711897.103    20711896.5134   20711898.5584  108841795.906 8  84811815.67447
     -1399.392       -1090.440
  24502250.263    24502248.4324   24502251.3304  128760206.227 5 100332643.51042
      3781.047        2946.273
  23025044.393    23025043.4444   23025045.1834  120997437.990 7  94283739.39244
      1452.861        1132.099
  23244536.250    23244535.3494   23244536.0384  122150892.172 6  95182533.19243
     -3396.344       -2646.510
  23268274.409    23268274.3024   23268278.3944  122275634.531 6  95279733.99743
     -1394.759       -1086.833
  21791088.174    21791087.7584   21791090.7114  114512976.229 8  89230911.94346
      1382.010        1076.890
  23601237.300    23601236.9654   23601240.4814  124025361.404 6  96643162.32143
      2744.705        2138.722
  24910834.221    24910832.4824   24910835.3494  130907326.729 5 102005716.49642
     -3712.636       -2892.982
 08  5 12  1 29  0.0000000  0 13G 3G 6G 7G10G13G16G19G21G23G24G25G27
                                G29
  21790620.137    21790619.6374   21790622.7374  114510505.315 7  89228992.47945
      2879.800        2244.007
  21059998.059    21059997.5124   21060000.4854  110671073.618 8  86237224.51746
       842.272         656.317
  22672010.962    22672010.5664   22672013.0444  119142238.959 7  92838140.01444
      2805.407        2186.033
  23718289.813    23718288.8564   23718292.9324  124640461.962 6  97122458.51843
      -175.975        -137.126
  21964218.832    21964218.8544   21964220.6064  115422764.454 7  89939848.67645
     -1408.319       -1097.387
  20719933.027    20719932.2714   20719934.3294  108884024.368 8  84844721.01247
     -1415.712       -1103.154
  24480677.010    24480676.0764   24480677.4394  128646837.197 5 100244304.05142
      3777.009        2943.135
  23016798.608    23016797.8814   23016799.6884  120954107.996 6  94249975.77744
      1435.932        1118.900
  23263959.037    23263958.4554   23263958.0454  122252956.547 6  95262063.87243
     -3407.716       -2655.371
  23276292.135    23276291.9474   23276295.4144  122317765.597 6  95312563.41643
     -1413.845       -1101.703
  21783245.717    21783245.3484   21783247.5754  114471762.905 8  89198797.67046
      1365.669        1064.159
  23585592.874    23585591.5824   23585595.5844  123943148.516 6  96579100.34743
      2736.272        2132.157
  24932042.624    24932041.1304   24932046.7054  131018782.975 4 102092565.26541
     -3717.731       -2896.944
 08  5 12  1 29 30.0000000  0 13G 3G 6G 7G10G13G16G19G21G23G24G25G27
                                G29
  21774220.187    21774219.8874   21774223.0404  114424324.076 7  89161838.31245
      2865.705        2233.015
  21055242.374    21055241.8464   21055244.9654  110646082.884 8  86217751.20746
       823.863         641.969
  22656031.201    22656030.7934   22656032.9444  119058263.574 7  92772704.67344
      2793.056        2176.402
  23719356.561    23719355.7194   23719359.9254  124646067.874 6  97126826.77943
      -197.634        -153.998
  21972320.543    21972320.2664   21972322.1504  115465337.047 7  89973022.12845
     -1429.785       -1114.113
  20728061.546    20728060.9744   20728063.0284  108926741.268 8  84878006.94147
     -1432.018       -1115.863
  24459126.568    24459125.4284   24459125.2494  128533588.631 5 100156058.37042
      3772.907        2939.923
  23008650.270    23008649.3794   23008651.2274  120911287.235 6  94216608.98144
      1418.867        1105.606
  23283445.195    23283445.1544   23283445.1324  122355359.060 6  95341858.07643
     -3419.043       -2664.197
  23284417.305    23284416.8364   23284421.1784  122360466.575 6  95345836.92743
     -1432.836       -1116.511
  21775496.217    21775495.9094   21775498.7034  114431039.908 8  89167065.47946
      1349.263        1051.374
  23569996.499    23569996.2774   23569999.7344  123861191.812 6  96515238.01643
      2727.596        2125.391
  24953281.280    24953280.5394   24953283.1854  131130389.419 5 102179531.17441
     -3722.723       -2900.832
 08  5 12  1 30  0.0000000  0 13G 3G 6G 7G10G13G16G19G21G23G24G25G27
                                G29
  21757900.685    21757899.9644   21757903.1354  114338562.407 7  89095011.05745
      2851.726        2222.119
  21050591.045    21050590.5994   21050593.7074  110621640.542 8  86198705.22146
       805.629         627.762
  22640120.430    22640120.6884   22640122.5814  118974655.200 7  92707555.31344
      2780.851        2166.889
  23720545.803    23720545.1874   23720549.6214  124652319.473 6  97131698.15943
      -219.054        -170.682
  21980543.917    21980543.6254   21980545.5924  115508549.733 7  90006694.36145
     -1451.043       -1130.672
  20736282.659    20736281.9694   20736284.0284  108969942.983 8  84911670.64647
     -1448.089       -1128.382
  24437598.712    24437597.7354   24437599.4034  128420460.453 5 100067906.56042
      3768.922        2936.829
  23000598.439    23000597.4544   23000599.4204  120868974.772 7  94183638.23544
      1401.948        1092.427
  23302996.083    23302995.0684   23302995.4734  122458094.156 6  95421911.38743
     -3429.939       -2672.682
  23292651.707    23292650.8154   23292655.2794  122403733.716 6  95379551.52043
     -1451.638       -1131.141
  21767839.917    21767839.5044   21767842.2534  114390806.004 8  89135714.38646
      1332.997        1038.698
  23554449.680    23554449.4814   23554452.8444  123779490.974 6  96451575.07643
      2719.125        2118.798
  24974547.112    24974546.1484   24974548.4704  131242141.611 5 102266610.76242
     -3727.396       -2904.453
 08  5 12  1 30 30.0000000  0 13G 3G 6G 7G10G13G16G19G21G23G24G25G27
                                G29
  21741661.020    21741660.3064   21741663.3074  114253221.966 7  89028512.00045
      2837.688        2211.185
  21046044.160    21046043.8494   21046046.7484  110597746.187 8  86180086.24846
       787.369         613.539
  22624280.918    22624280.7934   22624282.6034  118891415.536 7  92642693.24944
      2768.517        2157.287
  23721858.258    23721857.0164   23721861.8614  124659215.836 6  97137071.96343
      -240.620        -187.501
  21988888.078    21988887.8904   21988889.6124  115552400.105 7  90040863.48645
     -1472.247       -1147.206
  20744595.404    20744594.9194   20744597.0154  109013627.970 8  84945710.90947
     -1464.162       -1140.904
  24416093.744    24416092.6294   24416094.3514  128307453.912 5  99979849.60642
      3764.916        2933.677
  22992643.287    22992642.3454   22992644.6754  120827171.637 7  94151064.37944
      1384.969        1079.206
  23322607.885    23322606.7964   23322607.5074  122561158.060 6  95502220.90543
     -3440.837       -2681.168
  23300992.083    23300992.0774   23300995.8384  122447564.878 6  95413705.66843
     -1470.396       -1145.738
  21760277.273    21760276.7304   21760279.4154  114351062.251 8  89104745.23746
      1316.656        1025.967
  23538951.815    23538951.3024   23538954.1464  123698047.172 6  96388112.37643
      2710.563        2112.137
  24995839.289    24995839.8464   24995841.3704  131354036.218 5 102353801.37041
     -3732.136       -2908.143
 08  5 12  1 31  0.0000000  0 13G 3G 6G 7G10G13G16G19G21G23G24G25G27
                                G29
  21725501.793    21725501.3924   21725504.5214  114168306.829 7  88962344.35345
      2823.354        2200.019
  21041601.876    21041601.6004   21041604.4644  110574402.132 8  86161896.06246
       768.909         599.153
  22608512.016    22608511.4964   22608513.2924  118808548.691 7  92578121.68644
      2755.969        2147.512
  23723293.515    23723292.5084   23723296.6604  124666758.369 6  97142949.24043
      -262.249        -204.340
  21997353.898    21997353.8074   21997355.7044  115596888.402 7  90075529.69645
     -1493.608       -1163.851
  20753000.767    20752999.9834   20753002.0054  109057796.810 8  84980128.21047
     -1480.388       -1153.551
  24394612.704    24394611.3814   24394612.8034  128194572.965 5  99891890.40842
      3760.570        2930.327
  22984786.364    22984785.4094   22984786.9234  120785881.733 7  94118890.44244
      1367.710        1065.748
  23342282.055    23342281.8194   23342282.9354  122664549.820 6  95582785.86643
     -3451.887       -2689.778
  23309440.311    23309440.2144   23309443.9144  122491960.144 6  95448299.40243
     -1489.304       -1160.508
  21752807.601    21752807.2844   21752809.9604  114311811.648 8  89074160.35946
      1300.069        1013.042
  23523502.939    23523502.6734   23523505.0524  123616864.071 6  96324852.80943
      2701.687        2105.211
  25017159.256    25017158.6064   25017162.3704  131466073.252 5 102441103.00041
     -3737.077       -2911.978
 08  5 12  1 31 30.0000000  0 13G 3G 6G 7G10G13G16G19G21G23G24G25G27
                                G29
  21709424.911    21709424.1014   21709427.3254  114083819.675 7  88896510.23245
      2809.101        2188.906
  21037264.752    21037264.3184   21037267.1424  110551609.535 8  86144135.57346
       750.569         584.860
  22592814.737    22592813.9724   22592816.2524  118726057.758 7  92513843.05944
      2743.429        2137.733
  23724851.882    23724850.8184   23724855.2684  124674947.350 6  97149330.26543
      -283.861        -221.188
  22005940.980    22005940.7244   22005942.3984  115642013.627 7  90110692.20845
     -1514.771       -1180.341
  20761497.583    20761496.9934   20761498.8904  109102448.661 8  85014921.88547
     -1496.415       -1166.039
  24373156.817    24373155.7784   24373157.4034  128081820.560 5  99804031.46842
      3756.238        2926.940
  22977026.748    22977026.2654   22977027.8994  120745106.410 6  94087117.45044
      1350.573        1052.388
  23362018.866    23362018.3354   23362018.8434  122768266.510 6  95663604.05743
     -3462.579       -2698.104
  23317996.234    23317995.1444   23317999.3964  122536918.440 6  95483331.81743
     -1507.966       -1175.042
  21745433.132    21745432.7224   21745435.1604  114273056.055 8  89043961.20146
      1283.589        1000.197
  23508104.733    23508103.9634   23508107.4364  123535943.949 6  96261798.18343
      2692.945        2098.393
  25038504.372    25038504.6194   25038508.9204  131578251.113 4 102528514.24241
     -3741.617       -2915.510
 08  5 12  1 32  0.0000000  0 13G 3G 6G 7G10G13G16G19G21G23G24G25G27
                                G29
  21693428.711    21693428.3344   21693431.4234  113999761.296 7  88831010.20545
      2794.764        2177.740
  21033032.532    21033031.9014   21033034.7434  110529367.944 8  86126804.48646
       732.153         570.506
  22577188.516    22577188.5144   22577190.3444  118643943.968 7  92449858.30544
      2730.797        2127.888
  23726533.202    23726531.9934   23726536.6964  124683781.907 6  97156214.33543
      -305.323        -237.920
  22014648.519    22014648.3024   22014649.6244  115687773.071 7  90146348.92745
     -1535.887       -1196.792
  20770086.031    20770085.5104   20770087.3914  109147581.450 8  85050090.28647
     -1512.469       -1178.546
  24351726.396    24351724.9534   24351725.9544  127969197.538 5  99716273.29742
      3751.970        2923.616
  22969365.579    22969364.9564   22969366.5554  120704846.128 7  94055745.80444
      1333.381        1038.996
  23381816.789    23381816.5864   23381816.0484  122872303.886 6  95744672.13043
     -3473.233       -2706.416
  23326658.217    23326657.2834   23326661.3404  122582437.341 6  95518801.10343
     -1526.606       -1189.558
  21738152.120    21738151.7074   21738154.3884  114234795.918 8  89014148.11746
      1267.037         987.304
  23492756.309    23492755.5084   23492758.6934  123455287.967 6  96198949.39343
      2684.068        2091.475
  25059877.293    25059877.7204   25059882.1304  131690565.991 4 102616032.23341
     -3746.083       -2919.025
 08  5 12  1 32 30.0000000  0 13G 3G 6G 7G10G13G16G19G21G23G24G25G27
                                G29
  21677514.949    21677514.4004   21677517.4934  113916133.283 7  88765845.51045
      2780.433        2166.572
  21028904.598    21028904.1824   21028907.1194  110507677.046 8  86109902.52846
       713.866         556.260
  22561634.343    22561634.5024   22561636.5624  118562208.696 7  92386168.48244
      2718.235        2118.107
  23728336.814    23728335.4324   23728340.2844  124693260.842 6  97163600.50743
      -326.671        -254.546
  22023476.656    22023476.5624   22023477.5094  115734164.065 7  90182497.77845
     -1556.858       -1213.140
  20778765.855    20778765.1494   20778767.0394  109193193.282 8  85085631.96147
     -1528.327       -1190.904
  24330319.419    24330318.3754   24330319.4844  127856705.337 5  99628617.07042
      3747.632        2920.221
  22961802.278    22961801.8394   22961803.3134  120665101.385 7  94024775.88444
      1316.216        1025.620
  23401674.352    23401673.8284   23401674.6824  122976658.173 6  95825987.12843
     -3483.696       -2714.553
  23335426.059    23335425.8864   23335429.4134  122628514.569 6  95554705.45143
     -1545.201       -1204.052
  21730966.060    21730965.5704   21730968.2174  114197031.727 8  88984721.48546
      1250.556         974.458
  23477457.936    23477457.6694   23477461.0314  123374897.313 6  96136307.34044
      2675.311        2084.658
  25081276.940    25081277.2514   25081279.3214  131803014.726 5 102703654.58942
     -3750.438       -2922.437
 08  5 12  1 33  0.0000000  0 13G 3G 6G 7G10G13G16G19G21G23G24G25G27
                                G29
  21661683.490    21661682.9484   21661686.1304  113832937.654 7  88701017.77645
      2765.821        2155.180
  21024881.628    21024881.2744   21024884.1954  110486536.764 8  86093429.63246
       695.408         541.873
  22546153.605    22546152.8454   22546155.3204  118480853.785 6  92322775.06944
      2705.301        2108.024
  23730263.270    23730261.6014   23730266.4464  124703382.962 6  97171487.86843
      -348.245        -271.369
  22032423.944    22032423.8474   22032425.6724  115781184.620 7  90219137.17545
     -1577.944       -1229.568
  20787536.213    20787535.6184   20787537.4854  109239282.286 8  85121545.45447
     -1544.374       -1203.410
  24308937.462    24308936.7554   24308938.6734  127744345.892 5  99541064.32642
      3742.919        2916.544
  22954337.557    22954337.2744   22954339.1434  120625874.809 7  93994209.72444
      1298.754        1012.005
  23421591.945    23421591.6304   23421592.1794  123081325.826 6  95907546.27743
     -3494.210       -2722.770
  23344300.266    23344299.3004   23344303.3724  122675147.902 6  95591043.10243
     -1563.797       -1218.550
  21723874.310    21723873.8214   21723876.3284  114159764.468 8  88955682.07146
      1233.822         961.421
  23462210.709    23462210.4054   23462213.9084  123294773.187 6  96073872.98743
      2666.196        2077.563
  25102700.013    25102699.0754   25102702.7394  131915594.748 5 102791379.26441
     -3754.934       -2925.912
 08  5 12  1 33 30.0000000  0 13G 3G 6G 7G10G13G16G19G21G23G24G25G27
                                G29
  21645934.801    21645934.2644   21645937.1764  113750177.894 7  88636529.67845
      2751.419        2143.965
  21020963.991    21020963.5374   21020966.1954  110465948.527 8  86077386.87946
       677.113         527.620
  22530745.173    22530745.0264   22530746.8854  118399882.800 7  92259680.80144
      2692.713        2098.216
  23732312.233    23732310.7834   23732314.6654  124714149.054 6  97179877.02743
      -369.519        -287.926
  22041491.546    22041491.5494   22041492.8564  115828834.021 7  90256266.55745
     -1598.717       -1245.756
  20796397.410    20796396.8784   20796398.7274  109285848.701 8  85157830.99647
     -1560.079       -1215.647
  24287582.264    24287581.4364   24287583.2834  127632122.242 5  99453617.37242
      3738.607        2913.198
  22946972.102    22946971.3924   22946972.9524  120587167.858 6  93964048.47444
      1281.673         998.706
  23441568.989    23441568.3934   23441568.5034  123186304.690 6  95989347.94943
     -3504.387       -2730.687
  23353279.842    23353279.1914   23353284.0124  122722337.048 6  95627813.86543
     -1582.122       -1232.815
  21716877.479    21716877.0144   21716879.7284  114122996.682 8  88927031.84946
      1217.340         948.576
  23447015.384    23447014.7664   23447017.5704  123214918.640 6  96011648.68143
      2657.395        2070.698
  25124148.659    25124147.8384   25124150.8644  132028305.100 4 102879205.50041
     -3759.066       -2929.159
 08  5 12  1 34  0.0000000  0 13G 3G 6G 7G10G13G16G19G21G23G24G25G27
                                G29
  21630268.432    21630268.0894   21630271.2284  113667851.873 7  88572379.58145
      2737.003        2132.730
  21017150.367    21017150.0394   21017152.7924  110445908.779 8  86061771.51146
       658.911         513.438
  22515409.647    22515409.2704   22515411.7534  118319294.265 7  92196884.54144
      2679.965        2088.284
  23734482.079    23734480.8734   23734485.4524  124725554.529 5  97188764.39442
      -390.739        -304.458
  22050677.473    22050677.3024   22050679.5914  115877106.938 7  90293881.80145
     -1619.384       -1261.853
  20805348.421    20805347.9504   20805349.8064  109332886.993 8  85194484.22147
     -1575.739       -1227.847
  24266252.333    24266251.0974   24266253.9504  127520032.486 5  99366274.75842
      3734.109        2909.688
  22939704.634    22939703.9054   22939705.4644  120548977.168 7  93934289.49044
      1264.476         985.308
  23461603.223    23461602.6614   23461603.6814  123291587.855 6  96071386.73543
     -3514.462       -2738.538
  23362364.598    23362363.4324   23362367.9934  122770076.116 6  95665013.11843
     -1600.341       -1247.016
  21709975.382    21709974.9964   21709977.5234  114086725.416 8  88898768.53646
      1200.809         935.694
  23431870.739    23431869.9654   23431872.9684  123135331.591 6  95949632.79544
      2648.534        2063.802
  25145619.235    25145619.8774   25145622.4214  132141139.558 5 102967128.37841
     -3763.244       -2932.413
 08  5 12  1 34 30.0000000  0 13G 3G 6G 7G10G13G16G19G21G23G24G25G27
                                G29
  21614685.613    21614684.9544   21614688.3954  113585963.149 7  88508570.20845
      2722.147        2121.154
  21013441.783    21013441.4194   21013444.1974  110426419.792 8  86046585.31146
       640.270         498.909
  22500147.452    22500147.4304   22500149.8854  118239091.999 7  92134389.29044
      2666.753        2077.993
  23736773.865    23736773.5724   23736777.9714  124737601.142 5  97198151.34243
      -412.328        -321.284
  22059982.290    22059982.2404   22059984.0854  115926002.734 7  90331982.41245
     -1640.368       -1278.215
  20814389.599    20814388.9124   20814390.7624  109380397.927 8  85231505.75147
     -1591.684       -1240.271
  24244948.919    24244947.8944   24244948.6184  127408080.616 5  99279039.57342
      3729.229        2905.902
  22932536.712    22932535.7744   22932537.2964  120511307.614 7  93904936.56844
      1246.806         971.541
  23481696.664    23481695.8794   23481694.9974  123397173.841 6  96153661.52143
     -3524.674       -2746.503
  23371553.746    23371553.1134   23371557.2024  122818365.417 6  95702641.12843
     -1618.918       -1261.489
  21703168.122    21703167.7724   21703170.2124  114050953.849 8  88870894.60946
      1183.900         922.520
  23416777.211    23416776.2244   23416779.9304  123056015.744 6  95887828.25644
      2639.177        2056.503
  25167115.323    25167114.6454   25167118.2664  132254097.398 5 103055147.41741
     -3767.488       -2935.693
 08  5 12  1 35  0.0000000  0 13G 3G 6G 7G10G13G16G19G21G23G24G25G27
                                G29
  21599186.725    21599186.2874   21599189.2284  113504516.797 7  88445105.54745
      2707.498        2109.729
  21009838.455    21009838.1544   21009840.7974  110407484.278 8  86031830.39546
       622.027         484.695
  22484959.864    22484959.5684   22484962.0104  118159281.037 6  92072198.94944
      2653.886        2067.963
  23739189.025    23739187.8784   23739192.6814  124750291.361 5  97208039.81242
      -433.629        -337.898
  22069405.737    22069405.3814   22069406.8934  115975522.213 7  90370568.99145
     -1660.990       -1294.272
  20823520.534    20823520.0904   20823522.0054  109428382.510 8  85268896.35647
     -1607.334       -1252.468
  24223671.169    24223670.9184   24223672.9674  127296271.430 5  99191915.54342
      3724.598        2902.281
  22925467.748    22925467.2814   22925469.0264  120474162.887 7  93875992.62844
      1229.481         958.042
  23501846.148    23501845.3514   23501845.1224  123503061.746 6  96236171.49943
     -3534.490       -2754.152
  23380847.106    23380846.9594   23380851.0304  122867205.749 6  95740698.53343
     -1637.110       -1275.670
  21696457.035    21696456.5204   21696458.9354  114015685.613 8  88843412.87146
      1167.247         909.544
  23401735.719    23401735.0594   23401738.9304  122976974.970 6  95826238.07244
      2630.078        2049.414
  25188634.559    25188633.5204   25188636.2164  132367178.886 4 103143262.78241
     -3771.365       -2938.706
 08  5 12  1 35 30.0000000  0 13G 3G 6G 7G10G13G16G19G21G23G24G25G27
                                G29
  21583772.386    21583771.8054   21583774.8384  113423513.035 7  88381985.77745
      2692.723        2098.220
  21006340.282    21006339.8234   21006342.5584  110389100.919 8  86017505.70346
       603.612         470.348
  22469846.639    22469846.5744   22469849.0544  118079861.730 6  92010313.81144
      2640.760        2057.730
  23741726.207    23741724.8234   23741728.7724  124763622.254 6  97218427.52043
      -455.013        -354.556
  22078946.560    22078946.5134   22078948.4934  116025661.552 7  90409638.54345
     -1681.617       -1310.355
  20832741.501    20832740.7204   20832742.7774  109476837.963 8  85306653.90247
     -1623.001       -1264.677
  24202422.590    24202421.3724   24202421.5484  127184605.085 5  99104902.83442
      3719.818        2898.568
  22918499.279    22918498.4724   22918500.6134  120437542.141 7  93847457.00944
      1211.944         944.371
  23522051.979    23522051.5334   23522051.8984  123609246.740 6  96318913.00543
     -3544.366       -2761.844
  23390245.366    23390244.6494   23390248.4404  122916593.545 6  95779182.50843
     -1655.372       -1289.882
  21689841.181    21689840.8484   21689843.3744  113980920.418 8  88816323.10946
      1150.443         896.445
  23386747.800    23386747.2264   23386750.1114  122898209.670 6  95764862.52244
      2620.869        2042.233
  25210175.199    25210174.4834   25210177.8574  132480380.073 5 103231471.41741
     -3775.283       -2941.763
 08  5 12  1 36  0.0000000  0 13G 3G 6G 7G10G13G16G19G21G23G24G25G27
                                G29
  21568442.351    21568441.7734   21568444.6884  113342952.613 7  88319211.44945
      2677.860        2086.640
  21002947.024    21002946.5454   21002949.2794  110371268.806 8  86003610.55846
       585.126         455.943
  22454808.692    22454808.6394   22454810.6544  118000835.296 7  91948734.78645
      2627.557        2047.450
  23744384.736    23744383.6414   23744387.6274  124777592.171 6  97229313.16043
      -476.435        -371.245
  22088605.315    22088605.6044   22088606.8084  116076417.926 7  90449188.91445
     -1702.250       -1326.429
  20842051.113    20842050.5154   20842052.5234  109525761.617 8  85344776.23347
     -1638.648       -1276.869
  24181200.740    24181199.4794   24181200.4954  127073082.646 6  99018002.22642
      3714.880        2894.712
  22911630.125    22911629.3144   22911631.0574  120401444.874 6  93819329.30344
      1194.393         930.696
  23542314.524    23542313.8834   23542314.0494  123715724.541 6  96401882.64543
     -3554.190       -2769.499
  23399748.186    23399746.9444   23399749.8164  122966525.752 6  95818090.71943
     -1673.585       -1304.091
  21683321.369    21683320.9894   21683323.6564  113946658.161 8  88789625.24346
      1133.600         883.326
  23371811.377    23371811.1124   23371814.8404  122819720.631 6  95703702.24944
      2611.564        2034.985
  25231739.275    25231739.7024   25231742.9204  132593697.553 5 103319770.68641
     -3779.224       -2944.831
 08  5 12  1 36 30.0000000  0 13G 3G 6G 7G10G13G16G19G21G23G24G25G27
                                G29
  21553197.925    21553197.2914   21553200.3014  113262841.846 7  88256787.46645
      2662.863        2074.956
  20999659.484    20999658.9654   20999661.7704  110353992.583 8  85990148.56147
       566.645         441.541
  22439846.846    22439846.4794   22439848.4104  117922208.046 7  91887466.82245
      2614.266        2037.085
  23747164.882    23747164.1064   23747168.5524  124792205.100 6  97240699.85543
      -497.829        -387.918
  22098381.756    22098381.5764   22098383.2654  116127793.813 7  90489222.06845
     -1722.817       -1342.454
  20851450.530    20851450.0164   20851452.1044  109575156.310 8  85383265.60847
     -1654.294       -1289.061
  24160008.144    24160006.2894   24160007.6784  126961710.498 5  98931218.71543
      3709.853        2890.785
  22904861.556    22904861.2054   22904863.1104  120365877.608 6  93791614.54444
      1176.772         916.958
  23562632.591    23562632.6564   23562632.8174  123822496.441 6  96485081.52943
     -3563.880       -2777.058
  23409353.386    23409353.2564   23409356.6044  123017005.346 6  95857425.47643
     -1691.763       -1318.271
  21676898.328    21676897.9424   21676900.1994  113912904.397 8  88763323.60046
      1116.640         870.108
  23356928.753    23356928.4494   23356932.2674  122741514.235 6  95642762.23844
      2602.189        2027.678
  25253325.857    25253325.5064   25253328.1134  132707133.328 5 103408162.09241
     -3783.149       -2947.893
 08  5 12  1 37  0.0000000  0 13G 3G 6G 7G10G13G16G19G21G23G24G25G27
                                G29
  21538039.432    21538038.9944   21538041.7504  113183183.476 7  88194715.97845
      2647.700        2063.145
  20996477.819    20996477.4574   20996480.1054  110337272.950 8  85977120.25946
       548.016         427.026
  22424960.399    22424960.5084   22424962.7924  117843982.841 7  91826512.15045
      2600.715        2026.529
  23750068.973    23750067.5404   23750071.6674  124807460.844 6  97252587.44042
      -519.226        -404.597
  22108276.186    22108276.1914   22108277.1954  116179787.745 7  90529736.83044
     -1743.475       -1358.552
  20860939.592    20860938.9614   20860941.0754  109625021.323 8  85422121.46147
     -1670.070       -1301.348
  24138843.649    24138842.0544   24138843.6234  126850491.095 5  98844554.30442
      3704.587        2886.674
  22898194.027    22898194.0014   22898196.0474  120330842.525 7  93764314.43344
      1158.916         903.059
  23583005.667    23583005.6364   23583006.4204  123929559.338 6  96568507.12343
     -3573.621       -2784.617
  23419062.875    23419062.8874   23419066.4524  123068030.816 6  95897185.55743
     -1710.010       -1332.459
  21670572.166    21670571.7484   21670574.5614  113879660.769 8  88737419.46546
      1099.549         856.795
  23342101.793    23342101.0024   23342103.8864  122663592.752 6  95582044.20744
      2592.553        2020.186
  25274932.943    25274933.6824   25274936.4944  132820685.724 5 103496644.48141
     -3787.058       -2950.939
 08  5 12  1 37 30.0000000  0 13G 3G 6G 7G10G13G16G19G21G23G24G25G27
                                G29
  21522967.017    21522966.4174   21522969.4764  113103977.786 7  88132997.20045
      2632.588        2051.369
  20993401.750    20993401.3634   20993404.1124  110321108.628 8  85964524.67046
       529.559         412.642
  22410151.658    22410151.3544   22410153.4474  117766160.669 7  91765871.52345
      2587.347        2016.112
  23753093.695    23753092.0684   23753096.3734  124823357.102 5  97264974.14242
      -540.532        -421.180
  22118286.828    22118286.8374   22118288.5274  116232396.400 7  90570730.61244
     -1763.857       -1374.427
  20870517.651    20870517.0124   20870519.1044  109675354.063 8  85461341.77247
     -1685.528       -1313.401
  24117707.692    24117706.1164   24117708.4204  126739425.390 5  98758009.66343
      3699.484        2882.728
  22891628.952    22891628.2624   22891630.3764  120296338.591 7  93737428.21344
      1141.293         889.327
  23603434.215    23603433.1084   23603433.9504  124036908.625 6  96652155.80143
     -3583.031       -2791.952
  23428876.815    23428875.7294   23428879.2924  123119598.990 6  95937368.57543
     -1727.954       -1346.453
  21664343.210    21664342.7754   21664345.4694  113846927.122 8  88711912.70346
      1082.625         843.605
  23327327.627    23327327.1314   23327330.0994  122585956.476 6  95521548.40043
      2583.121        2012.826
  25296563.773    25296563.5674   25296567.3304  132934350.915 5 103585214.66241
     -3790.641       -2953.697
 08  5 12  1 38  0.0000000  0 13G 3G 6G 7G10G13G16G19G21G23G24G25G27
                                G29
  21507981.154    21507980.5564   21507983.7904  113025226.857 7  88071632.83145
      2617.410        2039.542
  20990431.572    20990431.0254   20990433.7854  110305499.320 8  85952361.56747
       511.024         398.202
  22395419.225    22395419.1964   22395421.5314  117688742.844 7  91705545.96745
      2573.820        2005.578
  23756240.598    23756238.3014   23756242.7214  124839892.792 5  97277859.08542
      -561.843        -437.805
  22128414.350    22128414.2644   22128416.1194  116285616.848 7  90612201.10744
     -1784.231       -1390.309
  20880184.296    20880183.7814   20880185.7314  109726152.395 8  85500924.85547
     -1701.091       -1325.524
  24096602.433    24096601.4274   24096601.8194  126628514.487 6  98671585.61142
      3694.473        2878.812
  22885164.756    22885163.8074   22885165.8004  120262366.725 7  93710956.52744
      1123.470         875.440
  23623915.096    23623915.1824   23623915.7114  124144540.632 6  96736024.81043
     -3592.443       -2799.301
  23438791.793    23438791.7434   23438795.9514  123171707.054 6  95977972.25143
     -1745.950       -1360.465
  21658211.452    21658210.9174   21658213.7924  113814703.690 8  88686803.51546
      1065.543         830.294
  23312607.579    23312606.7704   23312611.4774  122508606.208 6  95461275.49043
      2573.517        2005.335
  25318215.045    25318214.5274   25318217.0214  133048126.108 5 103673870.72041
     -3794.297       -2956.623
 08  5 12  1 38 30.0000000  0 13G 3G 6G 7G10G13G16G19G21G23G24G25G27
                                G29
  21493082.213    21493081.6444   21493084.8564  112946932.179 7  88010624.01545
      2602.351        2027.805
  20987566.851    20987566.2664   20987569.0934  110290445.180 8  85940631.05246
       492.692         383.917
  22380765.209    22380765.1084   22380766.5664  117611731.833 7  91645537.40245
      2560.351        1995.078
  23759508.338    23759507.2744   23759511.2844  124857067.100 5  97291241.66542
      -582.934        -454.224
  22138657.837    22138657.6354   22138659.9884  116339447.082 7  90654146.77144
     -1804.373       -1406.015
  20889939.425    20889938.7314   20889940.7044  109777414.970 8  85540869.69447
     -1716.316       -1337.388
  24075527.088    24075525.7694   24075526.2874  126517760.873 5  98585284.08343
      3689.257        2874.744
  22878801.447    22878801.0564   22878802.5374  120228928.901 6  93684901.09444
      1105.862         861.710
  23644450.482    23644449.6564   23644449.6654  124252452.114 6  96820111.58043
     -3601.487       -2806.346
  23448809.686    23448809.1984   23448813.6304  123224353.298 6  96018995.28143
     -1763.719       -1374.308
  21652176.731    21652176.3754   21652178.7974  113782992.046 8  88662093.16246
      1048.656         817.134
  23297944.470    23297943.4194   23297946.9274  122431544.265 6  95401227.26444
      2564.075        1997.983
  25339885.773    25339885.7744   25339888.8064  133162008.983 5 103762610.67041
     -3797.855       -2959.384
 08  5 12  1 39  0.0000000  0 13G 3G 6G 7G10G13G16G19G21G23G24G25G27
                                G29
  21478270.308    21478269.7244   21478272.5424  112869094.579 7  87949971.35145
      2586.891        2015.755
  20984807.417    20984807.0244   20984809.8724  110275944.763 8  85929331.94046
       474.033         369.379
  22366188.055    22366187.6234   22366189.6924  117535128.494 7  91585846.48745
      2546.536        1984.313
  23762896.569    23762895.8814   23762899.9204  124874878.200 5  97305120.45342
      -604.328        -470.890
  22149016.885    22149016.6924   22149019.3034  116393883.909 7  90696565.17044
     -1824.715       -1421.857
  20899782.345    20899781.6634   20899783.4694  109829139.111 8  85581174.22847
     -1731.883       -1349.519
  24054480.715    24054479.6754   24054480.2284  126407165.066 5  98499105.50742
      3683.762        2870.460
  22872539.896    22872539.0234   22872541.1764  120196023.923 7  93659260.84344
      1087.838         847.663
  23665037.554    23665037.4274   23665038.1184  124360638.528 6  96904412.62343
     -3610.826       -2813.619
  23458930.113    23458929.6724   23458933.6804  123277534.472 5  96060435.15343
     -1781.689       -1388.322
  21646239.613    21646239.2114   21646241.7274  113751791.685 8  88637781.24246
      1031.409         803.692
  23283334.125    23283333.8704   23283336.9464  122354771.359 6  95341404.21244
      2554.225        1990.305
  25361578.092    25361576.9754   25361578.5864  133275995.799 4 103851431.48441
     -3801.316       -2962.072
 08  5 12  1 39 30.0000000  0 13G 3G 6G 7G10G13G16G19G21G23G24G25G27
                                G29
  21463545.592    21463545.2004   21463548.1574  112791716.650 7  87889676.82645
      2571.527        2003.790
  20982153.877    20982153.3644   20982156.2484  110261999.499 8  85918465.40946
       455.537         354.959
  22351689.268    22351688.8544   22351690.6664  117458936.109 7  91526475.81245
      2532.823        1973.631
  23766407.868    23766406.4934   23766410.7454  124893325.305 5  97319494.79942
      -625.534        -487.426
  22159491.120    22159490.6404   22159493.2514  116448925.712 7  90739454.86644
     -1844.842       -1437.547
  20909712.598    20909712.0294   20909713.9354  109881324.149 8  85621837.89247
     -1747.197       -1361.451
  24033465.245    24033463.9714   24033466.1264  126296729.983 5  98413052.24442
      3678.437        2866.321
  22866380.256    22866379.6794   22866381.3574  120163654.603 7  93634038.02044
      1069.967         833.740
  23685677.301    23685676.7744   23685676.9954  124469097.527 6  96988926.13343
     -3619.868       -2820.689
  23469151.070    23469151.1814   23469155.8794  123331249.574 6  96102291.06643
     -1799.454       -1402.166
  21640400.131    21640399.6214   21640402.2944  113721104.422 8  88613869.05946
      1014.273         790.350
  23268779.996    23268779.4934   23268782.9454  122278289.833 6  95281808.22843
      2544.432        1982.679
  25383288.512    25383285.8924   25383288.8234  133390085.293 4 103940332.30941
     -3804.765       -2964.768
 08  5 12  1 40  0.0000000  0 12G 3G 6G 7G10G13G16G19G21G23G24G25G27
  21448909.631    21448909.0794   21448911.9494  112714803.298 7  87829744.26645
      2556.045        1991.728
  20979606.279    20979605.9194   20979608.6994  110248612.154 8  85908033.77246
       436.965         340.482
  22337268.637    22337268.5894   22337270.4264  117383159.182 7  91467428.87645
      2518.992        1962.851
  23770038.810    23770038.3774   23770042.8134  124912411.232 5  97334366.96042
      -646.867        -504.059
  22170080.406    22170080.0334   22170082.5854  116504573.062 7  90782816.41544
     -1864.949       -1453.208
  20919731.107    20919730.5034   20919732.4964  109933970.860 8  85662861.17147
     -1762.542       -1373.407
  24012481.635    24012480.9404   24012482.3904  126186460.257 5  98327127.80042
      3672.926        2862.022
  22860322.589    22860322.2204   22860324.3594  120131824.878 6  93609235.71044
      1052.032         819.766
  23706367.909    23706367.6124   23706367.4114  124577827.944 6  97073651.10043
     -3628.803       -2827.647
  23479475.211    23479474.5864   23479479.1524  123385499.299 5  96144563.54943
     -1817.163       -1415.982
  21634659.058    21634658.5644   21634661.2304  113690934.161 8  88590359.68446
       997.078         776.943
  23254283.428    23254282.8404   23254285.8074  122202104.021 6  95222442.64344
      2534.628        1975.038
 08  5 12  1 40 30.0000000  0 12G 3G 6G 7G10G13G16G19G21G23G24G25G27
  21434362.191    21434361.5394   21434364.6184  112638355.797 7  87770174.71845
      2540.444        1979.564
  20977164.756    20977164.3924   20977167.1574  110235782.421 8  85898036.65846
       418.360         325.987
  22322928.681    22322928.3424   22322930.3194  117307799.379 7  91408706.94545
      2505.004        1951.956
  23773792.582    23773791.5414   23773795.9304  124932134.497 5  97349735.73942
      -668.006        -520.523
  22180783.906    22180784.0164   22180786.4504  116560823.671 7  90826648.02744
     -1885.051       -1468.869
  20929837.069    20929836.5354   20929838.5724  109987078.660 8  85704243.87347
     -1777.932       -1385.409
  23991530.506    23991529.1784   23991531.4184  126076358.053 5  98241333.93543
      3667.298        2857.631
  22854368.819    22854368.2154   22854370.2294  120100534.700 6  93584853.66844
      1033.968         805.700
  23727109.862    23727109.0944   23727109.8784  124686826.571 6  97158584.98243
     -3637.694       -2834.552
  23489900.217    23489899.6884   23489903.3794  123440281.703 6  96187251.10943
     -1834.944       -1429.820
  21629016.150    21629015.8004   21629018.3044  113661281.840 8  88567254.00646
       979.750         763.443
  23239842.070    23239841.3254   23239844.9574  122126215.562 6  95163308.80944
      2524.631        1967.237
 08  5 12  1 41  0.0000000  0 12G 3G 6G 7G10G13G16G19G21G23G24G25G27
  21419903.796    21419903.0394   21419906.3314  112562376.973 7  87710970.47545
      2524.806        1967.375
  20974829.463    20974829.1404   20974831.8904  110223510.724 8  85888474.39346
       399.742         311.475
  22308667.678    22308667.8324   22308669.9794  117232859.339 7  91350312.05945
      2490.988        1941.033
  23777666.043    23777665.7334   23777670.5524  124952494.596 5  97365600.75442
      -689.287        -537.128
  22191603.252    22191603.0004   22191605.1154  116617676.187 7  90870948.66044
     -1905.074       -1484.474
  20940030.411    20940029.9314   20940031.9964  110040646.150 8  85745984.90347
     -1793.220       -1397.321
  23970611.168    23970609.7994   23970610.0794  125966425.375 5  98155672.11143
      3661.508        2853.133
  22848517.961    22848517.1694   22848519.1584  120069786.128 6  93560893.67144
      1015.893         791.602
  23747900.911    23747900.6134   23747900.9734  124796090.221 6  97243725.29042
     -3646.521       -2841.439
  23500425.724    23500425.4714   23500429.3054  123495594.975 6  96230352.40243
     -1852.597       -1443.582
  21623472.071    21623471.8524   21623474.4664  113632148.608 8  88544552.81846
       962.442         749.953
  23225456.850    23225456.2304   23225459.9604  122050626.388 6  95104408.18643
      2514.667        1959.471
 08  5 12  1 41 30.0000000  0 12G 3G 6G 7G10G13G16G19G21G23G24G25G27
  21405535.313    21405534.6544   21405537.5864  112486869.909 7  87652133.96445
      2509.042        1955.093
  20972600.882    20972600.2984   20972603.0094  110211798.178 8  85879347.73447
       381.093         296.957
  22294487.832    22294487.6794   22294489.4584  117158342.945 7  91292247.30345
      2476.800        1929.967
  23781661.985    23781660.6294   23781666.6694  124973492.168 5  97381962.46842
      -710.500        -553.628
  22202536.247    22202535.9384   22202537.8454  116675129.028 7  90915717.09744
     -1925.052       -1500.036
  20950311.340    20950310.7604   20950312.9204  110094672.642 8  85788083.53246
     -1808.502       -1409.236
  23949723.519    23949723.0174   23949724.2794  125856665.710 5  98070145.11043
      3655.749        2848.636
  22842769.934    22842769.7444   22842771.3014  120039581.824 7  93537357.83544
       997.765         777.476
  23768743.835    23768743.1614   23768744.1704  124905617.716 5  97329071.35242
     -3655.262       -2848.255
  23511052.847    23511052.3814   23511055.3554  123551438.605 6  96273866.95643
     -1870.310       -1457.387
  21618027.907    21618027.3734   21618029.6984  113603536.876 8  88522257.98746
       945.035         736.388
  23211131.287    23211130.6844   23211133.6414  121975339.961 6  95045743.43144
      2504.453        1951.522
 08  5 12  1 42  0.0000000  0 12G 3G 6G 7G10G13G16G19G21G23G24G25G27
  21391256.360    21391255.7224   21391258.9774  112411834.553 7  87593664.97645
      2493.327        1942.845
  20970477.988    20970477.5414   20970480.5234  110200642.635 8  85870654.97147
       362.587         282.535
  22280388.697    22280388.4004   22280390.4634  117084250.345 7  91234512.78045
      2462.684        1918.974
  23785778.086    23785777.0814   23785781.4744  124995123.865 5  97398818.37542
      -731.549        -570.034
  22213582.753    22213582.6204   22213584.0604  116733177.925 7  90960949.94044
     -1944.843       -1515.461
  20960679.019    20960678.3444   20960680.3214  110149154.670 8  85830537.06546
     -1823.607       -1420.986
  23928870.347    23928869.0404   23928870.3654  125747079.025 5  97984752.92542
      3649.988        2844.147
  22837125.910    22837125.0424   22837126.7284  120009920.471 6  93514245.06644
       979.680         763.389
  23789635.646    23789634.7954   23789635.4004  125015403.385 6  97414618.64943
     -3663.784       -2854.882
  23521779.602    23521778.8014   23521781.5894  123607808.339 6  96317791.48843
     -1887.708       -1470.930
  21612682.012    21612681.6194   21612684.2354  113575445.461 8  88500368.59246
       927.699         722.881
  23196861.537    23196861.2964   23196865.2174  121900355.991 6  94987314.36844
      2494.426        1943.711
